
Distance (Route):
Temperature : 0°C
Humidity : 0%
Pressure : 0hPa| Receiver | Frames | First received | Last received |
|---|---|---|---|
| SQ6EMJ | 715 | 2026-08-31 23:27:12 | 2026-09-01 01:28:08 |
| KRY50SP | 278 | 2026-08-31 23:34:34 | 2026-09-01 00:57:48 |
| SP6BVK | 201 | 2026-08-31 23:17:56 | 2026-09-01 00:58:39 |
| PETON7-10 | 94 | 2026-09-01 00:26:08 | 2026-09-01 01:05:07 |
| SP3BTT-10 | 92 | 2026-08-31 23:34:19 | 2026-09-01 01:04:50 |
| OE5DRO-10 | 32 | 2026-09-01 00:29:13 | 2026-09-01 00:57:14 |
| SP4MAZ | 14 | 2026-09-01 00:17:39 | 2026-09-01 00:42:09 |
| AA1-15 | 8 | 2026-09-01 01:07:38 | 2026-09-01 01:08:56 |
| SQ9EZE-15 | 5 | 2026-09-01 00:25:44 | 2026-09-01 00:41:50 |
| DB0UT-7 | 2 | 2026-09-01 00:55:39 | 2026-09-01 00:57:20 |
| BIOWL1-15 | 2 | 2026-09-01 01:05:36 | 2026-09-01 01:05:48 |
| OE3JTB-15 | 1 | 2026-08-31 23:48:52 | 2026-08-31 23:48:52 |
| KRY50SP-1 | 1 | 2026-09-01 01:27:55 | 2026-09-01 01:27:55 |
| Receiver | Date | Latitude | Longitude | Direction | Speed | Altitude | Climb | Temperature | Humidity | Pressure | Voltage | Killtimer | Uptime | BKT | XDATA |
|---|---|---|---|---|---|---|---|---|---|---|---|---|---|---|---|
| SQ6EMJ | 2026-09-01 01:28:08 | 60.21064 | 15.25413 | 181° | 881km/h | 26741m | -139.3m/s | 0°C | 0% | 0hPa | 2.1V | 00:00:00 | 00:00:00 | 00:00:00 | |
| SQ6EMJ | 2026-09-01 01:27:56 | 60.23392 | 15.25627 | 180° | 881km/h | 28718m | -137.6m/s | 0°C | 0% | 0hPa | 2.1V | 00:00:00 | 00:00:00 | 00:00:00 | |
| KRY50SP-1 | 2026-09-01 01:27:55 | 60.23613 | 15.25620 | 181° | 872km/h | 28858m | -138.8m/s | 0°C | 0% | 0hPa | 2.1V | 00:00:00 | 00:00:00 | 00:00:00 | |
| SQ6EMJ | 2026-09-01 01:27:49 | 60.24931 | 15.25601 | 180° | 881km/h | 29711m | -139.9m/s | 0°C | 0% | 0hPa | 2.1V | 00:00:00 | 00:00:00 | 00:00:00 | |
| AA1-15 | 2026-09-01 01:08:56 | 59.79315 | 37.66963 | 0° | 0km/h | 159087m | 0m/s | -31°C | 0% | 3hPa | 2.1V | 00:00:00 | 00:00:00 | 00:00:00 | |
| AA1-15 | 2026-09-01 01:08:43 | 59.79315 | 37.66963 | 0° | 0km/h | 159087m | 0m/s | -29.6°C | 0% | 2.4hPa | 2.1V | 00:00:00 | 00:00:00 | 00:00:00 | |
| AA1-15 | 2026-09-01 01:08:32 | 59.79315 | 37.66963 | 0° | 0km/h | 159087m | 0m/s | -31.2°C | 0% | 2hPa | 2.1V | 00:00:00 | 00:00:00 | 00:00:00 | |
| AA1-15 | 2026-09-01 01:08:20 | 59.79315 | 37.66963 | 0° | 0km/h | 159087m | 0m/s | -29.2°C | 0% | 1.8hPa | 2.1V | 00:00:00 | 00:00:00 | 00:00:00 | |
| AA1-15 | 2026-09-01 01:08:10 | 49.37338 | 19.34449 | 0° | 0km/h | 159087m | 0m/s | -28.4°C | 0% | 1.6hPa | 2.1V | 00:00:00 | 00:00:00 | 00:00:00 | |
| AA1-15 | 2026-09-01 01:07:58 | 49.37338 | 19.34449 | 0° | 0km/h | 159087m | 0m/s | -28.4°C | 0% | 1.5hPa | 2.1V | 00:00:00 | 00:00:00 | 00:00:00 | |
| AA1-15 | 2026-09-01 01:07:48 | 49.37602 | 19.34487 | 185° | 349km/h | 159087m | -204.7m/s | -29°C | 0% | 1.5hPa | 2.1V | 00:00:00 | 00:00:00 | 00:00:00 | |
| AA1-15 | 2026-09-01 01:07:38 | 49.38469 | 19.34610 | 186° | 358km/h | 25001m | -209.9m/s | -29.3°C | 0% | 1.5hPa | 2.1V | 00:00:00 | 00:00:00 | 00:00:00 | |
| BIOWL1-15 | 2026-09-01 01:05:48 | 51.43753 | 17.85496 | 0° | 0km/h | 159087m | 0m/s | -31.4°C | 0% | 2hPa | 2.4V | 00:00:00 | 00:00:00 | 00:00:00 | |
| BIOWL1-15 | 2026-09-01 01:05:36 | 51.43753 | 17.85496 | 0° | 0km/h | 159087m | 0m/s | -31.5°C | 0% | 2hPa | 2.3V | 00:00:00 | 00:00:00 | 00:00:00 | |
| SQ6EMJ | 2026-09-01 01:05:19 | 51.43811 | 17.85619 | 223° | 26km/h | 36218m | 7.3m/s | 0°C | 0% | 0hPa | 0V | 00:00:00 | 00:00:00 | 00:00:00 | |
| SQ6EMJ | 2026-09-01 01:05:13 | 51.43838 | 17.85521 | 134° | 46km/h | 36150m | 9.9m/s | 0°C | 0% | 0hPa | 0V | 00:00:00 | 00:00:00 | 00:00:00 | |
| PETON7-10 | 2026-09-01 01:05:07 | 51.43884 | 17.85530 | 129° | 37km/h | 36103m | 7.3m/s | 0°C | 0% | 0hPa | 0V | 00:00:00 | 00:00:00 | 00:00:00 | |
| SQ6EMJ | 2026-09-01 01:05:02 | 51.43925 | 17.85459 | 176° | 35km/h | 36051m | 2.8m/s | 0°C | 0% | 0hPa | 0V | 00:00:00 | 00:00:00 | 00:00:00 | |
| SQ6EMJ | 2026-09-01 01:04:56 | 51.43964 | 17.85449 | 120° | 42km/h | 36014m | 5.8m/s | 0°C | 0% | 0hPa | 0V | 00:00:00 | 00:00:00 | 00:00:00 | |
| PETON7-10 | 2026-09-01 01:04:52 | 51.44006 | 17.85393 | 138° | 42km/h | 36004m | 1.9m/s | 0°C | 0% | 0hPa | 0V | 00:00:00 | 00:00:00 | 00:00:00 | |
| SQ6EMJ | 2026-09-01 01:04:51 | 51.44014 | 17.85381 | 87° | 57km/h | 35998m | -1.2m/s | 0°C | 0% | 0hPa | 0V | 00:00:00 | 00:00:00 | 00:00:00 | |
| SP3BTT-10 | 2026-09-01 01:04:50 | 51.44014 | 17.85371 | 129° | 49km/h | 35995m | 0.9m/s | 0°C | 0% | 0hPa | 0V | 00:00:00 | 00:00:00 | 00:00:00 | |
| SQ6EMJ | 2026-09-01 01:04:45 | 51.44030 | 17.85340 | 155° | 47km/h | 35975m | 7.0m/s | 0°C | 0% | 0hPa | 0V | 00:00:00 | 00:00:00 | 00:00:00 | |
| SQ6EMJ | 2026-09-01 01:04:40 | 51.44082 | 17.85254 | 102° | 31km/h | 35943m | 8.1m/s | 0°C | 0% | 0hPa | 0V | 00:00:00 | 00:00:00 | 00:00:00 | |
| PETON7-10 | 2026-09-01 01:04:37 | 51.44081 | 17.85232 | 168° | 44km/h | 35923m | 3.8m/s | 0°C | 0% | 0hPa | 0V | 00:00:00 | 00:00:00 | 00:00:00 | |
| SQ6EMJ | 2026-09-01 01:04:34 | 51.44107 | 17.85214 | 149° | 73km/h | 35904m | 7.1m/s | 0°C | 0% | 0hPa | 0V | 00:00:00 | 00:00:00 | 00:00:00 | |
| SQ6EMJ | 2026-09-01 01:04:30 | 51.44152 | 17.85123 | 75° | 27km/h | 35870m | 6.2m/s | 0°C | 0% | 0hPa | 0V | 00:00:00 | 00:00:00 | 00:00:00 | |
| SQ6EMJ | 2026-09-01 01:04:23 | 51.44181 | 17.85057 | 139° | 64km/h | 35855m | 3.5m/s | 0°C | 0% | 0hPa | 0V | 00:00:00 | 00:00:00 | 00:00:00 | |
| PETON7-10 | 2026-09-01 01:04:20 | 51.44206 | 17.85012 | 139° | 51km/h | 35845m | 7.5m/s | 0°C | 0% | 0hPa | 0V | 00:00:00 | 00:00:00 | 00:00:00 | |
| SQ6EMJ | 2026-09-01 01:04:17 | 51.44208 | 17.84973 | 101° | 40km/h | 35836m | 4.7m/s | 0°C | 0% | 0hPa | 0V | 00:00:00 | 00:00:00 | 00:00:00 | |
| SQ6EMJ | 2026-09-01 01:04:11 | 51.44221 | 17.84884 | 190° | 33km/h | 35848m | 11.3m/s | 0°C | 0% | 0hPa | 0V | 00:00:00 | 00:00:00 | 00:00:00 | |
| SQ6EMJ | 2026-09-01 01:04:06 | 51.44271 | 17.84814 | 109° | 69km/h | 35838m | 11.9m/s | 0°C | 0% | 0hPa | 0V | 00:00:00 | 00:00:00 | 00:00:00 | |
| PETON7-10 | 2026-09-01 01:04:05 | 51.44274 | 17.84790 | 96° | 37km/h | 35828m | 8.8m/s | 0°C | 0% | 0hPa | 0V | 00:00:00 | 00:00:00 | 00:00:00 | |
| SQ6EMJ | 2026-09-01 01:04:01 | 51.44280 | 17.84764 | 183° | 16km/h | 35806m | 5.6m/s | 0°C | 0% | 0hPa | 0V | 00:00:00 | 00:00:00 | 00:00:00 | |
| PETON7-10 | 2026-09-01 01:03:50 | 51.44326 | 17.84597 | 132° | 64km/h | 35712m | 6.1m/s | 0°C | 0% | 0hPa | 0V | 00:00:00 | 00:00:00 | 00:00:00 | |
| SQ6EMJ | 2026-09-01 01:03:44 | 51.44326 | 17.84449 | 49° | 26km/h | 35658m | 17.0m/s | 0°C | 0% | 0hPa | 0V | 00:00:00 | 00:00:00 | 00:00:00 | |
| SQ6EMJ | 2026-09-01 01:03:38 | 51.44350 | 17.84316 | 65° | 46km/h | 35600m | 0.6m/s | 0°C | 0% | 0hPa | 0V | 00:00:00 | 00:00:00 | 00:00:00 | |
| PETON7-10 | 2026-09-01 01:03:35 | 51.44322 | 17.84278 | 18° | 53km/h | 35595m | 3.8m/s | 0°C | 0% | 0hPa | 0V | 00:00:00 | 00:00:00 | 00:00:00 | |
| SQ6EMJ | 2026-09-01 01:03:32 | 51.44324 | 17.84217 | 119° | 91km/h | 35603m | 17.7m/s | 0°C | 0% | 0hPa | 0V | 00:00:00 | 00:00:00 | 00:00:00 | |
| SQ6EMJ | 2026-09-01 01:03:27 | 51.44354 | 17.84126 | 289° | 24km/h | 35505m | -0.4m/s | 0°C | 0% | 0hPa | 0V | 00:00:00 | 00:00:00 | 00:00:00 | |
| SQ6EMJ | 2026-09-01 01:03:20 | 51.44390 | 17.84016 | 80° | 44km/h | 35533m | 12.8m/s | 0°C | 0% | 0hPa | 0V | 00:00:00 | 00:00:00 | 00:00:00 | |
| PETON7-10 | 2026-09-01 01:03:18 | 51.44375 | 17.83992 | 352° | 53km/h | 35506m | 7.2m/s | 0°C | 0% | 0hPa | 0V | 00:00:00 | 00:00:00 | 00:00:00 | |
| SQ6EMJ | 2026-09-01 01:03:14 | 51.44384 | 17.83940 | 119° | 64km/h | 35473m | 10.5m/s | 0°C | 0% | 0hPa | 0V | 00:00:00 | 00:00:00 | 00:00:00 | |
| SQ6EMJ | 2026-09-01 01:03:03 | 51.44349 | 17.83715 | 69° | 80km/h | 35392m | 9.0m/s | 0°C | 0% | 0hPa | 0V | 00:00:00 | 00:00:00 | 00:00:00 | |
| PETON7-10 | 2026-09-01 01:02:59 | 51.44302 | 17.83687 | 21° | 57km/h | 35357m | 6.6m/s | 0°C | 0% | 0hPa | 0V | 00:00:00 | 00:00:00 | 00:00:00 | |
| SQ6EMJ | 2026-09-01 01:02:57 | 51.44305 | 17.83665 | 57° | 49km/h | 35348m | 16.1m/s | 0°C | 0% | 0hPa | 0V | 00:00:00 | 00:00:00 | 00:00:00 | |
| SQ6EMJ | 2026-09-01 01:02:51 | 51.44246 | 17.83536 | 10° | 46km/h | 35262m | 9.0m/s | 0°C | 0% | 0hPa | 0V | 00:00:00 | 00:00:00 | 00:00:00 | |
| SP3BTT-10 | 2026-09-01 01:02:50 | 51.44235 | 17.83529 | 15° | 44km/h | 35255m | 6.6m/s | 0°C | 0% | 0hPa | 0V | 00:00:00 | 00:00:00 | 00:00:00 | |
| SQ6EMJ | 2026-09-01 01:02:44 | 51.44209 | 17.83435 | 42° | 51km/h | 35231m | 7.9m/s | 0°C | 0% | 0hPa | 0V | 00:00:00 | 00:00:00 | 00:00:00 | |
| PETON7-10 | 2026-09-01 01:02:43 | 51.44198 | 17.83429 | 6° | 55km/h | 35223m | 5.4m/s | 0°C | 0% | 0hPa | 0V | 00:00:00 | 00:00:00 | 00:00:00 | |
| SQ6EMJ | 2026-09-01 01:02:38 | 51.44161 | 17.83407 | 120° | 64km/h | 35202m | 8.9m/s | 0°C | 0% | 0hPa | 0V | 00:00:00 | 00:00:00 | 00:00:00 | |
| SQ6EMJ | 2026-09-01 01:02:33 | 51.44093 | 17.83306 | 352° | 66km/h | 35198m | -0.4m/s | 0°C | 0% | 0hPa | 0V | 00:00:00 | 00:00:00 | 00:00:00 | |
| SQ6EMJ | 2026-09-01 01:02:27 | 51.44059 | 17.83192 | 70° | 69km/h | 35217m | 15.4m/s | 0°C | 0% | 0hPa | 0V | 00:00:00 | 00:00:00 | 00:00:00 | |
| PETON7-10 | 2026-09-01 01:02:25 | 51.44049 | 17.83184 | 202° | 49km/h | 35183m | 17.3m/s | 0°C | 0% | 0hPa | 0V | 00:00:00 | 00:00:00 | 00:00:00 | |
| SQ6EMJ | 2026-09-01 01:02:21 | 51.44082 | 17.83177 | 119° | 55km/h | 35112m | 5.7m/s | 0°C | 0% | 0hPa | 0V | 00:00:00 | 00:00:00 | 00:00:00 | |
| SQ6EMJ | 2026-09-01 01:02:16 | 51.44041 | 17.83071 | 14° | 55km/h | 35077m | 8.5m/s | 0°C | 0% | 0hPa | 0V | 00:00:00 | 00:00:00 | 00:00:00 | |
| PETON7-10 | 2026-09-01 01:02:10 | 51.44013 | 17.82970 | 46° | 49km/h | 34993m | 0.6m/s | 0°C | 0% | 0hPa | 0V | 00:00:00 | 00:00:00 | 00:00:00 | |
| SQ6EMJ | 2026-09-01 01:02:07 | 51.43977 | 17.82934 | 338° | 33km/h | 34995m | 3.4m/s | 0°C | 0% | 0hPa | 0V | 00:00:00 | 00:00:00 | 00:00:00 | |
| SP3BTT-10 | 2026-09-01 01:02:06 | 51.43970 | 17.82934 | 291° | 38km/h | 34996m | 8.9m/s | 0°C | 0% | 0hPa | 0V | 00:00:00 | 00:00:00 | 00:00:00 | |
| SQ6EMJ | 2026-09-01 01:02:01 | 51.43974 | 17.82893 | 37° | 60km/h | 35023m | 2.0m/s | 0°C | 0% | 0hPa | 0V | 00:00:00 | 00:00:00 | 00:00:00 | |
| PETON7-10 | 2026-09-01 01:01:55 | 51.43921 | 17.82865 | 129° | 58km/h | 35018m | 6.5m/s | 0°C | 0% | 0hPa | 0V | 00:00:00 | 00:00:00 | 00:00:00 | |
| SQ6EMJ | 2026-09-01 01:01:50 | 51.43909 | 17.82795 | 12° | 44km/h | 34963m | 11.7m/s | 0°C | 0% | 0hPa | 0V | 00:00:00 | 00:00:00 | 00:00:00 | |
| SQ6EMJ | 2026-09-01 01:01:42 | 51.43855 | 17.82729 | 44° | 88km/h | 34912m | 1.8m/s | 0°C | 0% | 0hPa | 0V | 00:00:00 | 00:00:00 | 00:00:00 | |
| PETON7-10 | 2026-09-01 01:01:38 | 51.43797 | 17.82721 | 132° | 53km/h | 34873m | 25.6m/s | 0°C | 0% | 0hPa | 0V | 00:00:00 | 00:00:00 | 00:00:00 | |
| SQ6EMJ | 2026-09-01 01:01:37 | 51.43798 | 17.82706 | 86° | 33km/h | 34850m | 16.7m/s | 0°C | 0% | 0hPa | 0V | 00:00:00 | 00:00:00 | 00:00:00 | |
| SQ6EMJ | 2026-09-01 01:01:32 | 51.43762 | 17.82604 | 344° | 42km/h | 34818m | 7.4m/s | 0°C | 0% | 0hPa | 0V | 00:00:00 | 00:00:00 | 00:00:00 | |
| SQ6EMJ | 2026-09-01 01:01:25 | 51.43734 | 17.82536 | 42° | 64km/h | 34773m | 4.9m/s | 0°C | 0% | 0hPa | 0V | 00:00:00 | 00:00:00 | 00:00:00 | |
| SQ6EMJ | 2026-09-01 01:01:20 | 51.43703 | 17.82536 | 109° | 35km/h | 34740m | 5.4m/s | 0°C | 0% | 0hPa | 0V | 00:00:00 | 00:00:00 | 00:00:00 | |
| PETON7-10 | 2026-09-01 01:01:16 | 51.43681 | 17.82442 | 11° | 55km/h | 34719m | 5.0m/s | 0°C | 0% | 0hPa | 0V | 00:00:00 | 00:00:00 | 00:00:00 | |
| SQ6EMJ | 2026-09-01 01:01:15 | 51.43667 | 17.82439 | 354° | 42km/h | 34718m | 8.1m/s | 0°C | 0% | 0hPa | 0V | 00:00:00 | 00:00:00 | 00:00:00 | |
| SQ6EMJ | 2026-09-01 01:01:08 | 51.43634 | 17.82344 | 54° | 78km/h | 34661m | 2.8m/s | 0°C | 0% | 0hPa | 0V | 00:00:00 | 00:00:00 | 00:00:00 | |
| SP3BTT-10 | 2026-09-01 01:01:04 | 51.43609 | 17.82324 | 296° | 44km/h | 34640m | 2.8m/s | 0°C | 0% | 0hPa | 0V | 00:00:00 | 00:00:00 | 00:00:00 | |
| SQ6EMJ | 2026-09-01 01:01:03 | 51.43613 | 17.82326 | 129° | 13km/h | 34632m | 9.5m/s | 0°C | 0% | 0hPa | 0V | 00:00:00 | 00:00:00 | 00:00:00 | |
| SQ6EMJ | 2026-09-01 01:00:58 | 51.43588 | 17.82246 | 3° | 27km/h | 34616m | 6.8m/s | 0°C | 0% | 0hPa | 0V | 00:00:00 | 00:00:00 | 00:00:00 | |
| PETON7-10 | 2026-09-01 01:00:56 | 51.43576 | 17.82272 | 320° | 51km/h | 34619m | 9.8m/s | 0°C | 0% | 0hPa | 0V | 00:00:00 | 00:00:00 | 00:00:00 | |
| SQ6EMJ | 2026-09-01 01:00:51 | 51.43579 | 17.82214 | 83° | 88km/h | 34646m | 3.7m/s | 0°C | 0% | 0hPa | 0V | 00:00:00 | 00:00:00 | 00:00:00 | |
| SQ6EMJ | 2026-09-01 01:00:46 | 51.43533 | 17.82186 | 98° | 33km/h | 34581m | 21.8m/s | 0°C | 0% | 0hPa | 0V | 00:00:00 | 00:00:00 | 00:00:00 | |
| PETON7-10 | 2026-09-01 01:00:40 | 51.43503 | 17.82059 | 13° | 64km/h | 34528m | 14.1m/s | 0°C | 0% | 0hPa | 0V | 00:00:00 | 00:00:00 | 00:00:00 | |
| SQ6EMJ | 2026-09-01 01:00:34 | 51.43509 | 17.81971 | 48° | 55km/h | 34431m | -1.7m/s | 0°C | 0% | 0hPa | 0V | 00:00:00 | 00:00:00 | 00:00:00 | |
| SQ6EMJ | 2026-09-01 01:00:28 | 51.43474 | 17.81910 | 91° | 89km/h | 34359m | 8.6m/s | 0°C | 0% | 0hPa | 0V | 00:00:00 | 00:00:00 | 00:00:00 | |
| PETON7-10 | 2026-09-01 01:00:24 | 51.43448 | 17.81796 | 59° | 40km/h | 34327m | 3.3m/s | 0°C | 0% | 0hPa | 0V | 00:00:00 | 00:00:00 | 00:00:00 | |
| SQ6EMJ | 2026-09-01 01:00:22 | 51.43434 | 17.81783 | 37° | 13km/h | 34311m | 8.0m/s | 0°C | 0% | 0hPa | 0V | 00:00:00 | 00:00:00 | 00:00:00 | |
| SP3BTT-10 | 2026-09-01 01:00:19 | 51.43433 | 17.81740 | 93° | 42km/h | 34274m | 7.7m/s | 0°C | 0% | 0hPa | 0V | 00:00:00 | 00:00:00 | 00:00:00 | |
| SQ6EMJ | 2026-09-01 01:00:18 | 51.43421 | 17.81691 | 60° | 60km/h | 34260m | 6.7m/s | 0°C | 0% | 0hPa | 0V | 00:00:00 | 00:00:00 | 00:00:00 | |
| SQ6EMJ | 2026-09-01 01:00:11 | 51.43391 | 17.81625 | 131° | 37km/h | 34199m | 10.0m/s | 0°C | 0% | 0hPa | 0V | 00:00:00 | 00:00:00 | 00:00:00 | |
| PETON7-10 | 2026-09-01 01:00:08 | 51.43379 | 17.81585 | 54° | 53km/h | 34142m | 9.5m/s | 0°C | 0% | 0hPa | 0V | 00:00:00 | 00:00:00 | 00:00:00 | |
| SQ6EMJ | 2026-09-01 01:00:06 | 51.43349 | 17.81581 | 20° | 73km/h | 34090m | -5.2m/s | 0°C | 0% | 0hPa | 0V | 00:00:00 | 00:00:00 | 00:00:00 | |
| SQ6EMJ | 2026-09-01 00:59:58 | 51.43297 | 17.81547 | 28° | 64km/h | 34142m | 5.8m/s | 0°C | 0% | 0hPa | 0V | 00:00:00 | 00:00:00 | 00:00:00 | |
| SQ6EMJ | 2026-09-01 00:59:52 | 51.43324 | 17.81463 | 104° | 38km/h | 34138m | 6.3m/s | 0°C | 0% | 0hPa | 0V | 00:00:00 | 00:00:00 | 00:00:00 | |
| PETON7-10 | 2026-09-01 00:59:48 | 51.43296 | 17.81422 | 353° | 47km/h | 34110m | 5.2m/s | 0°C | 0% | 0hPa | 0V | 00:00:00 | 00:00:00 | 00:00:00 | |
| SQ6EMJ | 2026-09-01 00:59:47 | 51.43283 | 17.81428 | 343° | 55km/h | 34106m | 6.4m/s | 0°C | 0% | 0hPa | 0V | 00:00:00 | 00:00:00 | 00:00:00 | |
| SQ6EMJ | 2026-09-01 00:59:41 | 51.43273 | 17.81409 | 56° | 66km/h | 34076m | 7.5m/s | 0°C | 0% | 0hPa | 0V | 00:00:00 | 00:00:00 | 00:00:00 | |
| SQ6EMJ | 2026-09-01 00:59:35 | 51.43212 | 17.81393 | 207° | 15km/h | 34012m | 8.2m/s | 0°C | 0% | 0hPa | 0V | 00:00:00 | 00:00:00 | 00:00:00 | |
| PETON7-10 | 2026-09-01 00:59:33 | 51.43219 | 17.81379 | 96° | 33km/h | 33993m | 4.0m/s | 0°C | 0% | 0hPa | 0V | 00:00:00 | 00:00:00 | 00:00:00 | |
| SQ6EMJ | 2026-09-01 00:59:27 | 51.43189 | 17.81338 | 247° | 15km/h | 33959m | 9.5m/s | 0°C | 0% | 0hPa | 0V | 00:00:00 | 00:00:00 | 00:00:00 | |
| SQ6EMJ | 2026-09-01 00:59:21 | 51.43202 | 17.81266 | 7° | 53km/h | 33960m | 12.5m/s | 0°C | 0% | 0hPa | 0V | 00:00:00 | 00:00:00 | 00:00:00 | |
| SP3BTT-10 | 2026-09-01 00:59:19 | 51.43184 | 17.81292 | 319° | 49km/h | 33935m | 29.1m/s | 0°C | 0% | 0hPa | 0V | 00:00:00 | 00:00:00 | 00:00:00 | |
| PETON7-10 | 2026-09-01 00:59:18 | 51.43167 | 17.81322 | 312° | 38km/h | 33909m | 19.0m/s | 0°C | 0% | 0hPa | 0V | 00:00:00 | 00:00:00 | 00:00:00 | |
| SQ6EMJ | 2026-09-01 00:59:16 | 51.43149 | 17.81357 | 255° | 15km/h | 33881m | 22.5m/s | 0°C | 0% | 0hPa | 0V | 00:00:00 | 00:00:00 | 00:00:00 | |
| SQ6EMJ | 2026-09-01 00:59:10 | 51.43139 | 17.81315 | 353° | 33km/h | 33789m | 7.6m/s | 0°C | 0% | 0hPa | 0V | 00:00:00 | 00:00:00 | 00:00:00 | |
| SQ6EMJ | 2026-09-01 00:59:04 | 51.43164 | 17.81324 | 103° | 55km/h | 33683m | 2.7m/s | 0°C | 0% | 0hPa | 0V | 00:00:00 | 00:00:00 | 00:00:00 | |
| PETON7-10 | 2026-09-01 00:59:03 | 51.43166 | 17.81303 | 78° | 37km/h | 33680m | 1.0m/s | 0°C | 0% | 0hPa | 0V | 00:00:00 | 00:00:00 | 00:00:00 | |
| SQ6EMJ | 2026-09-01 00:58:58 | 51.43134 | 17.81277 | 263° | 7km/h | 33709m | -9.1m/s | 0°C | 0% | 0hPa | 0V | 00:00:00 | 00:00:00 | 00:00:00 | |
| SQ6EMJ | 2026-09-01 00:58:52 | 51.43122 | 17.81175 | 35° | 29km/h | 33717m | 4.5m/s | 0°C | 0% | 0hPa | 0V | 00:00:00 | 00:00:00 | 00:00:00 | |
| PETON7-10 | 2026-09-01 00:58:48 | 51.43124 | 17.81179 | 172° | 40km/h | 33694m | 5.3m/s | 0°C | 0% | 0hPa | 0V | 00:00:00 | 00:00:00 | 00:00:00 | |
| SQ6EMJ | 2026-09-01 00:58:46 | 51.43129 | 17.81132 | 106° | 75km/h | 33697m | -2.8m/s | 0°C | 0% | 0hPa | 0V | 00:00:00 | 00:00:00 | 00:00:00 | |
| SQ6EMJ | 2026-09-01 00:58:41 | 51.43123 | 17.81082 | 239° | 22km/h | 33693m | 3.5m/s | 0°C | 0% | 0hPa | 0V | 00:00:00 | 00:00:00 | 00:00:00 | |
| SP6BVK | 2026-09-01 00:58:39 | 51.43132 | 17.81087 | 154° | 51km/h | 33699m | 7.6m/s | 0°C | 0% | 0hPa | 0V | 00:00:00 | 00:00:00 | 00:00:00 | |
| PETON7-10 | 2026-09-01 00:58:32 | 51.43185 | 17.81012 | 32° | 44km/h | 33697m | 8.8m/s | 0°C | 0% | 0hPa | 0V | 00:00:00 | 00:00:00 | 00:00:00 | |
| SQ6EMJ | 2026-09-01 00:58:25 | 51.43263 | 17.80845 | 22° | 95km/h | 33754m | 47.1m/s | 0°C | 0% | 0hPa | 0V | 00:00:00 | 00:00:00 | 00:00:00 | |
| PETON7-10 | 2026-09-01 00:58:17 | 51.43161 | 17.80853 | 66° | 55km/h | 33554m | 13.8m/s | 0°C | 0% | 0hPa | 0V | 00:00:00 | 00:00:00 | 00:00:00 | |
| SQ6EMJ | 2026-09-01 00:58:08 | 51.43165 | 17.80704 | 34° | 40km/h | 33454m | 10.2m/s | 0°C | 0% | 0hPa | 0V | 00:00:00 | 00:00:00 | 00:00:00 | |
| SP3BTT-10 | 2026-09-01 00:58:05 | 51.43160 | 17.80669 | 133° | 49km/h | 33419m | 9.1m/s | 0°C | 0% | 0hPa | 0V | 00:00:00 | 00:00:00 | 00:00:00 | |
| SQ6EMJ | 2026-09-01 00:58:02 | 51.43175 | 17.80618 | 105° | 51km/h | 33406m | 16.9m/s | 0°C | 0% | 0hPa | 0V | 00:00:00 | 00:00:00 | 00:00:00 | |
| PETON7-10 | 2026-09-01 00:58:00 | 51.43175 | 17.80581 | 51° | 86km/h | 33389m | 9.2m/s | 0°C | 0% | 0hPa | 0V | 00:00:00 | 00:00:00 | 00:00:00 | |
| SQ6EMJ | 2026-09-01 00:57:57 | 51.43188 | 17.80636 | 248° | 33km/h | 33408m | 0.8m/s | 0°C | 0% | 0hPa | 0V | 00:00:00 | 00:00:00 | 00:00:00 | |
| SQ6EMJ | 2026-09-01 00:57:51 | 51.43449 | 17.81181 | 52° | 301km/h | 33505m | 15.4m/s | 0°C | 0% | 0hPa | 0V | 00:00:00 | 00:00:00 | 00:00:00 | |
| KRY50SP | 2026-09-01 00:57:48 | 51.43286 | 17.80847 | 53° | 141km/h | 33501m | 30.2m/s | 0°C | 0% | 0hPa | 0V | 00:00:00 | 00:00:00 | 00:00:00 | |
| SQ6EMJ | 2026-09-01 00:57:43 | 51.43143 | 17.80524 | 53° | 113km/h | 33326m | 23.0m/s | 0°C | 0% | 0hPa | 0V | 00:00:00 | 00:00:00 | 00:00:00 | |
| SP6BVK | 2026-09-01 00:57:39 | 51.43127 | 17.80430 | 82° | 66km/h | 33255m | 2.0m/s | 0°C | 0% | 0hPa | 0V | 00:00:00 | 00:00:00 | 00:00:00 | |
| SQ6EMJ | 2026-09-01 00:57:36 | 51.43135 | 17.80346 | 195° | 13km/h | 33292m | 1.9m/s | 0°C | 0% | 0hPa | 0V | 00:00:00 | 00:00:00 | 00:00:00 | |
| KRY50SP | 2026-09-01 00:57:32 | 51.43153 | 17.80347 | 243° | 33km/h | 33340m | 17.5m/s | 0°C | 0% | 0hPa | 0V | 00:00:00 | 00:00:00 | 00:00:00 | |
| SQ6EMJ | 2026-09-01 00:57:26 | 51.43156 | 17.80319 | 334° | 47km/h | 33251m | 23.7m/s | 0°C | 0% | 0hPa | 0V | 00:00:00 | 00:00:00 | 00:00:00 | |
| DB0UT-7 | 2026-09-01 00:57:20 | 51.43100 | 17.80328 | 59° | 51km/h | 33112m | 4.0m/s | 0°C | 0% | 0hPa | 0V | 00:00:00 | 00:00:00 | 00:00:00 | |
| SP6BVK | 2026-09-01 00:57:19 | 51.43090 | 17.80330 | 53° | 64km/h | 33118m | -0.7m/s | 0°C | 0% | 0hPa | 0V | 00:00:00 | 00:00:00 | 00:00:00 | |
| OE5DRO-10 | 2026-09-01 00:57:14 | 51.43053 | 17.80338 | 58° | 46km/h | 33126m | 13.3m/s | 0°C | 0% | 0hPa | 0V | 00:00:00 | 00:00:00 | 00:00:00 | |
| SQ6EMJ | 2026-09-01 00:57:07 | 51.43023 | 17.80242 | 50° | 58km/h | 33061m | 25.6m/s | 0°C | 0% | 0hPa | 0V | 00:00:00 | 00:00:00 | 00:00:00 | |
| KRY50SP | 2026-09-01 00:57:06 | 51.43012 | 17.80230 | 49° | 27km/h | 33029m | 18.5m/s | 0°C | 0% | 0hPa | 0V | 00:00:00 | 00:00:00 | 00:00:00 | |
| SP3BTT-10 | 2026-09-01 00:57:03 | 51.43017 | 17.80186 | 124° | 40km/h | 32973m | 0.6m/s | 0°C | 0% | 0hPa | 0V | 00:00:00 | 00:00:00 | 00:00:00 | |
| PETON7-10 | 2026-09-01 00:57:01 | 51.43010 | 17.80146 | 35° | 44km/h | 32959m | -6.9m/s | 0°C | 0% | 0hPa | 0V | 00:00:00 | 00:00:00 | 00:00:00 | |
| SP6BVK | 2026-09-01 00:56:57 | 51.42976 | 17.80144 | 287° | 42km/h | 32961m | -1.9m/s | 0°C | 0% | 0hPa | 0V | 00:00:00 | 00:00:00 | 00:00:00 | |
| SQ6EMJ | 2026-09-01 00:56:56 | 51.42999 | 17.80163 | 284° | 24km/h | 33004m | 2.7m/s | 0°C | 0% | 0hPa | 0V | 00:00:00 | 00:00:00 | 00:00:00 | |
| SQ6EMJ | 2026-09-01 00:56:51 | 51.42957 | 17.80077 | 349° | 27km/h | 32896m | 0.2m/s | 0°C | 0% | 0hPa | 0V | 00:00:00 | 00:00:00 | 00:00:00 | |
| KRY50SP | 2026-09-01 00:56:50 | 51.42957 | 17.80077 | 349° | 27km/h | 32896m | 0.2m/s | 0°C | 0% | 0hPa | 0V | 00:00:00 | 00:00:00 | 00:00:00 | |
| PETON7-10 | 2026-09-01 00:56:45 | 51.42961 | 17.80111 | 164° | 62km/h | 32875m | 4.4m/s | 0°C | 0% | 0hPa | 0V | 00:00:00 | 00:00:00 | 00:00:00 | |
| SQ6EMJ | 2026-09-01 00:56:41 | 51.42921 | 17.80065 | 43° | 66km/h | 32844m | -0.5m/s | 0°C | 0% | 0hPa | 0V | 00:00:00 | 00:00:00 | 00:00:00 | |
| SP6BVK | 2026-09-01 00:56:37 | 51.42914 | 17.80087 | 201° | 22km/h | 32871m | 1.8m/s | 0°C | 0% | 0hPa | 0V | 00:00:00 | 00:00:00 | 00:00:00 | |
| SQ6EMJ | 2026-09-01 00:56:36 | 51.42931 | 17.80088 | 186° | 18km/h | 32889m | 1.2m/s | 0°C | 0% | 0hPa | 0V | 00:00:00 | 00:00:00 | 00:00:00 | |
| KRY50SP | 2026-09-01 00:56:32 | 51.42904 | 17.80048 | 22° | 73km/h | 32878m | 6.0m/s | 0°C | 0% | 0hPa | 0V | 00:00:00 | 00:00:00 | 00:00:00 | |
| SQ6EMJ | 2026-09-01 00:56:30 | 51.42886 | 17.80050 | 334° | 40km/h | 32889m | 1.3m/s | 0°C | 0% | 0hPa | 0V | 00:00:00 | 00:00:00 | 00:00:00 | |
| PETON7-10 | 2026-09-01 00:56:29 | 51.42884 | 17.80086 | 177° | 49km/h | 32896m | 4.0m/s | 0°C | 0% | 0hPa | 0V | 00:00:00 | 00:00:00 | 00:00:00 | |
| KRY50SP | 2026-09-01 00:56:26 | 51.42898 | 17.80093 | 64° | 31km/h | 32908m | 24.6m/s | 0°C | 0% | 0hPa | 0V | 00:00:00 | 00:00:00 | 00:00:00 | |
| SQ6EMJ | 2026-09-01 00:56:22 | 51.42819 | 17.80063 | 22° | 68km/h | 32821m | 24.3m/s | 0°C | 0% | 0hPa | 0V | 00:00:00 | 00:00:00 | 00:00:00 | |
| KRY50SP | 2026-09-01 00:56:20 | 51.42803 | 17.80048 | 91° | 55km/h | 32761m | 10.1m/s | 0°C | 0% | 0hPa | 0V | 00:00:00 | 00:00:00 | 00:00:00 | |
| SP6BVK | 2026-09-01 00:56:16 | 51.42820 | 17.79997 | 50° | 53km/h | 32731m | 8.9m/s | 0°C | 0% | 0hPa | 0V | 00:00:00 | 00:00:00 | 00:00:00 | |
| KRY50SP | 2026-09-01 00:56:15 | 51.42806 | 17.79980 | 40° | 57km/h | 32716m | 5.9m/s | 0°C | 0% | 0hPa | 0V | 00:00:00 | 00:00:00 | 00:00:00 | |
| SQ6EMJ | 2026-09-01 00:56:13 | 51.42778 | 17.79967 | 346° | 57km/h | 32700m | 2.5m/s | 0°C | 0% | 0hPa | 0V | 00:00:00 | 00:00:00 | 00:00:00 | |
| PETON7-10 | 2026-09-01 00:56:09 | 51.42756 | 17.80007 | 204° | 33km/h | 32694m | 5.4m/s | 0°C | 0% | 0hPa | 0V | 00:00:00 | 00:00:00 | 00:00:00 | |
| SP3BTT-10 | 2026-09-01 00:56:03 | 51.42706 | 17.79968 | 327° | 42km/h | 32663m | 4.9m/s | 0°C | 0% | 0hPa | 0V | 00:00:00 | 00:00:00 | 00:00:00 | |
| KRY50SP | 2026-09-01 00:55:58 | 51.42696 | 17.79990 | 62° | 33km/h | 32627m | 5.6m/s | 0°C | 0% | 0hPa | 0V | 00:00:00 | 00:00:00 | 00:00:00 | |
| KRY50SP | 2026-09-01 00:55:53 | 51.42635 | 17.79995 | 288° | 42km/h | 32607m | 6.1m/s | 0°C | 0% | 0hPa | 0V | 00:00:00 | 00:00:00 | 00:00:00 | |
| PETON7-10 | 2026-09-01 00:55:50 | 51.42644 | 17.80002 | 97° | 37km/h | 32597m | 5.9m/s | 0°C | 0% | 0hPa | 0V | 00:00:00 | 00:00:00 | 00:00:00 | |
| KRY50SP | 2026-09-01 00:55:47 | 51.42615 | 17.79975 | 339° | 44km/h | 32583m | 9.0m/s | 0°C | 0% | 0hPa | 0V | 00:00:00 | 00:00:00 | 00:00:00 | |
| KRY50SP | 2026-09-01 00:55:42 | 51.42612 | 17.80013 | 133° | 20km/h | 32548m | 4.8m/s | 0°C | 0% | 0hPa | 0V | 00:00:00 | 00:00:00 | 00:00:00 | |
| DB0UT-7 | 2026-09-01 00:55:39 | 51.42590 | 17.79973 | 306° | 37km/h | 32523m | -4.1m/s | 0°C | 0% | 0hPa | 0V | 00:00:00 | 00:00:00 | 00:00:00 | |
| KRY50SP | 2026-09-01 00:55:37 | 51.42576 | 17.80003 | 295° | 53km/h | 32526m | 9.9m/s | 0°C | 0% | 0hPa | 0V | 00:00:00 | 00:00:00 | 00:00:00 | |
| SP6BVK | 2026-09-01 00:55:35 | 51.42577 | 17.80031 | 185° | 51km/h | 32502m | 7.7m/s | 0°C | 0% | 0hPa | 0V | 00:00:00 | 00:00:00 | 00:00:00 | |
| SQ6EMJ | 2026-09-01 00:55:32 | 51.42582 | 17.79996 | 59° | 55km/h | 32463m | 4.8m/s | 0°C | 0% | 0hPa | 0V | 00:00:00 | 00:00:00 | 00:00:00 | |
| KRY50SP | 2026-09-01 00:55:31 | 51.42573 | 17.79985 | 2° | 38km/h | 32453m | 1.9m/s | 0°C | 0% | 0hPa | 0V | 00:00:00 | 00:00:00 | 00:00:00 | |
| SQ6EMJ | 2026-09-01 00:55:23 | 51.42566 | 17.80003 | 6° | 44km/h | 32453m | 6.0m/s | 0°C | 0% | 0hPa | 0V | 00:00:00 | 00:00:00 | 00:00:00 | |
| KRY50SP | 2026-09-01 00:55:19 | 51.42550 | 17.80031 | 219° | 51km/h | 32446m | 6.2m/s | 0°C | 0% | 0hPa | 0V | 00:00:00 | 00:00:00 | 00:00:00 | |
| SP3BTT-10 | 2026-09-01 00:55:18 | 51.42560 | 17.80034 | 177° | 40km/h | 32447m | 2.4m/s | 0°C | 0% | 0hPa | 0V | 00:00:00 | 00:00:00 | 00:00:00 | |
| PETON7-10 | 2026-09-01 00:55:15 | 51.42561 | 17.80012 | 120° | 38km/h | 32421m | -4.6m/s | 0°C | 0% | 0hPa | 0V | 00:00:00 | 00:00:00 | 00:00:00 | |
| SP6BVK | 2026-09-01 00:55:14 | 51.42560 | 17.80019 | 304° | 42km/h | 32432m | 8.4m/s | 0°C | 0% | 0hPa | 0V | 00:00:00 | 00:00:00 | 00:00:00 | |
| KRY50SP | 2026-09-01 00:55:08 | 51.42571 | 17.80052 | 85° | 47km/h | 32371m | 8.4m/s | 0°C | 0% | 0hPa | 0V | 00:00:00 | 00:00:00 | 00:00:00 | |
| KRY50SP | 2026-09-01 00:55:01 | 51.42545 | 17.80067 | 114° | 37km/h | 32309m | 1.8m/s | 0°C | 0% | 0hPa | 0V | 00:00:00 | 00:00:00 | 00:00:00 | |
| SQ6EMJ | 2026-09-01 00:54:59 | 51.42546 | 17.80075 | 273° | 49km/h | 32322m | -2.6m/s | 0°C | 0% | 0hPa | 0V | 00:00:00 | 00:00:00 | 00:00:00 | |
| KRY50SP | 2026-09-01 00:54:55 | 51.42554 | 17.80139 | 181° | 40km/h | 32295m | 17.5m/s | 0°C | 0% | 0hPa | 0V | 00:00:00 | 00:00:00 | 00:00:00 | |
| SP6BVK | 2026-09-01 00:54:54 | 51.42564 | 17.80133 | 129° | 44km/h | 32280m | 8.3m/s | 0°C | 0% | 0hPa | 0V | 00:00:00 | 00:00:00 | 00:00:00 | |
| SQ6EMJ | 2026-09-01 00:54:52 | 51.42564 | 17.80098 | 46° | 51km/h | 32269m | 7.8m/s | 0°C | 0% | 0hPa | 0V | 00:00:00 | 00:00:00 | 00:00:00 | |
| KRY50SP | 2026-09-01 00:54:50 | 51.42543 | 17.80098 | 327° | 47km/h | 32258m | 5.3m/s | 0°C | 0% | 0hPa | 0V | 00:00:00 | 00:00:00 | 00:00:00 | |
| KRY50SP | 2026-09-01 00:54:44 | 51.42547 | 17.80107 | 40° | 47km/h | 32204m | 4.7m/s | 0°C | 0% | 0hPa | 0V | 00:00:00 | 00:00:00 | 00:00:00 | |
| SQ6EMJ | 2026-09-01 00:54:43 | 51.42536 | 17.80097 | 17° | 46km/h | 32200m | 5.5m/s | 0°C | 0% | 0hPa | 0V | 00:00:00 | 00:00:00 | 00:00:00 | |
| PETON7-10 | 2026-09-01 00:54:42 | 51.42525 | 17.80096 | 337° | 33km/h | 32194m | 10.4m/s | 0°C | 0% | 0hPa | 0V | 00:00:00 | 00:00:00 | 00:00:00 | |
| KRY50SP | 2026-09-01 00:54:38 | 51.42527 | 17.80122 | 178° | 27km/h | 32156m | 5.5m/s | 0°C | 0% | 0hPa | 0V | 00:00:00 | 00:00:00 | 00:00:00 | |
| SQ6EMJ | 2026-09-01 00:54:34 | 51.42506 | 17.80072 | 20° | 47km/h | 32170m | -3.5m/s | 0°C | 0% | 0hPa | 0V | 00:00:00 | 00:00:00 | 00:00:00 | |
| SP6BVK | 2026-09-01 00:54:32 | 51.42488 | 17.80086 | 285° | 42km/h | 32204m | 5.8m/s | 0°C | 0% | 0hPa | 0V | 00:00:00 | 00:00:00 | 00:00:00 | |
| KRY50SP | 2026-09-01 00:54:31 | 51.42487 | 17.80104 | 264° | 44km/h | 32205m | 8.6m/s | 0°C | 0% | 0hPa | 0V | 00:00:00 | 00:00:00 | 00:00:00 | |
| PETON7-10 | 2026-09-01 00:54:27 | 51.42482 | 17.80077 | 57° | 46km/h | 32190m | 13.0m/s | 0°C | 0% | 0hPa | 0V | 00:00:00 | 00:00:00 | 00:00:00 | |
| KRY50SP | 2026-09-01 00:54:26 | 51.42469 | 17.80062 | 47° | 69km/h | 32183m | 7.2m/s | 0°C | 0% | 0hPa | 0V | 00:00:00 | 00:00:00 | 00:00:00 | |
| KRY50SP | 2026-09-01 00:54:20 | 51.42458 | 17.80050 | 132° | 68km/h | 32091m | 19.0m/s | 0°C | 0% | 0hPa | 0V | 00:00:00 | 00:00:00 | 00:00:00 | |
| SQ6EMJ | 2026-09-01 00:54:19 | 51.42465 | 17.80025 | 32° | 53km/h | 32082m | 29.4m/s | 0°C | 0% | 0hPa | 0V | 00:00:00 | 00:00:00 | 00:00:00 | |
| SP3BTT-10 | 2026-09-01 00:54:17 | 51.42434 | 17.80017 | 315° | 42km/h | 32028m | 7.3m/s | 0°C | 0% | 0hPa | 0V | 00:00:00 | 00:00:00 | 00:00:00 | |
| KRY50SP | 2026-09-01 00:54:13 | 51.42433 | 17.80056 | 172° | 35km/h | 32015m | 6.1m/s | 0°C | 0% | 0hPa | 0V | 00:00:00 | 00:00:00 | 00:00:00 | |
| SP6BVK | 2026-09-01 00:54:10 | 51.42417 | 17.80025 | 351° | 40km/h | 31996m | 7.8m/s | 0°C | 0% | 0hPa | 0V | 00:00:00 | 00:00:00 | 00:00:00 | |
| KRY50SP | 2026-09-01 00:54:06 | 51.42422 | 17.80056 | 185° | 47km/h | 31962m | 6.0m/s | 0°C | 0% | 0hPa | 0V | 00:00:00 | 00:00:00 | 00:00:00 | |
| PETON7-10 | 2026-09-01 00:54:04 | 51.42425 | 17.80013 | 86° | 27km/h | 31935m | 15.2m/s | 0°C | 0% | 0hPa | 0V | 00:00:00 | 00:00:00 | 00:00:00 | |
| SQ6EMJ | 2026-09-01 00:54:03 | 51.42420 | 17.79997 | 322° | 22km/h | 31917m | 13.0m/s | 0°C | 0% | 0hPa | 0V | 00:00:00 | 00:00:00 | 00:00:00 | |
| KRY50SP | 2026-09-01 00:53:59 | 51.42416 | 17.80059 | 184° | 24km/h | 31866m | 9.0m/s | 0°C | 0% | 0hPa | 0V | 00:00:00 | 00:00:00 | 00:00:00 | |
| SQ6EMJ | 2026-09-01 00:53:55 | 51.42401 | 17.80002 | 338° | 20km/h | 31812m | 10.6m/s | 0°C | 0% | 0hPa | 0V | 00:00:00 | 00:00:00 | 00:00:00 | |
| KRY50SP | 2026-09-01 00:53:52 | 51.42404 | 17.80031 | 267° | 15km/h | 31763m | 5.8m/s | 0°C | 0% | 0hPa | 0V | 00:00:00 | 00:00:00 | 00:00:00 | |
| SP6BVK | 2026-09-01 00:53:49 | 51.42424 | 17.80025 | 101° | 31km/h | 31751m | 2.0m/s | 0°C | 0% | 0hPa | 0V | 00:00:00 | 00:00:00 | 00:00:00 | |
| KRY50SP | 2026-09-01 00:53:48 | 51.42420 | 17.79997 | 2° | 38km/h | 31746m | -4.4m/s | 0°C | 0% | 0hPa | 0V | 00:00:00 | 00:00:00 | 00:00:00 | |
| PETON7-10 | 2026-09-01 00:53:45 | 51.42399 | 17.80013 | 315° | 24km/h | 31753m | 3.7m/s | 0°C | 0% | 0hPa | 0V | 00:00:00 | 00:00:00 | 00:00:00 | |
| KRY50SP | 2026-09-01 00:53:42 | 51.42398 | 17.80051 | 236° | 29km/h | 31739m | 3.9m/s | 0°C | 0% | 0hPa | 0V | 00:00:00 | 00:00:00 | 00:00:00 | |
| SQ6EMJ | 2026-09-01 00:53:41 | 51.42402 | 17.80063 | 173° | 24km/h | 31751m | 1.8m/s | 0°C | 0% | 0hPa | 0V | 00:00:00 | 00:00:00 | 00:00:00 | |
| KRY50SP | 2026-09-01 00:53:36 | 51.42372 | 17.80005 | 312° | 58km/h | 31764m | -2.8m/s | 0°C | 0% | 0hPa | 0V | 00:00:00 | 00:00:00 | 00:00:00 | |
| SQ6EMJ | 2026-09-01 00:53:35 | 51.42368 | 17.80018 | 234° | 29km/h | 31770m | 1.4m/s | 0°C | 0% | 0hPa | 0V | 00:00:00 | 00:00:00 | 00:00:00 | |
| SP3BTT-10 | 2026-09-01 00:53:34 | 51.42375 | 17.80027 | 209° | 46km/h | 31768m | 3.1m/s | 0°C | 0% | 0hPa | 0V | 00:00:00 | 00:00:00 | 00:00:00 | |
| KRY50SP | 2026-09-01 00:53:30 | 51.42408 | 17.80013 | 47° | 16km/h | 31769m | 13.2m/s | 0°C | 0% | 0hPa | 0V | 00:00:00 | 00:00:00 | 00:00:00 | |
| SP6BVK | 2026-09-01 00:53:29 | 51.42401 | 17.80020 | 303° | 47km/h | 31760m | 10.5m/s | 0°C | 0% | 0hPa | 0V | 00:00:00 | 00:00:00 | 00:00:00 | |
| KRY50SP | 2026-09-01 00:53:23 | 51.42416 | 17.80030 | 141° | 60km/h | 31694m | 6.8m/s | 0°C | 0% | 0hPa | 0V | 00:00:00 | 00:00:00 | 00:00:00 | |
| SQ6EMJ | 2026-09-01 00:53:21 | 51.42406 | 17.80017 | 338° | 51km/h | 31668m | 10.5m/s | 0°C | 0% | 0hPa | 0V | 00:00:00 | 00:00:00 | 00:00:00 | |
| PETON7-10 | 2026-09-01 00:53:20 | 51.42406 | 17.80017 | 338° | 42km/h | 31668m | 10.5m/s | 0°C | 0% | 0hPa | 0V | 00:00:00 | 00:00:00 | 00:00:00 | |
| KRY50SP | 2026-09-01 00:53:18 | 51.42398 | 17.80046 | 256° | 27km/h | 31653m | 10.9m/s | 0°C | 0% | 0hPa | 0V | 00:00:00 | 00:00:00 | 00:00:00 | |
| SQ6EMJ | 2026-09-01 00:53:15 | 51.42405 | 17.80032 | 61° | 44km/h | 31620m | 7.7m/s | 0°C | 0% | 0hPa | 0V | 00:00:00 | 00:00:00 | 00:00:00 | |
| KRY50SP | 2026-09-01 00:53:13 | 51.42390 | 17.80025 | 352° | 38km/h | 31607m | 7.6m/s | 0°C | 0% | 0hPa | 0V | 00:00:00 | 00:00:00 | 00:00:00 | |
| KRY50SP | 2026-09-01 00:53:07 | 51.42411 | 17.80015 | 89° | 44km/h | 31550m | -4.3m/s | 0°C | 0% | 0hPa | 0V | 00:00:00 | 00:00:00 | 00:00:00 | |
| PETON7-10 | 2026-09-01 00:53:05 | 51.42401 | 17.80011 | 319° | 53km/h | 31560m | 5.1m/s | 0°C | 0% | 0hPa | 0V | 00:00:00 | 00:00:00 | 00:00:00 | |
| KRY50SP | 2026-09-01 00:53:02 | 51.42412 | 17.80066 | 197° | 49km/h | 31557m | 3.3m/s | 0°C | 0% | 0hPa | 0V | 00:00:00 | 00:00:00 | 00:00:00 | |
| KRY50SP | 2026-09-01 00:52:56 | 51.42416 | 17.80042 | 271° | 29km/h | 31532m | 8.1m/s | 0°C | 0% | 0hPa | 0V | 00:00:00 | 00:00:00 | 00:00:00 | |
| KRY50SP | 2026-09-01 00:52:51 | 51.42460 | 17.80020 | 57° | 55km/h | 31569m | 5.8m/s | 0°C | 0% | 0hPa | 0V | 00:00:00 | 00:00:00 | 00:00:00 | |
| SQ6EMJ | 2026-09-01 00:52:48 | 51.42439 | 17.80028 | 278° | 29km/h | 31544m | 22.7m/s | 0°C | 0% | 0hPa | 0V | 00:00:00 | 00:00:00 | 00:00:00 | |
| SP6BVK | 2026-09-01 00:52:47 | 51.42456 | 17.80036 | 137° | 33km/h | 31525m | 19.5m/s | 0°C | 0% | 0hPa | 0V | 00:00:00 | 00:00:00 | 00:00:00 | |
| KRY50SP | 2026-09-01 00:52:45 | 51.42458 | 17.80021 | 99° | 58km/h | 31515m | 19.2m/s | 0°C | 0% | 0hPa | 0V | 00:00:00 | 00:00:00 | 00:00:00 | |
| SQ6EMJ | 2026-09-01 00:52:44 | 51.42451 | 17.79979 | 24° | 51km/h | 31487m | 4.1m/s | 0°C | 0% | 0hPa | 0V | 00:00:00 | 00:00:00 | 00:00:00 | |
| KRY50SP | 2026-09-01 00:52:39 | 51.42439 | 17.80014 | 206° | 24km/h | 31454m | 18.3m/s | 0°C | 0% | 0hPa | 0V | 00:00:00 | 00:00:00 | 00:00:00 | |
| KRY50SP | 2026-09-01 00:52:32 | 51.42418 | 17.79999 | 211° | 46km/h | 31392m | 8.2m/s | 0°C | 0% | 0hPa | 0V | 00:00:00 | 00:00:00 | 00:00:00 | |
| PETON7-10 | 2026-09-01 00:52:25 | 51.42402 | 17.79999 | 285° | 42km/h | 31390m | 7.2m/s | 0°C | 0% | 0hPa | 0V | 00:00:00 | 00:00:00 | 00:00:00 | |
| SQ6EMJ | 2026-09-01 00:52:24 | 51.42405 | 17.80016 | 216° | 46km/h | 31390m | 14.5m/s | 0°C | 0% | 0hPa | 0V | 00:00:00 | 00:00:00 | 00:00:00 | |
| KRY50SP | 2026-09-01 00:52:20 | 51.42412 | 17.79982 | 9° | 58km/h | 31347m | 5.6m/s | 0°C | 0% | 0hPa | 0V | 00:00:00 | 00:00:00 | 00:00:00 | |
| KRY50SP | 2026-09-01 00:52:14 | 51.42402 | 17.80023 | 158° | 69km/h | 31319m | 11.7m/s | 0°C | 0% | 0hPa | 0V | 00:00:00 | 00:00:00 | 00:00:00 | |
| SP6BVK | 2026-09-01 00:52:06 | 51.42434 | 17.79995 | 55° | 27km/h | 31264m | 16.4m/s | 0°C | 0% | 0hPa | 0V | 00:00:00 | 00:00:00 | 00:00:00 | |
| KRY50SP | 2026-09-01 00:51:58 | 51.42443 | 17.79951 | 57° | 57km/h | 31137m | 5.8m/s | 0°C | 0% | 0hPa | 0V | 00:00:00 | 00:00:00 | 00:00:00 | |
| KRY50SP | 2026-09-01 00:51:53 | 51.42453 | 17.80024 | 104° | 55km/h | 31157m | 15.7m/s | 0°C | 0% | 0hPa | 0V | 00:00:00 | 00:00:00 | 00:00:00 | |
| SQ6EMJ | 2026-09-01 00:51:51 | 51.42431 | 17.80026 | 72° | 86km/h | 31145m | 22.6m/s | 0°C | 0% | 0hPa | 0V | 00:00:00 | 00:00:00 | 00:00:00 | |
| SP6BVK | 2026-09-01 00:51:43 | 51.42475 | 17.79888 | 16° | 51km/h | 30993m | 1.2m/s | 0°C | 0% | 0hPa | 0V | 00:00:00 | 00:00:00 | 00:00:00 | |
| KRY50SP | 2026-09-01 00:51:40 | 51.42457 | 17.79917 | 243° | 60km/h | 30984m | 8.0m/s | 0°C | 0% | 0hPa | 0V | 00:00:00 | 00:00:00 | 00:00:00 | |
| PETON7-10 | 2026-09-01 00:51:36 | 51.42483 | 17.79920 | 40° | 37km/h | 30948m | 11.8m/s | 0°C | 0% | 0hPa | 0V | 00:00:00 | 00:00:00 | 00:00:00 | |
| KRY50SP | 2026-09-01 00:51:34 | 51.42459 | 17.79910 | 334° | 37km/h | 30935m | -1.4m/s | 0°C | 0% | 0hPa | 0V | 00:00:00 | 00:00:00 | 00:00:00 | |
| SP3BTT-10 | 2026-09-01 00:51:33 | 51.42452 | 17.79923 | 271° | 38km/h | 30938m | 0.7m/s | 0°C | 0% | 0hPa | 0V | 00:00:00 | 00:00:00 | 00:00:00 | |
| SQ6EMJ | 2026-09-01 00:51:27 | 51.42466 | 17.79919 | 268° | 44km/h | 30982m | 2.8m/s | 0°C | 0% | 0hPa | 0V | 00:00:00 | 00:00:00 | 00:00:00 | |
| KRY50SP | 2026-09-01 00:51:26 | 51.42467 | 17.79936 | 258° | 42km/h | 30981m | 7.5m/s | 0°C | 0% | 0hPa | 0V | 00:00:00 | 00:00:00 | 00:00:00 | |
| SP6BVK | 2026-09-01 00:51:20 | 51.42496 | 17.79928 | 16° | 27km/h | 30941m | 12.3m/s | 0°C | 0% | 0hPa | 0V | 00:00:00 | 00:00:00 | 00:00:00 | |
| KRY50SP | 2026-09-01 00:51:14 | 51.42521 | 17.79948 | 137° | 51km/h | 30891m | 2.8m/s | 0°C | 0% | 0hPa | 0V | 00:00:00 | 00:00:00 | 00:00:00 | |
| SQ6EMJ | 2026-09-01 00:51:12 | 51.42526 | 17.79921 | 269° | 2km/h | 30886m | 5.9m/s | 0°C | 0% | 0hPa | 0V | 00:00:00 | 00:00:00 | 00:00:00 | |
| KRY50SP | 2026-09-01 00:51:08 | 51.42540 | 17.79958 | 243° | 58km/h | 30849m | 2.6m/s | 0°C | 0% | 0hPa | 0V | 00:00:00 | 00:00:00 | 00:00:00 | |
| SP6BVK | 2026-09-01 00:50:59 | 51.42596 | 17.79949 | 153° | 53km/h | 30812m | 14.0m/s | 0°C | 0% | 0hPa | 0V | 00:00:00 | 00:00:00 | 00:00:00 | |
| KRY50SP | 2026-09-01 00:50:58 | 51.42607 | 17.79932 | 116° | 51km/h | 30802m | 13.2m/s | 0°C | 0% | 0hPa | 0V | 00:00:00 | 00:00:00 | 00:00:00 | |
| PETON7-10 | 2026-09-01 00:50:56 | 51.42605 | 17.79906 | 32° | 33km/h | 30773m | 10.4m/s | 0°C | 0% | 0hPa | 0V | 00:00:00 | 00:00:00 | 00:00:00 | |
| SQ6EMJ | 2026-09-01 00:50:55 | 51.42602 | 17.79910 | 297° | 29km/h | 30761m | 12.4m/s | 0°C | 0% | 0hPa | 0V | 00:00:00 | 00:00:00 | 00:00:00 | |
| KRY50SP | 2026-09-01 00:50:52 | 51.42619 | 17.79947 | 171° | 53km/h | 30733m | 18.3m/s | 0°C | 0% | 0hPa | 0V | 00:00:00 | 00:00:00 | 00:00:00 | |
| KRY50SP | 2026-09-01 00:50:44 | 51.42660 | 17.79898 | 206° | 38km/h | 30653m | 27.7m/s | 0°C | 0% | 0hPa | 0V | 00:00:00 | 00:00:00 | 00:00:00 | |
| SQ6EMJ | 2026-09-01 00:50:42 | 51.42682 | 17.79870 | 105° | 58km/h | 30591m | 2.9m/s | 0°C | 0% | 0hPa | 0V | 00:00:00 | 00:00:00 | 00:00:00 | |
| KRY50SP | 2026-09-01 00:50:38 | 51.42679 | 17.79850 | 280° | 22km/h | 30570m | 7.2m/s | 0°C | 0% | 0hPa | 0V | 00:00:00 | 00:00:00 | 00:00:00 | |
| KRY50SP | 2026-09-01 00:50:33 | 51.42715 | 17.79837 | 140° | 29km/h | 30564m | -8.2m/s | 0°C | 0% | 0hPa | 0V | 00:00:00 | 00:00:00 | 00:00:00 | |
| SP3BTT-10 | 2026-09-01 00:50:31 | 51.42723 | 17.79826 | 213° | 47km/h | 30580m | 4.4m/s | 0°C | 0% | 0hPa | 0V | 00:00:00 | 00:00:00 | 00:00:00 | |
| KRY50SP | 2026-09-01 00:50:28 | 51.42735 | 17.79843 | 181° | 42km/h | 30579m | 5.2m/s | 0°C | 0% | 0hPa | 0V | 00:00:00 | 00:00:00 | 00:00:00 | |
| KRY50SP | 2026-09-01 00:50:22 | 51.42746 | 17.79723 | 321° | 26km/h | 30620m | 11.4m/s | 0°C | 0% | 0hPa | 0V | 00:00:00 | 00:00:00 | 00:00:00 | |
| SP6BVK | 2026-09-01 00:50:18 | 51.42776 | 17.79756 | 162° | 69km/h | 30568m | 9.8m/s | 0°C | 0% | 0hPa | 0V | 00:00:00 | 00:00:00 | 00:00:00 | |
| KRY50SP | 2026-09-01 00:50:17 | 51.42789 | 17.79721 | 113° | 29km/h | 30554m | 15.0m/s | 0°C | 0% | 0hPa | 0V | 00:00:00 | 00:00:00 | 00:00:00 | |
| PETON7-10 | 2026-09-01 00:50:14 | 51.42780 | 17.79718 | 324° | 47km/h | 30523m | 15.0m/s | 0°C | 0% | 0hPa | 0V | 00:00:00 | 00:00:00 | 00:00:00 | |
| KRY50SP | 2026-09-01 00:50:10 | 51.42793 | 17.79724 | 142° | 62km/h | 30473m | 17.7m/s | 0°C | 0% | 0hPa | 0V | 00:00:00 | 00:00:00 | 00:00:00 | |
| SQ6EMJ | 2026-09-01 00:50:01 | 51.42837 | 17.79653 | 134° | 46km/h | 30388m | 18.3m/s | 0°C | 0% | 0hPa | 0V | 00:00:00 | 00:00:00 | 00:00:00 | |
| KRY50SP | 2026-09-01 00:49:58 | 51.42839 | 17.79660 | 290° | 62km/h | 30347m | 4.9m/s | 0°C | 0% | 0hPa | 0V | 00:00:00 | 00:00:00 | 00:00:00 | |
| SP6BVK | 2026-09-01 00:49:56 | 51.42841 | 17.79687 | 195° | 46km/h | 30332m | 7.5m/s | 0°C | 0% | 0hPa | 0V | 00:00:00 | 00:00:00 | 00:00:00 | |
| SQ6EMJ | 2026-09-01 00:49:53 | 51.42850 | 17.79615 | 65° | 57km/h | 30287m | 8.3m/s | 0°C | 0% | 0hPa | 0V | 00:00:00 | 00:00:00 | 00:00:00 | |
| KRY50SP | 2026-09-01 00:49:51 | 51.42831 | 17.79608 | 288° | 51km/h | 30274m | 5.4m/s | 0°C | 0% | 0hPa | 0V | 00:00:00 | 00:00:00 | 00:00:00 | |
| SP3BTT-10 | 2026-09-01 00:49:46 | 51.42853 | 17.79554 | 206° | 46km/h | 30238m | 0.9m/s | 0°C | 0% | 0hPa | 0V | 00:00:00 | 00:00:00 | 00:00:00 | |
| KRY50SP | 2026-09-01 00:49:43 | 51.42840 | 17.79572 | 239° | 60km/h | 30224m | 3.2m/s | 0°C | 0% | 0hPa | 0V | 00:00:00 | 00:00:00 | 00:00:00 | |
| SQ6EMJ | 2026-09-01 00:49:39 | 51.42896 | 17.79542 | 179° | 38km/h | 30201m | 5.5m/s | 0°C | 0% | 0hPa | 0V | 00:00:00 | 00:00:00 | 00:00:00 | |
| KRY50SP | 2026-09-01 00:49:33 | 51.42929 | 17.79565 | 113° | 80km/h | 30151m | 2.9m/s | 0°C | 0% | 0hPa | 0V | 00:00:00 | 00:00:00 | 00:00:00 | |
| KRY50SP | 2026-09-01 00:49:26 | 51.42926 | 17.79526 | 124° | 71km/h | 30083m | 14.1m/s | 0°C | 0% | 0hPa | 0V | 00:00:00 | 00:00:00 | 00:00:00 | |
| SQ6EMJ | 2026-09-01 00:49:18 | 51.42933 | 17.79495 | 73° | 31km/h | 29980m | -11.1m/s | 0°C | 0% | 0hPa | 0V | 00:00:00 | 00:00:00 | 00:00:00 | |
| SP6BVK | 2026-09-01 00:49:15 | 51.42932 | 17.79478 | 193° | 27km/h | 29995m | 0.6m/s | 0°C | 0% | 0hPa | 0V | 00:00:00 | 00:00:00 | 00:00:00 | |
| SQ6EMJ | 2026-09-01 00:49:12 | 51.42962 | 17.79431 | 160° | 60km/h | 30008m | 1.3m/s | 0°C | 0% | 0hPa | 0V | 00:00:00 | 00:00:00 | 00:00:00 | |
| KRY50SP | 2026-09-01 00:49:03 | 51.43030 | 17.79389 | 80° | 71km/h | 30002m | 6.4m/s | 0°C | 0% | 0hPa | 0V | 00:00:00 | 00:00:00 | 00:00:00 | |
| SP6BVK | 2026-09-01 00:48:55 | 51.43048 | 17.79300 | 47° | 58km/h | 29962m | 6.3m/s | 0°C | 0% | 0hPa | 0V | 00:00:00 | 00:00:00 | 00:00:00 | |
| KRY50SP | 2026-09-01 00:48:51 | 51.43000 | 17.79317 | 185° | 9km/h | 29946m | 24.0m/s | 0°C | 0% | 0hPa | 0V | 00:00:00 | 00:00:00 | 00:00:00 | |
| SQ6EMJ | 2026-09-01 00:48:47 | 51.43014 | 17.79252 | 107° | 26km/h | 29873m | 17.7m/s | 0°C | 0% | 0hPa | 0V | 00:00:00 | 00:00:00 | 00:00:00 | |
| SP3BTT-10 | 2026-09-01 00:48:44 | 51.43038 | 17.79252 | 180° | 44km/h | 29815m | 8.7m/s | 0°C | 0% | 0hPa | 0V | 00:00:00 | 00:00:00 | 00:00:00 | |
| SQ6EMJ | 2026-09-01 00:48:40 | 51.43113 | 17.79177 | 22° | 88km/h | 29747m | -0.6m/s | 0°C | 0% | 0hPa | 0V | 00:00:00 | 00:00:00 | 00:00:00 | |
| KRY50SP | 2026-09-01 00:48:38 | 51.43086 | 17.79175 | 321° | 49km/h | 29742m | -2.5m/s | 0°C | 0% | 0hPa | 0V | 00:00:00 | 00:00:00 | 00:00:00 | |
| SP6BVK | 2026-09-01 00:48:34 | 51.43086 | 17.79171 | 108° | 53km/h | 29759m | -0.3m/s | 0°C | 0% | 0hPa | 0V | 00:00:00 | 00:00:00 | 00:00:00 | |
| KRY50SP | 2026-09-01 00:48:27 | 51.43058 | 17.79173 | 116° | 62km/h | 29722m | 3.9m/s | 0°C | 0% | 0hPa | 0V | 00:00:00 | 00:00:00 | 00:00:00 | |
| SQ6EMJ | 2026-09-01 00:48:25 | 51.43058 | 17.79124 | 66° | 37km/h | 29708m | -3.5m/s | 0°C | 0% | 0hPa | 0V | 00:00:00 | 00:00:00 | 00:00:00 | |
| SQ6EMJ | 2026-09-01 00:48:16 | 51.43061 | 17.79045 | 316° | 38km/h | 29666m | 6.4m/s | 0°C | 0% | 0hPa | 0V | 00:00:00 | 00:00:00 | 00:00:00 | |
| KRY50SP | 2026-09-01 00:48:15 | 51.43058 | 17.79058 | 253° | 44km/h | 29661m | 1.4m/s | 0°C | 0% | 0hPa | 0V | 00:00:00 | 00:00:00 | 00:00:00 | |
| SQ6EMJ | 2026-09-01 00:48:11 | 51.43065 | 17.79033 | 79° | 58km/h | 29639m | 1.1m/s | 0°C | 0% | 0hPa | 0V | 00:00:00 | 00:00:00 | 00:00:00 | |
| KRY50SP | 2026-09-01 00:48:08 | 51.43055 | 17.79042 | 257° | 42km/h | 29630m | 5.8m/s | 0°C | 0% | 0hPa | 0V | 00:00:00 | 00:00:00 | 00:00:00 | |
| OE5DRO-10 | 2026-09-01 00:48:05 | 51.43078 | 17.79052 | 143° | 42km/h | 29615m | 9.4m/s | 0°C | 0% | 0hPa | 0V | 00:00:00 | 00:00:00 | 00:00:00 | |
| SQ6EMJ | 2026-09-01 00:48:04 | 51.43077 | 17.79030 | 142° | 13km/h | 29605m | 8.4m/s | 0°C | 0% | 0hPa | 0V | 00:00:00 | 00:00:00 | 00:00:00 | |
| KRY50SP | 2026-09-01 00:47:59 | 51.43084 | 17.79095 | 162° | 33km/h | 29579m | 16.4m/s | 0°C | 0% | 0hPa | 0V | 00:00:00 | 00:00:00 | 00:00:00 | |
| SP6BVK | 2026-09-01 00:47:53 | 51.43081 | 17.79053 | 267° | 44km/h | 29511m | 4.1m/s | 0°C | 0% | 0hPa | 0V | 00:00:00 | 00:00:00 | 00:00:00 | |
| KRY50SP | 2026-09-01 00:47:52 | 51.43080 | 17.79064 | 236° | 29km/h | 29512m | 5.9m/s | 0°C | 0% | 0hPa | 0V | 00:00:00 | 00:00:00 | 00:00:00 | |
| SQ6EMJ | 2026-09-01 00:47:48 | 51.43088 | 17.79019 | 77° | 47km/h | 29491m | 7.0m/s | 0°C | 0% | 0hPa | 0V | 00:00:00 | 00:00:00 | 00:00:00 | |
| KRY50SP | 2026-09-01 00:47:46 | 51.43069 | 17.78999 | 329° | 29km/h | 29484m | 10.3m/s | 0°C | 0% | 0hPa | 0V | 00:00:00 | 00:00:00 | 00:00:00 | |
| SP3BTT-10 | 2026-09-01 00:47:44 | 51.43060 | 17.79019 | 283° | 49km/h | 29462m | 6.4m/s | 0°C | 0% | 0hPa | 0V | 00:00:00 | 00:00:00 | 00:00:00 | |
| OE5DRO-10 | 2026-09-01 00:47:42 | 51.43068 | 17.79039 | 133° | 31km/h | 29427m | 4.8m/s | 0°C | 0% | 0hPa | 0V | 00:00:00 | 00:00:00 | 00:00:00 | |
| SQ6EMJ | 2026-09-01 00:47:36 | 51.43012 | 17.78987 | 173° | 13km/h | 29431m | 10.0m/s | 0°C | 0% | 0hPa | 0V | 00:00:00 | 00:00:00 | 00:00:00 | |
| SP6BVK | 2026-09-01 00:47:33 | 51.43043 | 17.79011 | 107° | 38km/h | 29427m | -3.4m/s | 0°C | 0% | 0hPa | 0V | 00:00:00 | 00:00:00 | 00:00:00 | |
| SQ6EMJ | 2026-09-01 00:47:27 | 51.43019 | 17.78964 | 181° | 47km/h | 29424m | -0.3m/s | 0°C | 0% | 0hPa | 0V | 00:00:00 | 00:00:00 | 00:00:00 | |
| KRY50SP | 2026-09-01 00:47:24 | 51.43061 | 17.78956 | 145° | 60km/h | 29434m | 1.9m/s | 0°C | 0% | 0hPa | 0V | 00:00:00 | 00:00:00 | 00:00:00 | |
| SQ6EMJ | 2026-09-01 00:47:22 | 51.43064 | 17.78922 | 63° | 68km/h | 29433m | 8.9m/s | 0°C | 0% | 0hPa | 0V | 00:00:00 | 00:00:00 | 00:00:00 | |
| KRY50SP | 2026-09-01 00:47:15 | 51.43068 | 17.78874 | 58° | 29km/h | 29350m | 7.6m/s | 0°C | 0% | 0hPa | 0V | 00:00:00 | 00:00:00 | 00:00:00 | |
| SP6BVK | 2026-09-01 00:47:13 | 51.43055 | 17.78850 | 355° | 29km/h | 29334m | 7.1m/s | 0°C | 0% | 0hPa | 0V | 00:00:00 | 00:00:00 | 00:00:00 | |
| SQ6EMJ | 2026-09-01 00:47:07 | 51.43063 | 17.78872 | 120° | 47km/h | 29291m | 6.5m/s | 0°C | 0% | 0hPa | 0V | 00:00:00 | 00:00:00 | 00:00:00 | |
| KRY50SP | 2026-09-01 00:47:02 | 51.43056 | 17.78859 | 271° | 31km/h | 29245m | 4.3m/s | 0°C | 0% | 0hPa | 0V | 00:00:00 | 00:00:00 | 00:00:00 | |
| OE5DRO-10 | 2026-09-01 00:47:01 | 51.43057 | 17.78873 | 259° | 35km/h | 29242m | 5.7m/s | 0°C | 0% | 0hPa | 0V | 00:00:00 | 00:00:00 | 00:00:00 | |
| SQ6EMJ | 2026-09-01 00:46:57 | 51.43090 | 17.78864 | 110° | 44km/h | 29211m | 2.5m/s | 0°C | 0% | 0hPa | 0V | 00:00:00 | 00:00:00 | 00:00:00 | |
| KRY50SP | 2026-09-01 00:46:56 | 51.43090 | 17.78848 | 68° | 29km/h | 29210m | 3.0m/s | 0°C | 0% | 0hPa | 0V | 00:00:00 | 00:00:00 | 00:00:00 | |
| SP6BVK | 2026-09-01 00:46:51 | 51.43069 | 17.78878 | 232° | 33km/h | 29198m | -5.0m/s | 0°C | 0% | 0hPa | 0V | 00:00:00 | 00:00:00 | 00:00:00 | |
| KRY50SP | 2026-09-01 00:46:49 | 51.43081 | 17.78868 | 127° | 33km/h | 29203m | 0.5m/s | 0°C | 0% | 0hPa | 0V | 00:00:00 | 00:00:00 | 00:00:00 | |
| SQ6EMJ | 2026-09-01 00:46:45 | 51.43077 | 17.78853 | 287° | 53km/h | 29196m | -5.6m/s | 0°C | 0% | 0hPa | 0V | 00:00:00 | 00:00:00 | 00:00:00 | |
| KRY50SP | 2026-09-01 00:46:43 | 51.43083 | 17.78913 | 255° | 51km/h | 29227m | -6.1m/s | 0°C | 0% | 0hPa | 0V | 00:00:00 | 00:00:00 | 00:00:00 | |
| SQ6EMJ | 2026-09-01 00:46:40 | 51.43097 | 17.78936 | 101° | 51km/h | 29319m | 9.6m/s | 0°C | 0% | 0hPa | 0V | 00:00:00 | 00:00:00 | 00:00:00 | |
| KRY50SP | 2026-09-01 00:46:36 | 51.43129 | 17.78884 | 205° | 84km/h | 29302m | 25.6m/s | 0°C | 0% | 0hPa | 0V | 00:00:00 | 00:00:00 | 00:00:00 | |
| SQ6EMJ | 2026-09-01 00:46:34 | 51.43151 | 17.78875 | 180° | 38km/h | 29268m | 27.1m/s | 0°C | 0% | 0hPa | 0V | 00:00:00 | 00:00:00 | 00:00:00 | |
| KRY50SP | 2026-09-01 00:46:31 | 51.43140 | 17.78905 | 262° | 38km/h | 29199m | 16.5m/s | 0°C | 0% | 0hPa | 0V | 00:00:00 | 00:00:00 | 00:00:00 | |
| SP3BTT-10 | 2026-09-01 00:46:29 | 51.43160 | 17.78922 | 186° | 46km/h | 29162m | 19.1m/s | 0°C | 0% | 0hPa | 0V | 00:00:00 | 00:00:00 | 00:00:00 | |
| SQ6EMJ | 2026-09-01 00:46:27 | 51.43178 | 17.78906 | 108° | 53km/h | 29122m | 17.6m/s | 0°C | 0% | 0hPa | 0V | 00:00:00 | 00:00:00 | 00:00:00 | |
| SQ6EMJ | 2026-09-01 00:46:21 | 51.43186 | 17.78868 | 163° | 71km/h | 29012m | 4.2m/s | 0°C | 0% | 0hPa | 0V | 00:00:00 | 00:00:00 | 00:00:00 | |
| KRY50SP | 2026-09-01 00:46:15 | 51.43183 | 17.78845 | 212° | 60km/h | 28950m | 9.7m/s | 0°C | 0% | 0hPa | 0V | 00:00:00 | 00:00:00 | 00:00:00 | |
| SP6BVK | 2026-09-01 00:46:11 | 51.43206 | 17.78779 | 100° | 7km/h | 28915m | -7.3m/s | 0°C | 0% | 0hPa | 0V | 00:00:00 | 00:00:00 | 00:00:00 | |
| KRY50SP | 2026-09-01 00:46:07 | 51.43234 | 17.78835 | 180° | 60km/h | 28901m | 3.1m/s | 0°C | 0% | 0hPa | 0V | 00:00:00 | 00:00:00 | 00:00:00 | |
| SQ6EMJ | 2026-09-01 00:46:06 | 51.43245 | 17.78793 | 122° | 75km/h | 28883m | -6.4m/s | 0°C | 0% | 0hPa | 0V | 00:00:00 | 00:00:00 | 00:00:00 | |
| OE5DRO-10 | 2026-09-01 00:46:03 | 51.43245 | 17.78729 | 40° | 58km/h | 28908m | -1.0m/s | 0°C | 0% | 0hPa | 0V | 00:00:00 | 00:00:00 | 00:00:00 | |
| KRY50SP | 2026-09-01 00:45:58 | 51.43269 | 17.78732 | 134° | 58km/h | 28931m | -0.2m/s | 0°C | 0% | 0hPa | 0V | 00:00:00 | 00:00:00 | 00:00:00 | |
| SP6BVK | 2026-09-01 00:45:50 | 51.43273 | 17.78670 | 122° | 55km/h | 28928m | 12.3m/s | 0°C | 0% | 0hPa | 0V | 00:00:00 | 00:00:00 | 00:00:00 | |
| SP3BTT-10 | 2026-09-01 00:45:44 | 51.43243 | 17.78598 | 165° | 42km/h | 28833m | 6.8m/s | 0°C | 0% | 0hPa | 0V | 00:00:00 | 00:00:00 | 00:00:00 | |
| KRY50SP | 2026-09-01 00:45:39 | 51.43279 | 17.78599 | 180° | 53km/h | 28815m | 15.1m/s | 0°C | 0% | 0hPa | 0V | 00:00:00 | 00:00:00 | 00:00:00 | |
| SQ6EMJ | 2026-09-01 00:45:36 | 51.43304 | 17.78524 | 103° | 62km/h | 28779m | 2.1m/s | 0°C | 0% | 0hPa | 0V | 00:00:00 | 00:00:00 | 00:00:00 | |
| KRY50SP | 2026-09-01 00:45:33 | 51.43301 | 17.78510 | 231° | 29km/h | 28759m | 5.7m/s | 0°C | 0% | 0hPa | 0V | 00:00:00 | 00:00:00 | 00:00:00 | |
| SQ6EMJ | 2026-09-01 00:45:32 | 51.43311 | 17.78502 | 144° | 68km/h | 28746m | 13.3m/s | 0°C | 0% | 0hPa | 0V | 00:00:00 | 00:00:00 | 00:00:00 | |
| SP6BVK | 2026-09-01 00:45:28 | 51.43312 | 17.78438 | 43° | 42km/h | 28715m | 14.6m/s | 0°C | 0% | 0hPa | 0V | 00:00:00 | 00:00:00 | 00:00:00 | |
| KRY50SP | 2026-09-01 00:45:26 | 51.43303 | 17.78428 | 145° | 16km/h | 28698m | 9.5m/s | 0°C | 0% | 0hPa | 0V | 00:00:00 | 00:00:00 | 00:00:00 | |
| SQ6EMJ | 2026-09-01 00:45:23 | 51.43320 | 17.78378 | 111° | 77km/h | 28682m | -8.2m/s | 0°C | 0% | 0hPa | 0V | 00:00:00 | 00:00:00 | 00:00:00 | |
| SQ6EMJ | 2026-09-01 00:45:17 | 51.43348 | 17.78282 | 107° | 73km/h | 28674m | 18.0m/s | 0°C | 0% | 0hPa | 0V | 00:00:00 | 00:00:00 | 00:00:00 | |
| KRY50SP | 2026-09-01 00:45:14 | 51.43334 | 17.78221 | 13° | 35km/h | 28627m | 4.5m/s | 0°C | 0% | 0hPa | 0V | 00:00:00 | 00:00:00 | 00:00:00 | |
| SQ6EMJ | 2026-09-01 00:45:09 | 51.43333 | 17.78232 | 8° | 88km/h | 28628m | 4.4m/s | 0°C | 0% | 0hPa | 0V | 00:00:00 | 00:00:00 | 00:00:00 | |
| SP6BVK | 2026-09-01 00:45:07 | 51.43290 | 17.78252 | 313° | 46km/h | 28609m | 6.2m/s | 0°C | 0% | 0hPa | 0V | 00:00:00 | 00:00:00 | 00:00:00 | |
| KRY50SP | 2026-09-01 00:45:00 | 51.43269 | 17.78201 | 15° | 49km/h | 28618m | 11.0m/s | 0°C | 0% | 0hPa | 0V | 00:00:00 | 00:00:00 | 00:00:00 | |
| SQ6EMJ | 2026-09-01 00:44:52 | 51.43250 | 17.78165 | 333° | 31km/h | 28530m | 22.0m/s | 0°C | 0% | 0hPa | 0V | 00:00:00 | 00:00:00 | 00:00:00 | |
| KRY50SP | 2026-09-01 00:44:51 | 51.43246 | 17.78174 | 201° | 7km/h | 28504m | 21.3m/s | 0°C | 0% | 0hPa | 0V | 00:00:00 | 00:00:00 | 00:00:00 | |
| SQ6EMJ | 2026-09-01 00:44:46 | 51.43234 | 17.78100 | 4° | 73km/h | 28435m | 8.3m/s | 0°C | 0% | 0hPa | 0V | 00:00:00 | 00:00:00 | 00:00:00 | |
| SP6BVK | 2026-09-01 00:44:45 | 51.43219 | 17.78107 | 311° | 58km/h | 28427m | 6.2m/s | 0°C | 0% | 0hPa | 0V | 00:00:00 | 00:00:00 | 00:00:00 | |
| PETON7-10 | 2026-09-01 00:44:41 | 51.43221 | 17.78121 | 97° | 33km/h | 28387m | 6.5m/s | 0°C | 0% | 0hPa | 0V | 00:00:00 | 00:00:00 | 00:00:00 | |
| KRY50SP | 2026-09-01 00:44:38 | 51.43185 | 17.78077 | 346° | 53km/h | 28370m | 3.5m/s | 0°C | 0% | 0hPa | 0V | 00:00:00 | 00:00:00 | 00:00:00 | |
| OE5DRO-10 | 2026-09-01 00:44:34 | 51.43170 | 17.78104 | 94° | 33km/h | 28334m | 3.0m/s | 0°C | 0% | 0hPa | 0V | 00:00:00 | 00:00:00 | 00:00:00 | |
| SQ6EMJ | 2026-09-01 00:44:32 | 51.43163 | 17.78096 | 50° | 38km/h | 28326m | 3.5m/s | 0°C | 0% | 0hPa | 0V | 00:00:00 | 00:00:00 | 00:00:00 | |
| SP3BTT-10 | 2026-09-01 00:44:28 | 51.43134 | 17.78086 | 10° | 24km/h | 28322m | 8.1m/s | 0°C | 0% | 0hPa | 0V | 00:00:00 | 00:00:00 | 00:00:00 | |
| SP6BVK | 2026-09-01 00:44:24 | 51.43135 | 17.78043 | 142° | 9km/h | 28304m | 7.3m/s | 0°C | 0% | 0hPa | 0V | 00:00:00 | 00:00:00 | 00:00:00 | |
| KRY50SP | 2026-09-01 00:44:21 | 51.43128 | 17.78059 | 333° | 38km/h | 28283m | 7.3m/s | 0°C | 0% | 0hPa | 0V | 00:00:00 | 00:00:00 | 00:00:00 | |
| PETON7-10 | 2026-09-01 00:44:20 | 51.43121 | 17.78063 | 7° | 22km/h | 28282m | 7.7m/s | 0°C | 0% | 0hPa | 0V | 00:00:00 | 00:00:00 | 00:00:00 | |
| SQ6EMJ | 2026-09-01 00:44:18 | 51.43110 | 17.78047 | 68° | 27km/h | 28268m | 8.3m/s | 0°C | 0% | 0hPa | 0V | 00:00:00 | 00:00:00 | 00:00:00 | |
| KRY50SP | 2026-09-01 00:44:14 | 51.43105 | 17.78052 | 319° | 37km/h | 28228m | 8.1m/s | 0°C | 0% | 0hPa | 0V | 00:00:00 | 00:00:00 | 00:00:00 | |
| SQ6EMJ | 2026-09-01 00:44:11 | 51.43085 | 17.78046 | 69° | 38km/h | 28200m | 2.7m/s | 0°C | 0% | 0hPa | 0V | 00:00:00 | 00:00:00 | 00:00:00 | |
| KRY50SP | 2026-09-01 00:44:08 | 51.43088 | 17.78023 | 234° | 13km/h | 28186m | 9.2m/s | 0°C | 0% | 0hPa | 0V | 00:00:00 | 00:00:00 | 00:00:00 | |
| PETON7-10 | 2026-09-01 00:44:03 | 51.43083 | 17.78030 | 52° | 18km/h | 28153m | 5.8m/s | 0°C | 0% | 0hPa | 0V | 00:00:00 | 00:00:00 | 00:00:00 | |
| SQ6EMJ | 2026-09-01 00:44:00 | 51.43080 | 17.78017 | 217° | 16km/h | 28127m | 4.7m/s | 0°C | 0% | 0hPa | 0V | 00:00:00 | 00:00:00 | 00:00:00 | |
| KRY50SP | 2026-09-01 00:43:57 | 51.43086 | 17.78017 | 126° | 16km/h | 28115m | 3.9m/s | 0°C | 0% | 0hPa | 0V | 00:00:00 | 00:00:00 | 00:00:00 | |
| SQ6EMJ | 2026-09-01 00:43:53 | 51.43088 | 17.78005 | 290° | 7km/h | 28097m | 7.1m/s | 0°C | 0% | 0hPa | 0V | 00:00:00 | 00:00:00 | 00:00:00 | |
| KRY50SP | 2026-09-01 00:43:51 | 51.43090 | 17.78013 | 61° | 7km/h | 28081m | 9.2m/s | 0°C | 0% | 0hPa | 0V | 00:00:00 | 00:00:00 | 00:00:00 | |
| SQ6EMJ | 2026-09-01 00:43:49 | 51.43103 | 17.78012 | 110° | 27km/h | 28058m | 3.5m/s | 0°C | 0% | 0hPa | 0V | 00:00:00 | 00:00:00 | 00:00:00 | |
| PETON7-10 | 2026-09-01 00:43:48 | 51.43103 | 17.78011 | 109° | 20km/h | 28058m | 3.5m/s | 0°C | 0% | 0hPa | 0V | 00:00:00 | 00:00:00 | 00:00:00 | |
| SP6BVK | 2026-09-01 00:43:43 | 51.43092 | 17.77965 | 75° | 16km/h | 28034m | 8.7m/s | 0°C | 0% | 0hPa | 0V | 00:00:00 | 00:00:00 | 00:00:00 | |
| SP3BTT-10 | 2026-09-01 00:43:42 | 51.43093 | 17.77958 | 136° | 20km/h | 28025m | 7.5m/s | 0°C | 0% | 0hPa | 0V | 00:00:00 | 00:00:00 | 00:00:00 | |
| KRY50SP | 2026-09-01 00:43:40 | 51.43107 | 17.77954 | 184° | 33km/h | 28011m | 3.5m/s | 0°C | 0% | 0hPa | 0V | 00:00:00 | 00:00:00 | 00:00:00 | |
| SQ6EMJ | 2026-09-01 00:43:35 | 51.43121 | 17.77937 | 132° | 20km/h | 27974m | 3.0m/s | 0°C | 0% | 0hPa | 0V | 00:00:00 | 00:00:00 | 00:00:00 | |
| KRY50SP | 2026-09-01 00:43:34 | 51.43124 | 17.77927 | 154° | 20km/h | 27977m | 7.6m/s | 0°C | 0% | 0hPa | 0V | 00:00:00 | 00:00:00 | 00:00:00 | |
| PETON7-10 | 2026-09-01 00:43:30 | 51.43138 | 17.77907 | 141° | 24km/h | 27936m | 4.9m/s | 0°C | 0% | 0hPa | 0V | 00:00:00 | 00:00:00 | 00:00:00 | |
| KRY50SP | 2026-09-01 00:43:28 | 51.43147 | 17.77882 | 121° | 27km/h | 27920m | 1.6m/s | 0°C | 0% | 0hPa | 0V | 00:00:00 | 00:00:00 | 00:00:00 | |
| SQ6EMJ | 2026-09-01 00:43:24 | 51.43155 | 17.77853 | 118° | 24km/h | 27904m | 6.8m/s | 0°C | 0% | 0hPa | 0V | 00:00:00 | 00:00:00 | 00:00:00 | |
| SP6BVK | 2026-09-01 00:43:22 | 51.43163 | 17.77845 | 168° | 16km/h | 27894m | 4.7m/s | 0°C | 0% | 0hPa | 0V | 00:00:00 | 00:00:00 | 00:00:00 | |
| KRY50SP | 2026-09-01 00:43:20 | 51.43178 | 17.77843 | 177° | 31km/h | 27889m | 3.2m/s | 0°C | 0% | 0hPa | 0V | 00:00:00 | 00:00:00 | 00:00:00 | |
| SQ6EMJ | 2026-09-01 00:43:18 | 51.43185 | 17.77833 | 113° | 24km/h | 27885m | 6.3m/s | 0°C | 0% | 0hPa | 0V | 00:00:00 | 00:00:00 | 00:00:00 | |
| PETON7-10 | 2026-09-01 00:43:14 | 51.43185 | 17.77799 | 191° | 18km/h | 27859m | 8.5m/s | 0°C | 0% | 0hPa | 0V | 00:00:00 | 00:00:00 | 00:00:00 | |
| SQ6EMJ | 2026-09-01 00:43:12 | 51.43196 | 17.77794 | 164° | 29km/h | 27847m | 6.8m/s | 0°C | 0% | 0hPa | 0V | 00:00:00 | 00:00:00 | 00:00:00 | |
| KRY50SP | 2026-09-01 00:43:10 | 51.43205 | 17.77775 | 101° | 29km/h | 27830m | 6.7m/s | 0°C | 0% | 0hPa | 0V | 00:00:00 | 00:00:00 | 00:00:00 | |
| OE5DRO-10 | 2026-09-01 00:43:09 | 51.43206 | 17.77767 | 156° | 20km/h | 27813m | 6.1m/s | 0°C | 0% | 0hPa | 0V | 00:00:00 | 00:00:00 | 00:00:00 | |
| SQ6EMJ | 2026-09-01 00:43:06 | 51.43210 | 17.77746 | 144° | 24km/h | 27807m | 5.7m/s | 0°C | 0% | 0hPa | 0V | 00:00:00 | 00:00:00 | 00:00:00 | |
| KRY50SP | 2026-09-01 00:43:03 | 51.43223 | 17.77722 | 111° | 33km/h | 27788m | 6.5m/s | 0°C | 0% | 0hPa | 0V | 00:00:00 | 00:00:00 | 00:00:00 | |
| SP6BVK | 2026-09-01 00:43:02 | 51.43226 | 17.77711 | 96° | 24km/h | 27784m | 5.6m/s | 0°C | 0% | 0hPa | 0V | 00:00:00 | 00:00:00 | 00:00:00 | |
| SQ6EMJ | 2026-09-01 00:43:00 | 51.43227 | 17.77699 | 198° | 9km/h | 27769m | 6.2m/s | 0°C | 0% | 0hPa | 0V | 00:00:00 | 00:00:00 | 00:00:00 | |
| PETON7-10 | 2026-09-01 00:42:58 | 51.43229 | 17.77697 | 130° | 13km/h | 27762m | 4.8m/s | 0°C | 0% | 0hPa | 0V | 00:00:00 | 00:00:00 | 00:00:00 | |
| KRY50SP | 2026-09-01 00:42:57 | 51.43232 | 17.77677 | 98° | 35km/h | 27748m | 7.9m/s | 0°C | 0% | 0hPa | 0V | 00:00:00 | 00:00:00 | 00:00:00 | |
| SQ6EMJ | 2026-09-01 00:42:54 | 51.43236 | 17.77653 | 119° | 18km/h | 27738m | 6.7m/s | 0°C | 0% | 0hPa | 0V | 00:00:00 | 00:00:00 | 00:00:00 | |
| OE5DRO-10 | 2026-09-01 00:42:49 | 51.43242 | 17.77643 | 91° | 22km/h | 27700m | 6.5m/s | 0°C | 0% | 0hPa | 0V | 00:00:00 | 00:00:00 | 00:00:00 | |
| PETON7-10 | 2026-09-01 00:42:48 | 51.43254 | 17.77597 | 93° | 18km/h | 27655m | 6.1m/s | 0°C | 0% | 0hPa | 0V | 00:00:00 | 00:00:00 | 00:00:00 | |
| SP6BVK | 2026-09-01 00:42:47 | 51.43252 | 17.77590 | 89° | 20km/h | 27643m | 1.9m/s | 0°C | 0% | 0hPa | 0V | 00:00:00 | 00:00:00 | 00:00:00 | |
| KRY50SP | 2026-09-01 00:42:46 | 51.43255 | 17.77562 | 155° | 22km/h | 27624m | 6.6m/s | 0°C | 0% | 0hPa | 0V | 00:00:00 | 00:00:00 | 00:00:00 | |
| SQ6EMJ | 2026-09-01 00:42:43 | 51.43259 | 17.77558 | 148° | 22km/h | 27617m | 7.6m/s | 0°C | 0% | 0hPa | 0V | 00:00:00 | 00:00:00 | 00:00:00 | |
| OE5DRO-10 | 2026-09-01 00:42:30 | 51.43263 | 17.77526 | 108° | 22km/h | 27569m | 5.6m/s | 0°C | 0% | 0hPa | 0V | 00:00:00 | 00:00:00 | 00:00:00 | |
| KRY50SP | 2026-09-01 00:42:28 | 51.43269 | 17.77495 | 109° | 40km/h | 27552m | 2.2m/s | 0°C | 0% | 0hPa | 0V | 00:00:00 | 00:00:00 | 00:00:00 | |
| PETON7-10 | 2026-09-01 00:42:27 | 51.43270 | 17.77478 | 120° | 26km/h | 27545m | -0.3m/s | 0°C | 0% | 0hPa | 0V | 00:00:00 | 00:00:00 | 00:00:00 | |
| SQ6EMJ | 2026-09-01 00:42:25 | 51.43273 | 17.77465 | 33° | 5km/h | 27538m | 4.0m/s | 0°C | 0% | 0hPa | 0V | 00:00:00 | 00:00:00 | 00:00:00 | |
| KRY50SP | 2026-09-01 00:42:22 | 51.43271 | 17.77460 | 113° | 26km/h | 27526m | 5.4m/s | 0°C | 0% | 0hPa | 0V | 00:00:00 | 00:00:00 | 00:00:00 | |
| SP6BVK | 2026-09-01 00:42:20 | 51.43280 | 17.77438 | 113° | 29km/h | 27515m | 3.2m/s | 0°C | 0% | 0hPa | 0V | 00:00:00 | 00:00:00 | 00:00:00 | |
| SQ6EMJ | 2026-09-01 00:42:19 | 51.43284 | 17.77430 | 122° | 22km/h | 27510m | 4.4m/s | 0°C | 0% | 0hPa | 0V | 00:00:00 | 00:00:00 | 00:00:00 | |
| SQ6EMJ | 2026-09-01 00:42:14 | 51.43280 | 17.77403 | 103° | 31km/h | 27491m | 6.8m/s | 0°C | 0% | 0hPa | 0V | 00:00:00 | 00:00:00 | 00:00:00 | |
| PETON7-10 | 2026-09-01 00:42:12 | 51.43288 | 17.77378 | 114° | 18km/h | 27479m | 4.3m/s | 0°C | 0% | 0hPa | 0V | 00:00:00 | 00:00:00 | 00:00:00 | |
| OE5DRO-10 | 2026-09-01 00:42:11 | 51.43290 | 17.77371 | 323° | 18km/h | 27461m | 4.6m/s | 0°C | 0% | 0hPa | 0V | 00:00:00 | 00:00:00 | 00:00:00 | |
| KRY50SP | 2026-09-01 00:42:10 | 51.43290 | 17.77371 | 324° | 9km/h | 27461m | 4.7m/s | 0°C | 0% | 0hPa | 0V | 00:00:00 | 00:00:00 | 00:00:00 | |
| SP4MAZ | 2026-09-01 00:42:09 | 51.43288 | 17.77373 | 330° | 15km/h | 27456m | 2.6m/s | 0°C | 0% | 0hPa | 0V | 00:00:00 | 00:00:00 | 00:00:00 | |
| SQ6EMJ | 2026-09-01 00:42:04 | 51.43285 | 17.77331 | 59° | 13km/h | 27436m | 5.8m/s | 0°C | 0% | 0hPa | 0V | 00:00:00 | 00:00:00 | 00:00:00 | |
| KRY50SP | 2026-09-01 00:42:02 | 51.43281 | 17.77330 | 349° | 13km/h | 27425m | 4.2m/s | 0°C | 0% | 0hPa | 0V | 00:00:00 | 00:00:00 | 00:00:00 | |
| SP6BVK | 2026-09-01 00:41:59 | 51.43275 | 17.77321 | 89° | 29km/h | 27408m | 2.2m/s | 0°C | 0% | 0hPa | 0V | 00:00:00 | 00:00:00 | 00:00:00 | |
| KRY50SP | 2026-09-01 00:41:56 | 51.43273 | 17.77292 | 359° | 11km/h | 27397m | 4.5m/s | 0°C | 0% | 0hPa | 0V | 00:00:00 | 00:00:00 | 00:00:00 | |
| SQ6EMJ | 2026-09-01 00:41:51 | 51.43281 | 17.77280 | 77° | 29km/h | 27378m | 3.2m/s | 0°C | 0% | 0hPa | 0V | 00:00:00 | 00:00:00 | 00:00:00 | |
| SQ9EZE-15 | 2026-09-01 00:41:50 | 51.43279 | 17.77264 | 58° | 26km/h | 27371m | 1.6m/s | 0°C | 0% | 0hPa | 0V | 00:00:00 | 00:00:00 | 00:00:00 | |
| KRY50SP | 2026-09-01 00:41:47 | 51.43275 | 17.77235 | 248° | 18km/h | 27363m | 3.5m/s | 0°C | 0% | 0hPa | 0V | 00:00:00 | 00:00:00 | 00:00:00 | |
| SQ6EMJ | 2026-09-01 00:41:45 | 51.43279 | 17.77236 | 155° | 16km/h | 27366m | 6.7m/s | 0°C | 0% | 0hPa | 0V | 00:00:00 | 00:00:00 | 00:00:00 | |
| SP3BTT-10 | 2026-09-01 00:41:42 | 51.43285 | 17.77215 | 80° | 22km/h | 27354m | 10.7m/s | 0°C | 0% | 0hPa | 0V | 00:00:00 | 00:00:00 | 00:00:00 | |
| PETON7-10 | 2026-09-01 00:41:39 | 51.43282 | 17.77201 | 47° | 16km/h | 27307m | 8.5m/s | 0°C | 0% | 0hPa | 0V | 00:00:00 | 00:00:00 | 00:00:00 | |
| SP6BVK | 2026-09-01 00:41:38 | 51.43283 | 17.77197 | 142° | 7km/h | 27295m | 7.0m/s | 0°C | 0% | 0hPa | 0V | 00:00:00 | 00:00:00 | 00:00:00 | |
| SQ6EMJ | 2026-09-01 00:41:34 | 51.43305 | 17.77171 | 91° | 4km/h | 27276m | 1.0m/s | 0°C | 0% | 0hPa | 0V | 00:00:00 | 00:00:00 | 00:00:00 | |
| KRY50SP | 2026-09-01 00:41:32 | 51.43299 | 17.77167 | 42° | 20km/h | 27274m | 2.1m/s | 0°C | 0% | 0hPa | 0V | 00:00:00 | 00:00:00 | 00:00:00 | |
| OE5DRO-10 | 2026-09-01 00:41:29 | 51.43308 | 17.77115 | 131° | 20km/h | 27249m | 4.1m/s | 0°C | 0% | 0hPa | 0V | 00:00:00 | 00:00:00 | 00:00:00 | |
| SQ6EMJ | 2026-09-01 00:41:28 | 51.43308 | 17.77115 | 132° | 27km/h | 27249m | 4.2m/s | 0°C | 0% | 0hPa | 0V | 00:00:00 | 00:00:00 | 00:00:00 | |
| PETON7-10 | 2026-09-01 00:41:24 | 51.43299 | 17.77122 | 56° | 33km/h | 27230m | 7.9m/s | 0°C | 0% | 0hPa | 0V | 00:00:00 | 00:00:00 | 00:00:00 | |
| SQ6EMJ | 2026-09-01 00:41:22 | 51.43297 | 17.77097 | 105° | 53km/h | 27209m | 6.6m/s | 0°C | 0% | 0hPa | 0V | 00:00:00 | 00:00:00 | 00:00:00 | |
| KRY50SP | 2026-09-01 00:41:18 | 51.43312 | 17.77065 | 0° | 0km/h | 27164m | 7.1m/s | 0°C | 0% | 0hPa | 0V | 00:00:00 | 00:00:00 | 00:00:00 | |
| SP6BVK | 2026-09-01 00:41:15 | 51.43319 | 17.77069 | 61° | 29km/h | 27118m | -0.5m/s | 0°C | 0% | 0hPa | 0V | 00:00:00 | 00:00:00 | 00:00:00 | |
| SQ6EMJ | 2026-09-01 00:41:14 | 51.43313 | 17.77061 | 70° | 47km/h | 27115m | -1.5m/s | 0°C | 0% | 0hPa | 0V | 00:00:00 | 00:00:00 | 00:00:00 | |
| KRY50SP | 2026-09-01 00:41:13 | 51.43313 | 17.77047 | 84° | 35km/h | 27111m | -3.3m/s | 0°C | 0% | 0hPa | 0V | 00:00:00 | 00:00:00 | 00:00:00 | |
| SQ6EMJ | 2026-09-01 00:41:08 | 51.43319 | 17.76978 | 91° | 47km/h | 27107m | -2.1m/s | 0°C | 0% | 0hPa | 0V | 00:00:00 | 00:00:00 | 00:00:00 | |
| PETON7-10 | 2026-09-01 00:41:05 | 51.43317 | 17.76943 | 72° | 29km/h | 27099m | 0.6m/s | 0°C | 0% | 0hPa | 0V | 00:00:00 | 00:00:00 | 00:00:00 | |
| SQ6EMJ | 2026-09-01 00:41:03 | 51.43321 | 17.76923 | 95° | 46km/h | 27088m | 5.9m/s | 0°C | 0% | 0hPa | 0V | 00:00:00 | 00:00:00 | 00:00:00 | |
| KRY50SP | 2026-09-01 00:41:02 | 51.43323 | 17.76907 | 98° | 58km/h | 27081m | 3.4m/s | 0°C | 0% | 0hPa | 0V | 00:00:00 | 00:00:00 | 00:00:00 | |
| SQ6EMJ | 2026-09-01 00:40:58 | 51.43314 | 17.76876 | 320° | 22km/h | 27050m | 2.2m/s | 0°C | 0% | 0hPa | 0V | 00:00:00 | 00:00:00 | 00:00:00 | |
| SP6BVK | 2026-09-01 00:40:54 | 51.43317 | 17.76864 | 110° | 49km/h | 27042m | 2.4m/s | 0°C | 0% | 0hPa | 0V | 00:00:00 | 00:00:00 | 00:00:00 | |
| SQ6EMJ | 2026-09-01 00:40:52 | 51.43314 | 17.76830 | 63° | 37km/h | 27048m | 0.6m/s | 0°C | 0% | 0hPa | 0V | 00:00:00 | 00:00:00 | 00:00:00 | |
| PETON7-10 | 2026-09-01 00:40:46 | 51.43306 | 17.76818 | 99° | 27km/h | 27033m | 7.0m/s | 0°C | 0% | 0hPa | 0V | 00:00:00 | 00:00:00 | 00:00:00 | |
| SQ6EMJ | 2026-09-01 00:40:45 | 51.43305 | 17.76803 | 83° | 37km/h | 27026m | 7.4m/s | 0°C | 0% | 0hPa | 0V | 00:00:00 | 00:00:00 | 00:00:00 | |
| SP3BTT-10 | 2026-09-01 00:40:41 | 51.43288 | 17.76779 | 161° | 13km/h | 27007m | 8.1m/s | 0°C | 0% | 0hPa | 0V | 00:00:00 | 00:00:00 | 00:00:00 | |
| SQ6EMJ | 2026-09-01 00:40:40 | 51.43291 | 17.76776 | 156° | 24km/h | 27000m | 8.9m/s | 0°C | 0% | 0hPa | 0V | 00:00:00 | 00:00:00 | 00:00:00 | |
| SQ6EMJ | 2026-09-01 00:40:35 | 51.43276 | 17.76744 | 21° | 37km/h | 26971m | 4.4m/s | 0°C | 0% | 0hPa | 0V | 00:00:00 | 00:00:00 | 00:00:00 | |
| SP6BVK | 2026-09-01 00:40:33 | 51.43269 | 17.76730 | 96° | 13km/h | 26959m | 7.1m/s | 0°C | 0% | 0hPa | 0V | 00:00:00 | 00:00:00 | 00:00:00 | |
| PETON7-10 | 2026-09-01 00:40:31 | 51.43273 | 17.76717 | 164° | 13km/h | 26946m | 5.3m/s | 0°C | 0% | 0hPa | 0V | 00:00:00 | 00:00:00 | 00:00:00 | |
| SP4MAZ | 2026-09-01 00:40:29 | 51.43271 | 17.76715 | 3° | 16km/h | 26933m | 4.2m/s | 0°C | 0% | 0hPa | 0V | 00:00:00 | 00:00:00 | 00:00:00 | |
| KRY50SP | 2026-09-01 00:40:20 | 51.43256 | 17.76675 | 91° | 20km/h | 26891m | 3.5m/s | 0°C | 0% | 0hPa | 0V | 00:00:00 | 00:00:00 | 00:00:00 | |
| SQ6EMJ | 2026-09-01 00:40:18 | 51.43256 | 17.76664 | 42° | 15km/h | 26880m | 4.5m/s | 0°C | 0% | 0hPa | 0V | 00:00:00 | 00:00:00 | 00:00:00 | |
| PETON7-10 | 2026-09-01 00:40:16 | 51.43247 | 17.76656 | 11° | 22km/h | 26871m | 3.7m/s | 0°C | 0% | 0hPa | 0V | 00:00:00 | 00:00:00 | 00:00:00 | |
| KRY50SP | 2026-09-01 00:40:14 | 51.43242 | 17.76651 | 78° | 16km/h | 26861m | 4.0m/s | 0°C | 0% | 0hPa | 0V | 00:00:00 | 00:00:00 | 00:00:00 | |
| SP6BVK | 2026-09-01 00:40:12 | 51.43249 | 17.76636 | 142° | 16km/h | 26859m | 3.6m/s | 0°C | 0% | 0hPa | 0V | 00:00:00 | 00:00:00 | 00:00:00 | |
| OE5DRO-10 | 2026-09-01 00:40:09 | 51.43241 | 17.76623 | 10° | 26km/h | 26836m | 5.6m/s | 0°C | 0% | 0hPa | 0V | 00:00:00 | 00:00:00 | 00:00:00 | |
| SQ6EMJ | 2026-09-01 00:40:07 | 51.43229 | 17.76614 | 145° | 7km/h | 26830m | 5.0m/s | 0°C | 0% | 0hPa | 0V | 00:00:00 | 00:00:00 | 00:00:00 | |
| PETON7-10 | 2026-09-01 00:40:01 | 51.43238 | 17.76595 | 334° | 16km/h | 26798m | 8.4m/s | 0°C | 0% | 0hPa | 0V | 00:00:00 | 00:00:00 | 00:00:00 | |
| KRY50SP | 2026-09-01 00:39:57 | 51.43234 | 17.76582 | 194° | 22km/h | 26776m | 5.5m/s | 0°C | 0% | 0hPa | 0V | 00:00:00 | 00:00:00 | 00:00:00 | |
| SQ6EMJ | 2026-09-01 00:39:55 | 51.43242 | 17.76587 | 311° | 13km/h | 26763m | 8.8m/s | 0°C | 0% | 0hPa | 0V | 00:00:00 | 00:00:00 | 00:00:00 | |
| SP6BVK | 2026-09-01 00:39:50 | 51.43235 | 17.76567 | 145° | 11km/h | 26731m | 6.6m/s | 0°C | 0% | 0hPa | 0V | 00:00:00 | 00:00:00 | 00:00:00 | |
| PETON7-10 | 2026-09-01 00:39:46 | 51.43241 | 17.76551 | 105° | 15km/h | 26715m | 7.5m/s | 0°C | 0% | 0hPa | 0V | 00:00:00 | 00:00:00 | 00:00:00 | |
| SQ6EMJ | 2026-09-01 00:39:44 | 51.43242 | 17.76535 | 115° | 16km/h | 26703m | 7.3m/s | 0°C | 0% | 0hPa | 0V | 00:00:00 | 00:00:00 | 00:00:00 | |
| KRY50SP | 2026-09-01 00:39:42 | 51.43243 | 17.76529 | 0° | 0km/h | 26691m | 4.8m/s | 0°C | 0% | 0hPa | 0V | 00:00:00 | 00:00:00 | 00:00:00 | |
| SP3BTT-10 | 2026-09-01 00:39:41 | 51.43243 | 17.76527 | 181° | 22km/h | 26687m | 5.3m/s | 0°C | 0% | 0hPa | 0V | 00:00:00 | 00:00:00 | 00:00:00 | |
| SQ6EMJ | 2026-09-01 00:39:39 | 51.43245 | 17.76520 | 126° | 27km/h | 26692m | 9.4m/s | 0°C | 0% | 0hPa | 0V | 00:00:00 | 00:00:00 | 00:00:00 | |
| SQ9EZE-15 | 2026-09-01 00:39:36 | 51.43256 | 17.76489 | 50° | 11km/h | 26652m | 13.2m/s | 0°C | 0% | 0hPa | 0V | 00:00:00 | 00:00:00 | 00:00:00 | |
| KRY50SP | 2026-09-01 00:39:34 | 51.43256 | 17.76489 | 151° | 5km/h | 26614m | 7.3m/s | 0°C | 0% | 0hPa | 0V | 00:00:00 | 00:00:00 | 00:00:00 | |
| PETON7-10 | 2026-09-01 00:39:30 | 51.43272 | 17.76454 | 124° | 18km/h | 26586m | 5.4m/s | 0°C | 0% | 0hPa | 0V | 00:00:00 | 00:00:00 | 00:00:00 | |
| OE5DRO-10 | 2026-09-01 00:39:29 | 51.43275 | 17.76443 | 180° | 22km/h | 26577m | 5.8m/s | 0°C | 0% | 0hPa | 0V | 00:00:00 | 00:00:00 | 00:00:00 | |
| KRY50SP | 2026-09-01 00:39:26 | 51.43283 | 17.76439 | 223° | 27km/h | 26565m | 7.8m/s | 0°C | 0% | 0hPa | 0V | 00:00:00 | 00:00:00 | 00:00:00 | |
| SQ6EMJ | 2026-09-01 00:39:23 | 51.43302 | 17.76421 | 173° | 15km/h | 26550m | 5.1m/s | 0°C | 0% | 0hPa | 0V | 00:00:00 | 00:00:00 | 00:00:00 | |
| KRY50SP | 2026-09-01 00:39:20 | 51.43307 | 17.76418 | 306° | 13km/h | 26541m | 9.9m/s | 0°C | 0% | 0hPa | 0V | 00:00:00 | 00:00:00 | 00:00:00 | |
| SQ6EMJ | 2026-09-01 00:39:17 | 51.43317 | 17.76402 | 328° | 4km/h | 26520m | 6.7m/s | 0°C | 0% | 0hPa | 0V | 00:00:00 | 00:00:00 | 00:00:00 | |
| PETON7-10 | 2026-09-01 00:39:15 | 51.43323 | 17.76394 | 136° | 20km/h | 26508m | 6.2m/s | 0°C | 0% | 0hPa | 0V | 00:00:00 | 00:00:00 | 00:00:00 | |
| SQ6EMJ | 2026-09-01 00:39:12 | 51.43329 | 17.76378 | 108° | 37km/h | 26495m | 4.2m/s | 0°C | 0% | 0hPa | 0V | 00:00:00 | 00:00:00 | 00:00:00 | |
| SP6BVK | 2026-09-01 00:39:08 | 51.43337 | 17.76345 | 162° | 4km/h | 26472m | 3.4m/s | 0°C | 0% | 0hPa | 0V | 00:00:00 | 00:00:00 | 00:00:00 | |
| SQ6EMJ | 2026-09-01 00:39:07 | 51.43339 | 17.76344 | 140° | 13km/h | 26469m | 3.4m/s | 0°C | 0% | 0hPa | 0V | 00:00:00 | 00:00:00 | 00:00:00 | |
| OE5DRO-10 | 2026-09-01 00:39:01 | 51.43356 | 17.76291 | 68° | 22km/h | 26438m | 7.7m/s | 0°C | 0% | 0hPa | 0V | 00:00:00 | 00:00:00 | 00:00:00 | |
| PETON7-10 | 2026-09-01 00:39:00 | 51.43357 | 17.76287 | 114° | 24km/h | 26430m | 4.9m/s | 0°C | 0% | 0hPa | 0V | 00:00:00 | 00:00:00 | 00:00:00 | |
| SQ6EMJ | 2026-09-01 00:38:55 | 51.43370 | 17.76258 | 111° | 18km/h | 26404m | 6.5m/s | 0°C | 0% | 0hPa | 0V | 00:00:00 | 00:00:00 | 00:00:00 | |
| KRY50SP | 2026-09-01 00:38:53 | 51.43375 | 17.76234 | 111° | 37km/h | 26386m | 8.2m/s | 0°C | 0% | 0hPa | 0V | 00:00:00 | 00:00:00 | 00:00:00 | |
| SQ6EMJ | 2026-09-01 00:38:50 | 51.43380 | 17.76203 | 51° | 20km/h | 26365m | 4.8m/s | 0°C | 0% | 0hPa | 0V | 00:00:00 | 00:00:00 | 00:00:00 | |
| KRY50SP | 2026-09-01 00:38:47 | 51.43374 | 17.76179 | 87° | 27km/h | 26354m | 6.5m/s | 0°C | 0% | 0hPa | 0V | 00:00:00 | 00:00:00 | 00:00:00 | |
| SQ6EMJ | 2026-09-01 00:38:45 | 51.43378 | 17.76153 | 102° | 37km/h | 26342m | 5.0m/s | 0°C | 0% | 0hPa | 0V | 00:00:00 | 00:00:00 | 00:00:00 | |
| PETON7-10 | 2026-09-01 00:38:44 | 51.43379 | 17.76142 | 120° | 16km/h | 26336m | 8.1m/s | 0°C | 0% | 0hPa | 0V | 00:00:00 | 00:00:00 | 00:00:00 | |
| OE5DRO-10 | 2026-09-01 00:38:42 | 51.43378 | 17.76133 | 57° | 16km/h | 26317m | 9.2m/s | 0°C | 0% | 0hPa | 0V | 00:00:00 | 00:00:00 | 00:00:00 | |
| SP3BTT-10 | 2026-09-01 00:38:41 | 51.43378 | 17.76130 | 81° | 16km/h | 26306m | 8.5m/s | 0°C | 0% | 0hPa | 0V | 00:00:00 | 00:00:00 | 00:00:00 | |
| SQ6EMJ | 2026-09-01 00:38:39 | 51.43380 | 17.76115 | 113° | 22km/h | 26287m | 10.2m/s | 0°C | 0% | 0hPa | 0V | 00:00:00 | 00:00:00 | 00:00:00 | |
| KRY50SP | 2026-09-01 00:38:34 | 51.43375 | 17.76074 | 92° | 16km/h | 26260m | 6.8m/s | 0°C | 0% | 0hPa | 0V | 00:00:00 | 00:00:00 | 00:00:00 | |
| SQ6EMJ | 2026-09-01 00:38:33 | 51.43375 | 17.76067 | 97° | 20km/h | 26254m | 8.0m/s | 0°C | 0% | 0hPa | 0V | 00:00:00 | 00:00:00 | 00:00:00 | |
| PETON7-10 | 2026-09-01 00:38:28 | 51.43366 | 17.76041 | 36° | 15km/h | 26220m | 6.8m/s | 0°C | 0% | 0hPa | 0V | 00:00:00 | 00:00:00 | 00:00:00 | |
| KRY50SP | 2026-09-01 00:38:26 | 51.43367 | 17.76031 | 139° | 20km/h | 26203m | 7.4m/s | 0°C | 0% | 0hPa | 0V | 00:00:00 | 00:00:00 | 00:00:00 | |
| OE5DRO-10 | 2026-09-01 00:38:23 | 51.43367 | 17.76018 | 17° | 16km/h | 26179m | 9.2m/s | 0°C | 0% | 0hPa | 0V | 00:00:00 | 00:00:00 | 00:00:00 | |
| SQ6EMJ | 2026-09-01 00:38:22 | 51.43362 | 17.76015 | 14° | 22km/h | 26170m | 5.7m/s | 0°C | 0% | 0hPa | 0V | 00:00:00 | 00:00:00 | 00:00:00 | |
| KRY50SP | 2026-09-01 00:38:18 | 51.43358 | 17.75992 | 119° | 16km/h | 26149m | 3.4m/s | 0°C | 0% | 0hPa | 0V | 00:00:00 | 00:00:00 | 00:00:00 | |
| SQ6EMJ | 2026-09-01 00:38:17 | 51.43359 | 17.75987 | 88° | 13km/h | 26145m | 5.2m/s | 0°C | 0% | 0hPa | 0V | 00:00:00 | 00:00:00 | 00:00:00 | |
| PETON7-10 | 2026-09-01 00:38:13 | 51.43345 | 17.75987 | 3° | 18km/h | 26118m | 6.7m/s | 0°C | 0% | 0hPa | 0V | 00:00:00 | 00:00:00 | 00:00:00 | |
| SQ6EMJ | 2026-09-01 00:38:11 | 51.43346 | 17.75974 | 124° | 26km/h | 26107m | 6.8m/s | 0°C | 0% | 0hPa | 0V | 00:00:00 | 00:00:00 | 00:00:00 | |
| KRY50SP | 2026-09-01 00:38:05 | 51.43338 | 17.75964 | 154° | 11km/h | 26065m | 3.8m/s | 0°C | 0% | 0hPa | 0V | 00:00:00 | 00:00:00 | 00:00:00 | |
| OE5DRO-10 | 2026-09-01 00:38:02 | 51.43334 | 17.75944 | 54° | 18km/h | 26042m | 5.4m/s | 0°C | 0% | 0hPa | 0V | 00:00:00 | 00:00:00 | 00:00:00 | |
| SP6BVK | 2026-09-01 00:38:01 | 51.43334 | 17.75944 | 55° | 26km/h | 26042m | 5.4m/s | 0°C | 0% | 0hPa | 0V | 00:00:00 | 00:00:00 | 00:00:00 | |
| SQ6EMJ | 2026-09-01 00:38:00 | 51.43332 | 17.75935 | 83° | 26km/h | 26033m | 7.4m/s | 0°C | 0% | 0hPa | 0V | 00:00:00 | 00:00:00 | 00:00:00 | |
| KRY50SP | 2026-09-01 00:37:59 | 51.43333 | 17.75926 | 99° | 24km/h | 26023m | 7.6m/s | 0°C | 0% | 0hPa | 0V | 00:00:00 | 00:00:00 | 00:00:00 | |
| SQ6EMJ | 2026-09-01 00:37:55 | 51.43328 | 17.75917 | 340° | 7km/h | 25998m | 2.3m/s | 0°C | 0% | 0hPa | 0V | 00:00:00 | 00:00:00 | 00:00:00 | |
| SQ6EMJ | 2026-09-01 00:37:49 | 51.43322 | 17.75880 | 332° | 15km/h | 25965m | 4.4m/s | 0°C | 0% | 0hPa | 0V | 00:00:00 | 00:00:00 | 00:00:00 | |
| PETON7-10 | 2026-09-01 00:37:43 | 51.43316 | 17.75865 | 41° | 18km/h | 25946m | 6.5m/s | 0°C | 0% | 0hPa | 0V | 00:00:00 | 00:00:00 | 00:00:00 | |
| SQ6EMJ | 2026-09-01 00:37:42 | 51.43312 | 17.75860 | 17° | 24km/h | 25941m | 7.0m/s | 0°C | 0% | 0hPa | 0V | 00:00:00 | 00:00:00 | 00:00:00 | |
| OE5DRO-10 | 2026-09-01 00:37:41 | 51.43308 | 17.75858 | 195° | 15km/h | 25921m | 7.1m/s | 0°C | 0% | 0hPa | 0V | 00:00:00 | 00:00:00 | 00:00:00 | |
| SP6BVK | 2026-09-01 00:37:40 | 51.43308 | 17.75859 | 195° | 15km/h | 25921m | 7.2m/s | 0°C | 0% | 0hPa | 0V | 00:00:00 | 00:00:00 | 00:00:00 | |
| SQ6EMJ | 2026-09-01 00:37:35 | 51.43304 | 17.75845 | 265° | 24km/h | 25885m | 3.1m/s | 0°C | 0% | 0hPa | 0V | 00:00:00 | 00:00:00 | 00:00:00 | |
| SQ6EMJ | 2026-09-01 00:37:27 | 51.43309 | 17.75859 | 28° | 20km/h | 25842m | 5.2m/s | 0°C | 0% | 0hPa | 0V | 00:00:00 | 00:00:00 | 00:00:00 | |
| PETON7-10 | 2026-09-01 00:37:26 | 51.43307 | 17.75857 | 51° | 13km/h | 25834m | 5.9m/s | 0°C | 0% | 0hPa | 0V | 00:00:00 | 00:00:00 | 00:00:00 | |
| SP3BTT-10 | 2026-09-01 00:37:25 | 51.43308 | 17.75858 | 118° | 16km/h | 25825m | 5.6m/s | 0°C | 0% | 0hPa | 0V | 00:00:00 | 00:00:00 | 00:00:00 | |
| OE5DRO-10 | 2026-09-01 00:37:22 | 51.43313 | 17.75866 | 138° | 20km/h | 25810m | 6.0m/s | 0°C | 0% | 0hPa | 0V | 00:00:00 | 00:00:00 | 00:00:00 | |
| SQ6EMJ | 2026-09-01 00:37:21 | 51.43314 | 17.75865 | 131° | 9km/h | 25801m | 6.0m/s | 0°C | 0% | 0hPa | 0V | 00:00:00 | 00:00:00 | 00:00:00 | |
| SP6BVK | 2026-09-01 00:37:18 | 51.43317 | 17.75850 | 80° | 20km/h | 25785m | 3.9m/s | 0°C | 0% | 0hPa | 0V | 00:00:00 | 00:00:00 | 00:00:00 | |
| SQ6EMJ | 2026-09-01 00:37:16 | 51.43311 | 17.75844 | 354° | 16km/h | 25771m | 4.6m/s | 0°C | 0% | 0hPa | 0V | 00:00:00 | 00:00:00 | 00:00:00 | |
| PETON7-10 | 2026-09-01 00:37:11 | 51.43315 | 17.75827 | 105° | 20km/h | 25741m | 4.4m/s | 0°C | 0% | 0hPa | 0V | 00:00:00 | 00:00:00 | 00:00:00 | |
| SQ6EMJ | 2026-09-01 00:37:09 | 51.43306 | 17.75806 | 15° | 31km/h | 25727m | 4.4m/s | 0°C | 0% | 0hPa | 0V | 00:00:00 | 00:00:00 | 00:00:00 | |
| SQ6EMJ | 2026-09-01 00:37:04 | 51.43304 | 17.75802 | 132° | 22km/h | 25699m | 5.5m/s | 0°C | 0% | 0hPa | 0V | 00:00:00 | 00:00:00 | 00:00:00 | |
| OE5DRO-10 | 2026-09-01 00:37:03 | 51.43306 | 17.75795 | 84° | 16km/h | 25693m | 6.4m/s | 0°C | 0% | 0hPa | 0V | 00:00:00 | 00:00:00 | 00:00:00 | |
| SQ6EMJ | 2026-09-01 00:36:59 | 51.43291 | 17.75779 | 308° | 5km/h | 25667m | 6.4m/s | 0°C | 0% | 0hPa | 0V | 00:00:00 | 00:00:00 | 00:00:00 | |
| SP6BVK | 2026-09-01 00:36:56 | 51.43288 | 17.75777 | 42° | 16km/h | 25646m | 6.1m/s | 0°C | 0% | 0hPa | 0V | 00:00:00 | 00:00:00 | 00:00:00 | |
| SQ6EMJ | 2026-09-01 00:36:53 | 51.43281 | 17.75751 | 76° | 20km/h | 25630m | 3.4m/s | 0°C | 0% | 0hPa | 0V | 00:00:00 | 00:00:00 | 00:00:00 | |
| SQ6EMJ | 2026-09-01 00:36:47 | 51.43255 | 17.75732 | 53° | 13km/h | 25613m | 8.8m/s | 0°C | 0% | 0hPa | 0V | 00:00:00 | 00:00:00 | 00:00:00 | |
| OE5DRO-10 | 2026-09-01 00:36:42 | 51.43246 | 17.75703 | 349° | 24km/h | 25573m | 5.2m/s | 0°C | 0% | 0hPa | 0V | 00:00:00 | 00:00:00 | 00:00:00 | |
| SP3BTT-10 | 2026-09-01 00:36:40 | 51.43236 | 17.75704 | 42° | 20km/h | 25558m | 6.1m/s | 0°C | 0% | 0hPa | 0V | 00:00:00 | 00:00:00 | 00:00:00 | |
| KRY50SP | 2026-09-01 00:36:39 | 51.43234 | 17.75699 | 62° | 18km/h | 25550m | 5.7m/s | 0°C | 0% | 0hPa | 0V | 00:00:00 | 00:00:00 | 00:00:00 | |
| SQ6EMJ | 2026-09-01 00:36:37 | 51.43229 | 17.75673 | 26° | 22km/h | 25532m | 4.1m/s | 0°C | 0% | 0hPa | 0V | 00:00:00 | 00:00:00 | 00:00:00 | |
| SP6BVK | 2026-09-01 00:36:32 | 51.43208 | 17.75672 | 37° | 11km/h | 25515m | 2.8m/s | 0°C | 0% | 0hPa | 0V | 00:00:00 | 00:00:00 | 00:00:00 | |
| SQ6EMJ | 2026-09-01 00:36:30 | 51.43202 | 17.75661 | 42° | 27km/h | 25510m | 5.3m/s | 0°C | 0% | 0hPa | 0V | 00:00:00 | 00:00:00 | 00:00:00 | |
| SQ6EMJ | 2026-09-01 00:36:25 | 51.43182 | 17.75651 | 233° | 4km/h | 25479m | 5.3m/s | 0°C | 0% | 0hPa | 0V | 00:00:00 | 00:00:00 | 00:00:00 | |
| OE5DRO-10 | 2026-09-01 00:36:22 | 51.43177 | 17.75657 | 13° | 18km/h | 25465m | 4.1m/s | 0°C | 0% | 0hPa | 0V | 00:00:00 | 00:00:00 | 00:00:00 | |
| SQ6EMJ | 2026-09-01 00:36:20 | 51.43163 | 17.75648 | 26° | 26km/h | 25463m | 3.1m/s | 0°C | 0% | 0hPa | 0V | 00:00:00 | 00:00:00 | 00:00:00 | |
| PETON7-10 | 2026-09-01 00:36:15 | 51.43167 | 17.75652 | 349° | 18km/h | 25433m | 6.0m/s | 0°C | 0% | 0hPa | 0V | 00:00:00 | 00:00:00 | 00:00:00 | |
| SQ6EMJ | 2026-09-01 00:36:14 | 51.43146 | 17.75654 | 361° | 18km/h | 25428m | 6.5m/s | 0°C | 0% | 0hPa | 0V | 00:00:00 | 00:00:00 | 00:00:00 | |
| SP6BVK | 2026-09-01 00:36:11 | 51.43141 | 17.75655 | 329° | 7km/h | 25404m | 4.8m/s | 0°C | 0% | 0hPa | 0V | 00:00:00 | 00:00:00 | 00:00:00 | |
| KRY50SP | 2026-09-01 00:36:10 | 51.43138 | 17.75657 | 343° | 15km/h | 25400m | 5.2m/s | 0°C | 0% | 0hPa | 0V | 00:00:00 | 00:00:00 | 00:00:00 | |
| SQ6EMJ | 2026-09-01 00:36:08 | 51.43128 | 17.75660 | 345° | 20km/h | 25390m | 3.6m/s | 0°C | 0% | 0hPa | 0V | 00:00:00 | 00:00:00 | 00:00:00 | |
| SQ6EMJ | 2026-09-01 00:36:03 | 51.43118 | 17.75674 | 329° | 20km/h | 25368m | 9.0m/s | 0°C | 0% | 0hPa | 0V | 00:00:00 | 00:00:00 | 00:00:00 | |
| OE5DRO-10 | 2026-09-01 00:36:02 | 51.43106 | 17.75679 | 347° | 22km/h | 25353m | 6.6m/s | 0°C | 0% | 0hPa | 0V | 00:00:00 | 00:00:00 | 00:00:00 | |
| SP4MAZ | 2026-09-01 00:35:59 | 51.43101 | 17.75688 | 294° | 11km/h | 25334m | 6.6m/s | 0°C | 0% | 0hPa | 0V | 00:00:00 | 00:00:00 | 00:00:00 | |
| SQ6EMJ | 2026-09-01 00:35:58 | 51.43101 | 17.75692 | 298° | 7km/h | 25327m | 7.1m/s | 0°C | 0% | 0hPa | 0V | 00:00:00 | 00:00:00 | 00:00:00 | |
| SQ6EMJ | 2026-09-01 00:35:52 | 51.43078 | 17.75703 | 241° | 7km/h | 25294m | 5.6m/s | 0°C | 0% | 0hPa | 0V | 00:00:00 | 00:00:00 | 00:00:00 | |
| KRY50SP | 2026-09-01 00:35:51 | 51.43078 | 17.75706 | 296° | 11km/h | 25291m | 6.1m/s | 0°C | 0% | 0hPa | 0V | 00:00:00 | 00:00:00 | 00:00:00 | |
| SQ6EMJ | 2026-09-01 00:35:46 | 51.43055 | 17.75727 | 302° | 7km/h | 25262m | 5.9m/s | 0°C | 0% | 0hPa | 0V | 00:00:00 | 00:00:00 | 00:00:00 | |
| SP3BTT-10 | 2026-09-01 00:35:40 | 51.43030 | 17.75748 | 322° | 20km/h | 25227m | 5.3m/s | 0°C | 0% | 0hPa | 0V | 00:00:00 | 00:00:00 | 00:00:00 | |
| PETON7-10 | 2026-09-01 00:35:39 | 51.43026 | 17.75754 | 302° | 24km/h | 25218m | 4.2m/s | 0°C | 0% | 0hPa | 0V | 00:00:00 | 00:00:00 | 00:00:00 | |
| KRY50SP | 2026-09-01 00:35:38 | 51.43025 | 17.75759 | 288° | 9km/h | 25212m | 4.6m/s | 0°C | 0% | 0hPa | 0V | 00:00:00 | 00:00:00 | 00:00:00 | |
| SQ6EMJ | 2026-09-01 00:35:35 | 51.43017 | 17.75758 | 359° | 26km/h | 25193m | 5.4m/s | 0°C | 0% | 0hPa | 0V | 00:00:00 | 00:00:00 | 00:00:00 | |
| SQ6EMJ | 2026-09-01 00:35:28 | 51.42990 | 17.75783 | 337° | 18km/h | 25132m | 6.2m/s | 0°C | 0% | 0hPa | 0V | 00:00:00 | 00:00:00 | 00:00:00 | |
| KRY50SP | 2026-09-01 00:35:26 | 51.42981 | 17.75794 | 306° | 26km/h | 25120m | -3.6m/s | 0°C | 0% | 0hPa | 0V | 00:00:00 | 00:00:00 | 00:00:00 | |
| OE5DRO-10 | 2026-09-01 00:35:22 | 51.42937 | 17.75819 | 300° | 20km/h | 25118m | 5.3m/s | 0°C | 0% | 0hPa | 0V | 00:00:00 | 00:00:00 | 00:00:00 | |
| KRY50SP | 2026-09-01 00:35:18 | 51.42934 | 17.75829 | 296° | 24km/h | 25107m | 3.9m/s | 0°C | 0% | 0hPa | 0V | 00:00:00 | 00:00:00 | 00:00:00 | |
| PETON7-10 | 2026-09-01 00:35:17 | 51.42930 | 17.75833 | 293° | 24km/h | 25098m | 5.8m/s | 0°C | 0% | 0hPa | 0V | 00:00:00 | 00:00:00 | 00:00:00 | |
| SQ6EMJ | 2026-09-01 00:35:15 | 51.42927 | 17.75834 | 349° | 16km/h | 25090m | 3.4m/s | 0°C | 0% | 0hPa | 0V | 00:00:00 | 00:00:00 | 00:00:00 | |
| SP6BVK | 2026-09-01 00:35:13 | 51.42919 | 17.75842 | 308° | 31km/h | 25081m | 5.1m/s | 0°C | 0% | 0hPa | 0V | 00:00:00 | 00:00:00 | 00:00:00 | |
| SQ6EMJ | 2026-09-01 00:35:09 | 51.42900 | 17.75870 | 15° | 22km/h | 25065m | 4.9m/s | 0°C | 0% | 0hPa | 0V | 00:00:00 | 00:00:00 | 00:00:00 | |
| SQ6EMJ | 2026-09-01 00:35:04 | 51.42887 | 17.75899 | 275° | 26km/h | 25040m | 5.8m/s | 0°C | 0% | 0hPa | 0V | 00:00:00 | 00:00:00 | 00:00:00 | |
| OE5DRO-10 | 2026-09-01 00:35:01 | 51.42863 | 17.75907 | 329° | 24km/h | 25016m | 5.5m/s | 0°C | 0% | 0hPa | 0V | 00:00:00 | 00:00:00 | 00:00:00 | |
| SQ6EMJ | 2026-09-01 00:34:58 | 51.42856 | 17.75913 | 311° | 24km/h | 25010m | 6.2m/s | 0°C | 0% | 0hPa | 0V | 00:00:00 | 00:00:00 | 00:00:00 | |
| PETON7-10 | 2026-09-01 00:34:57 | 51.42853 | 17.75921 | 283° | 26km/h | 25004m | 7.6m/s | 0°C | 0% | 0hPa | 0V | 00:00:00 | 00:00:00 | 00:00:00 | |
| SP3BTT-10 | 2026-09-01 00:34:55 | 51.42853 | 17.75945 | 320° | 24km/h | 24984m | 7.8m/s | 0°C | 0% | 0hPa | 0V | 00:00:00 | 00:00:00 | 00:00:00 | |
| KRY50SP | 2026-09-01 00:34:53 | 51.42847 | 17.75950 | 354° | 27km/h | 24977m | 5.9m/s | 0°C | 0% | 0hPa | 0V | 00:00:00 | 00:00:00 | 00:00:00 | |
| SQ6EMJ | 2026-09-01 00:34:52 | 51.42840 | 17.75950 | 10° | 26km/h | 24970m | 6.9m/s | 0°C | 0% | 0hPa | 0V | 00:00:00 | 00:00:00 | 00:00:00 | |
| SQ6EMJ | 2026-09-01 00:34:47 | 51.42812 | 17.75954 | 276° | 27km/h | 24946m | 6.1m/s | 0°C | 0% | 0hPa | 0V | 00:00:00 | 00:00:00 | 00:00:00 | |
| OE5DRO-10 | 2026-09-01 00:34:43 | 51.42789 | 17.75953 | 319° | 22km/h | 24904m | 8.3m/s | 0°C | 0% | 0hPa | 0V | 00:00:00 | 00:00:00 | 00:00:00 | |
| PETON7-10 | 2026-09-01 00:34:41 | 51.42789 | 17.75953 | 319° | 22km/h | 24904m | 8.3m/s | 0°C | 0% | 0hPa | 0V | 00:00:00 | 00:00:00 | 00:00:00 | |
| SQ6EMJ | 2026-09-01 00:34:31 | 51.42742 | 17.75975 | 346° | 18km/h | 24835m | 7.9m/s | 0°C | 0% | 0hPa | 0V | 00:00:00 | 00:00:00 | 00:00:00 | |
| SQ6EMJ | 2026-09-01 00:34:25 | 51.42708 | 17.75994 | 4° | 11km/h | 24806m | 1.3m/s | 0°C | 0% | 0hPa | 0V | 00:00:00 | 00:00:00 | 00:00:00 | |
| SQ6EMJ | 2026-09-01 00:34:17 | 51.42667 | 17.76013 | 16° | 26km/h | 24776m | 5.6m/s | 0°C | 0% | 0hPa | 0V | 00:00:00 | 00:00:00 | 00:00:00 | |
| SQ6EMJ | 2026-09-01 00:34:11 | 51.42638 | 17.76040 | 340° | 22km/h | 24748m | 8.4m/s | 0°C | 0% | 0hPa | 0V | 00:00:00 | 00:00:00 | 00:00:00 | |
| PETON7-10 | 2026-09-01 00:34:10 | 51.42631 | 17.76043 | 348° | 24km/h | 24743m | 7.3m/s | 0°C | 0% | 0hPa | 0V | 00:00:00 | 00:00:00 | 00:00:00 | |
| SQ6EMJ | 2026-09-01 00:34:06 | 51.42597 | 17.76066 | 330° | 33km/h | 24715m | 6.2m/s | 0°C | 0% | 0hPa | 0V | 00:00:00 | 00:00:00 | 00:00:00 | |
| SQ6EMJ | 2026-09-01 00:34:00 | 51.42564 | 17.76100 | 324° | 31km/h | 24681m | 5.6m/s | 0°C | 0% | 0hPa | 0V | 00:00:00 | 00:00:00 | 00:00:00 | |
| KRY50SP | 2026-09-01 00:33:56 | 51.42540 | 17.76115 | 304° | 16km/h | 24662m | 6.4m/s | 0°C | 0% | 0hPa | 0V | 00:00:00 | 00:00:00 | 00:00:00 | |
| SP3BTT-10 | 2026-09-01 00:33:54 | 51.42536 | 17.76132 | 304° | 27km/h | 24649m | 5.5m/s | 0°C | 0% | 0hPa | 0V | 00:00:00 | 00:00:00 | 00:00:00 | |
| OE5DRO-10 | 2026-09-01 00:33:53 | 51.42528 | 17.76150 | 324° | 26km/h | 24638m | 6.9m/s | 0°C | 0% | 0hPa | 0V | 00:00:00 | 00:00:00 | 00:00:00 | |
| PETON7-10 | 2026-09-01 00:33:50 | 51.42518 | 17.76168 | 312° | 27km/h | 24632m | 5.3m/s | 0°C | 0% | 0hPa | 0V | 00:00:00 | 00:00:00 | 00:00:00 | |
| SP4MAZ | 2026-09-01 00:33:48 | 51.42510 | 17.76195 | 287° | 40km/h | 24623m | 6.1m/s | 0°C | 0% | 0hPa | 0V | 00:00:00 | 00:00:00 | 00:00:00 | |
| SP6BVK | 2026-09-01 00:33:44 | 51.42504 | 17.76228 | 325° | 15km/h | 24608m | 4.1m/s | 0°C | 0% | 0hPa | 0V | 00:00:00 | 00:00:00 | 00:00:00 | |
| SQ6EMJ | 2026-09-01 00:33:43 | 51.42500 | 17.76233 | 314° | 24km/h | 24606m | 6.4m/s | 0°C | 0% | 0hPa | 0V | 00:00:00 | 00:00:00 | 00:00:00 | |
| KRY50SP | 2026-09-01 00:33:40 | 51.42486 | 17.76266 | 291° | 22km/h | 24584m | 7.6m/s | 0°C | 0% | 0hPa | 0V | 00:00:00 | 00:00:00 | 00:00:00 | |
| SQ6EMJ | 2026-09-01 00:33:38 | 51.42484 | 17.76282 | 305° | 16km/h | 24567m | 8.8m/s | 0°C | 0% | 0hPa | 0V | 00:00:00 | 00:00:00 | 00:00:00 | |
| OE5DRO-10 | 2026-09-01 00:33:33 | 51.42476 | 17.76334 | 264° | 27km/h | 24543m | 8.0m/s | 0°C | 0% | 0hPa | 0V | 00:00:00 | 00:00:00 | 00:00:00 | |
| SQ6EMJ | 2026-09-01 00:33:32 | 51.42476 | 17.76334 | 264° | 27km/h | 24543m | 8.0m/s | 0°C | 0% | 0hPa | 0V | 00:00:00 | 00:00:00 | 00:00:00 | |
| KRY50SP | 2026-09-01 00:33:27 | 51.42476 | 17.76382 | 224° | 16km/h | 24497m | 7.9m/s | 0°C | 0% | 0hPa | 0V | 00:00:00 | 00:00:00 | 00:00:00 | |
| PETON7-10 | 2026-09-01 00:33:26 | 51.42480 | 17.76389 | 285° | 27km/h | 24493m | 11.4m/s | 0°C | 0% | 0hPa | 0V | 00:00:00 | 00:00:00 | 00:00:00 | |
| KRY50SP | 2026-09-01 00:33:22 | 51.42482 | 17.76438 | 263° | 44km/h | 24448m | 8.2m/s | 0°C | 0% | 0hPa | 0V | 00:00:00 | 00:00:00 | 00:00:00 | |
| SQ6EMJ | 2026-09-01 00:33:17 | 51.42495 | 17.76502 | 265° | 26km/h | 24409m | 6.7m/s | 0°C | 0% | 0hPa | 0V | 00:00:00 | 00:00:00 | 00:00:00 | |
| SP3BTT-10 | 2026-09-01 00:33:09 | 51.42513 | 17.76613 | 191° | 22km/h | 24322m | -2.3m/s | 0°C | 0% | 0hPa | 0V | 00:00:00 | 00:00:00 | 00:00:00 | |
| OE5DRO-10 | 2026-09-01 00:33:08 | 51.42518 | 17.76608 | 27° | 24km/h | 24332m | -13.2m/s | 0°C | 0% | 0hPa | 0V | 00:00:00 | 00:00:00 | 00:00:00 | |
| SQ6EMJ | 2026-09-01 00:33:05 | 51.42514 | 17.76608 | 288° | 26km/h | 24350m | -1.3m/s | 0°C | 0% | 0hPa | 0V | 00:00:00 | 00:00:00 | 00:00:00 | |
| KRY50SP | 2026-09-01 00:33:04 | 51.42511 | 17.76617 | 13° | 47km/h | 24352m | -3.0m/s | 0°C | 0% | 0hPa | 0V | 00:00:00 | 00:00:00 | 00:00:00 | |
| SQ6EMJ | 2026-09-01 00:32:59 | 51.42508 | 17.76629 | 266° | 7km/h | 24347m | 6.2m/s | 0°C | 0% | 0hPa | 0V | 00:00:00 | 00:00:00 | 00:00:00 | |
| SP6BVK | 2026-09-01 00:32:58 | 51.42507 | 17.76635 | 285° | 20km/h | 24342m | 5.7m/s | 0°C | 0% | 0hPa | 0V | 00:00:00 | 00:00:00 | 00:00:00 | |
| PETON7-10 | 2026-09-01 00:32:54 | 51.42512 | 17.76672 | 226° | 15km/h | 24319m | 4.7m/s | 0°C | 0% | 0hPa | 0V | 00:00:00 | 00:00:00 | 00:00:00 | |
| SQ6EMJ | 2026-09-01 00:32:53 | 51.42513 | 17.76679 | 266° | 7km/h | 24312m | 5.9m/s | 0°C | 0% | 0hPa | 0V | 00:00:00 | 00:00:00 | 00:00:00 | |
| SQ6EMJ | 2026-09-01 00:32:48 | 51.42517 | 17.76698 | 229° | 11km/h | 24283m | 4.9m/s | 0°C | 0% | 0hPa | 0V | 00:00:00 | 00:00:00 | 00:00:00 | |
| KRY50SP | 2026-09-01 00:32:46 | 51.42522 | 17.76710 | 250° | 11km/h | 24261m | 5.2m/s | 0°C | 0% | 0hPa | 0V | 00:00:00 | 00:00:00 | 00:00:00 | |
| SQ6EMJ | 2026-09-01 00:32:42 | 51.42542 | 17.76730 | 218° | 24km/h | 24230m | 6.1m/s | 0°C | 0% | 0hPa | 0V | 00:00:00 | 00:00:00 | 00:00:00 | |
| PETON7-10 | 2026-09-01 00:32:39 | 51.42547 | 17.76747 | 258° | 15km/h | 24212m | 3.8m/s | 0°C | 0% | 0hPa | 0V | 00:00:00 | 00:00:00 | 00:00:00 | |
| SQ6EMJ | 2026-09-01 00:32:36 | 51.42563 | 17.76766 | 132° | 27km/h | 24184m | -1.9m/s | 0°C | 0% | 0hPa | 0V | 00:00:00 | 00:00:00 | 00:00:00 | |
| KRY50SP | 2026-09-01 00:32:32 | 51.42575 | 17.76756 | 106° | 4km/h | 24176m | 1.5m/s | 0°C | 0% | 0hPa | 0V | 00:00:00 | 00:00:00 | 00:00:00 | |
| SQ9EZE-15 | 2026-09-01 00:32:30 | 51.42577 | 17.76751 | 203° | 15km/h | 24181m | 6.3m/s | 0°C | 0% | 0hPa | 0V | 00:00:00 | 00:00:00 | 00:00:00 | |
| SP6BVK | 2026-09-01 00:32:29 | 51.42581 | 17.76752 | 191° | 15km/h | 24174m | 5.5m/s | 0°C | 0% | 0hPa | 0V | 00:00:00 | 00:00:00 | 00:00:00 | |
| SQ6EMJ | 2026-09-01 00:32:24 | 51.42599 | 17.76747 | 153° | 22km/h | 24134m | 6.1m/s | 0°C | 0% | 0hPa | 0V | 00:00:00 | 00:00:00 | 00:00:00 | |
| PETON7-10 | 2026-09-01 00:32:23 | 51.42602 | 17.76744 | 164° | 20km/h | 24127m | 5.8m/s | 0°C | 0% | 0hPa | 0V | 00:00:00 | 00:00:00 | 00:00:00 | |
| SQ6EMJ | 2026-09-01 00:32:18 | 51.42608 | 17.76736 | 165° | 29km/h | 24107m | 5.2m/s | 0°C | 0% | 0hPa | 0V | 00:00:00 | 00:00:00 | 00:00:00 | |
| SQ6EMJ | 2026-09-01 00:32:14 | 51.42626 | 17.76740 | 255° | 18km/h | 24088m | 9.1m/s | 0°C | 0% | 0hPa | 0V | 00:00:00 | 00:00:00 | 00:00:00 | |
| SQ9EZE-15 | 2026-09-01 00:32:10 | 51.42640 | 17.76745 | 185° | 26km/h | 24066m | 5.5m/s | 0°C | 0% | 0hPa | 0V | 00:00:00 | 00:00:00 | 00:00:00 | |
| PETON7-10 | 2026-09-01 00:32:07 | 51.42654 | 17.76743 | 185° | 22km/h | 24051m | 5.7m/s | 0°C | 0% | 0hPa | 0V | 00:00:00 | 00:00:00 | 00:00:00 | |
| SQ6EMJ | 2026-09-01 00:32:02 | 51.42670 | 17.76745 | 42° | 27km/h | 24016m | 5.1m/s | 0°C | 0% | 0hPa | 0V | 00:00:00 | 00:00:00 | 00:00:00 | |
| SP6BVK | 2026-09-01 00:32:00 | 51.42671 | 17.76732 | 136° | 20km/h | 24007m | 6.7m/s | 0°C | 0% | 0hPa | 0V | 00:00:00 | 00:00:00 | 00:00:00 | |
| SQ6EMJ | 2026-09-01 00:31:57 | 51.42698 | 17.76732 | 208° | 9km/h | 23981m | 7.0m/s | 0°C | 0% | 0hPa | 0V | 00:00:00 | 00:00:00 | 00:00:00 | |
| SP4MAZ | 2026-09-01 00:31:55 | 51.42698 | 17.76732 | 39° | 15km/h | 23972m | 6.7m/s | 0°C | 0% | 0hPa | 0V | 00:00:00 | 00:00:00 | 00:00:00 | |
| PETON7-10 | 2026-09-01 00:31:51 | 51.42706 | 17.76717 | 190° | 16km/h | 23942m | 5.4m/s | 0°C | 0% | 0hPa | 0V | 00:00:00 | 00:00:00 | 00:00:00 | |
| SQ6EMJ | 2026-09-01 00:31:45 | 51.42725 | 17.76714 | 140° | 26km/h | 23906m | 4.9m/s | 0°C | 0% | 0hPa | 0V | 00:00:00 | 00:00:00 | 00:00:00 | |
| SQ6EMJ | 2026-09-01 00:31:40 | 51.42731 | 17.76705 | 155° | 9km/h | 23873m | 6.2m/s | 0°C | 0% | 0hPa | 0V | 00:00:00 | 00:00:00 | 00:00:00 | |
| PETON7-10 | 2026-09-01 00:31:35 | 51.42745 | 17.76683 | 36° | 11km/h | 23847m | 2.9m/s | 0°C | 0% | 0hPa | 0V | 00:00:00 | 00:00:00 | 00:00:00 | |
| KRY50SP | 2026-09-01 00:31:30 | 51.42745 | 17.76679 | 62° | 9km/h | 23828m | 3.7m/s | 0°C | 0% | 0hPa | 0V | 00:00:00 | 00:00:00 | 00:00:00 | |
| SQ6EMJ | 2026-09-01 00:31:24 | 51.42749 | 17.76659 | 304° | 7km/h | 23814m | 7.7m/s | 0°C | 0% | 0hPa | 0V | 00:00:00 | 00:00:00 | 00:00:00 | |
| SP3BTT-10 | 2026-09-01 00:31:22 | 51.42746 | 17.76658 | 86° | 15km/h | 23800m | 7.0m/s | 0°C | 0% | 0hPa | 0V | 00:00:00 | 00:00:00 | 00:00:00 | |
| PETON7-10 | 2026-09-01 00:31:19 | 51.42747 | 17.76639 | 42° | 11km/h | 23779m | 7.0m/s | 0°C | 0% | 0hPa | 0V | 00:00:00 | 00:00:00 | 00:00:00 | |
| SQ6EMJ | 2026-09-01 00:31:13 | 51.42742 | 17.76638 | 59° | 7km/h | 23748m | 3.8m/s | 0°C | 0% | 0hPa | 0V | 00:00:00 | 00:00:00 | 00:00:00 | |
| OE5DRO-10 | 2026-09-01 00:31:11 | 51.42732 | 17.76630 | 134° | 9km/h | 23733m | 8.5m/s | 0°C | 0% | 0hPa | 0V | 00:00:00 | 00:00:00 | 00:00:00 | |
| SQ6EMJ | 2026-09-01 00:31:07 | 51.42736 | 17.76629 | 255° | 9km/h | 23719m | 7.3m/s | 0°C | 0% | 0hPa | 0V | 00:00:00 | 00:00:00 | 00:00:00 | |
| PETON7-10 | 2026-09-01 00:31:02 | 51.42724 | 17.76638 | 98° | 11km/h | 23689m | 6.5m/s | 0°C | 0% | 0hPa | 0V | 00:00:00 | 00:00:00 | 00:00:00 | |
| SQ6EMJ | 2026-09-01 00:31:01 | 51.42725 | 17.76636 | 117° | 9km/h | 23684m | 6.4m/s | 0°C | 0% | 0hPa | 0V | 00:00:00 | 00:00:00 | 00:00:00 | |
| SQ6EMJ | 2026-09-01 00:30:55 | 51.42732 | 17.76644 | 0° | 0km/h | 23637m | 5.1m/s | 0°C | 0% | 0hPa | 0V | 00:00:00 | 00:00:00 | 00:00:00 | |
| SP6BVK | 2026-09-01 00:30:50 | 51.42732 | 17.76634 | 166° | 16km/h | 23599m | 5.3m/s | 0°C | 0% | 0hPa | 0V | 00:00:00 | 00:00:00 | 00:00:00 | |
| SQ6EMJ | 2026-09-01 00:30:49 | 51.42738 | 17.76636 | 199° | 13km/h | 23591m | 6.5m/s | 0°C | 0% | 0hPa | 0V | 00:00:00 | 00:00:00 | 00:00:00 | |
| PETON7-10 | 2026-09-01 00:30:47 | 51.42740 | 17.76645 | 268° | 9km/h | 23575m | 3.4m/s | 0°C | 0% | 0hPa | 0V | 00:00:00 | 00:00:00 | 00:00:00 | |
| SQ6EMJ | 2026-09-01 00:30:44 | 51.42738 | 17.76636 | 105° | 22km/h | 23554m | 5.1m/s | 0°C | 0% | 0hPa | 0V | 00:00:00 | 00:00:00 | 00:00:00 | |
| SQ6EMJ | 2026-09-01 00:30:38 | 51.42744 | 17.76621 | 63° | 9km/h | 23521m | 3.6m/s | 0°C | 0% | 0hPa | 0V | 00:00:00 | 00:00:00 | 00:00:00 | |
| SQ6EMJ | 2026-09-01 00:30:32 | 51.42747 | 17.76598 | 122° | 16km/h | 23483m | 2.7m/s | 0°C | 0% | 0hPa | 0V | 00:00:00 | 00:00:00 | 00:00:00 | |
| PETON7-10 | 2026-09-01 00:30:31 | 51.42747 | 17.76595 | 18° | 15km/h | 23480m | 3.9m/s | 0°C | 0% | 0hPa | 0V | 00:00:00 | 00:00:00 | 00:00:00 | |
| SP6BVK | 2026-09-01 00:30:29 | 51.42740 | 17.76595 | 355° | 13km/h | 23475m | 2.0m/s | 0°C | 0% | 0hPa | 0V | 00:00:00 | 00:00:00 | 00:00:00 | |
| SQ6EMJ | 2026-09-01 00:30:27 | 51.42739 | 17.76588 | 102° | 13km/h | 23467m | 7.6m/s | 0°C | 0% | 0hPa | 0V | 00:00:00 | 00:00:00 | 00:00:00 | |
| SP3BTT-10 | 2026-09-01 00:30:22 | 51.42745 | 17.76565 | 29° | 13km/h | 23439m | 3.7m/s | 0°C | 0% | 0hPa | 0V | 00:00:00 | 00:00:00 | 00:00:00 | |
| SQ6EMJ | 2026-09-01 00:30:21 | 51.42744 | 17.76560 | 73° | 11km/h | 23436m | 5.3m/s | 0°C | 0% | 0hPa | 0V | 00:00:00 | 00:00:00 | 00:00:00 | |
| SQ6EMJ | 2026-09-01 00:30:18 | 51.42746 | 17.76542 | 335° | 16km/h | 23420m | 5.1m/s | 0°C | 0% | 0hPa | 0V | 00:00:00 | 00:00:00 | 00:00:00 | |
| PETON7-10 | 2026-09-01 00:30:14 | 51.42741 | 17.76537 | 269° | 11km/h | 23412m | 11.2m/s | 0°C | 0% | 0hPa | 0V | 00:00:00 | 00:00:00 | 00:00:00 | |
| SQ6EMJ | 2026-09-01 00:30:10 | 51.42732 | 17.76513 | 26° | 13km/h | 23391m | 7.3m/s | 0°C | 0% | 0hPa | 0V | 00:00:00 | 00:00:00 | 00:00:00 | |
| SP6BVK | 2026-09-01 00:30:07 | 51.42723 | 17.76509 | 66° | 15km/h | 23378m | 5.8m/s | 0°C | 0% | 0hPa | 0V | 00:00:00 | 00:00:00 | 00:00:00 | |
| SQ6EMJ | 2026-09-01 00:30:05 | 51.42719 | 17.76498 | 49° | 16km/h | 23368m | 5.9m/s | 0°C | 0% | 0hPa | 0V | 00:00:00 | 00:00:00 | 00:00:00 | |
| SQ6EMJ | 2026-09-01 00:29:59 | 51.42704 | 17.76484 | 350° | 13km/h | 23332m | 9.8m/s | 0°C | 0% | 0hPa | 0V | 00:00:00 | 00:00:00 | 00:00:00 | |
| PETON7-10 | 2026-09-01 00:29:56 | 51.42690 | 17.76481 | 36° | 13km/h | 23317m | 5.7m/s | 0°C | 0% | 0hPa | 0V | 00:00:00 | 00:00:00 | 00:00:00 | |
| SQ6EMJ | 2026-09-01 00:29:54 | 51.42686 | 17.76466 | 111° | 13km/h | 23310m | 6.7m/s | 0°C | 0% | 0hPa | 0V | 00:00:00 | 00:00:00 | 00:00:00 | |
| OE5DRO-10 | 2026-09-01 00:29:53 | 51.42684 | 17.76491 | 341° | 16km/h | 23268m | 2.9m/s | 0°C | 0% | 0hPa | 0V | 00:00:00 | 00:00:00 | 00:00:00 | |
| SQ6EMJ | 2026-09-01 00:29:48 | 51.42676 | 17.76495 | 109° | 5km/h | 23257m | 3.0m/s | 0°C | 0% | 0hPa | 0V | 00:00:00 | 00:00:00 | 00:00:00 | |
| SP6BVK | 2026-09-01 00:29:45 | 51.42671 | 17.76487 | 13° | 15km/h | 23245m | 6.3m/s | 0°C | 0% | 0hPa | 0V | 00:00:00 | 00:00:00 | 00:00:00 | |
| SQ6EMJ | 2026-09-01 00:29:43 | 51.42665 | 17.76486 | 19° | 11km/h | 23239m | 6.0m/s | 0°C | 0% | 0hPa | 0V | 00:00:00 | 00:00:00 | 00:00:00 | |
| SQ6EMJ | 2026-09-01 00:29:37 | 51.42641 | 17.76491 | 112° | 4km/h | 23218m | 8.8m/s | 0°C | 0% | 0hPa | 0V | 00:00:00 | 00:00:00 | 00:00:00 | |
| SP3BTT-10 | 2026-09-01 00:29:36 | 51.42640 | 17.76488 | 117° | 13km/h | 23211m | 6.1m/s | 0°C | 0% | 0hPa | 0V | 00:00:00 | 00:00:00 | 00:00:00 | |
| SQ6EMJ | 2026-09-01 00:29:31 | 51.42621 | 17.76497 | 308° | 5km/h | 23175m | 8.2m/s | 0°C | 0% | 0hPa | 0V | 00:00:00 | 00:00:00 | 00:00:00 | |
| SQ6EMJ | 2026-09-01 00:29:25 | 51.42611 | 17.76512 | 307° | 11km/h | 23140m | 6.3m/s | 0°C | 0% | 0hPa | 0V | 00:00:00 | 00:00:00 | 00:00:00 | |
| SP6BVK | 2026-09-01 00:29:24 | 51.42608 | 17.76516 | 305° | 16km/h | 23134m | 7.1m/s | 0°C | 0% | 0hPa | 0V | 00:00:00 | 00:00:00 | 00:00:00 | |
| SQ6EMJ | 2026-09-01 00:29:20 | 51.42603 | 17.76536 | 195° | 7km/h | 23107m | 5.9m/s | 0°C | 0% | 0hPa | 0V | 00:00:00 | 00:00:00 | 00:00:00 | |
| SQ6EMJ | 2026-09-01 00:29:14 | 51.42592 | 17.76555 | 234° | 9km/h | 23065m | 5.1m/s | 0°C | 0% | 0hPa | 0V | 00:00:00 | 00:00:00 | 00:00:00 | |
| OE5DRO-10 | 2026-09-01 00:29:13 | 51.42593 | 17.76559 | 331° | 15km/h | 23047m | 5.0m/s | 0°C | 0% | 0hPa | 0V | 00:00:00 | 00:00:00 | 00:00:00 | |
| SQ6EMJ | 2026-09-01 00:29:08 | 51.42583 | 17.76569 | 282° | 16km/h | 23032m | 3.6m/s | 0°C | 0% | 0hPa | 0V | 00:00:00 | 00:00:00 | 00:00:00 | |
| SQ6EMJ | 2026-09-01 00:29:02 | 51.42582 | 17.76595 | 286° | 9km/h | 23003m | 6.1m/s | 0°C | 0% | 0hPa | 0V | 00:00:00 | 00:00:00 | 00:00:00 | |
| SP6BVK | 2026-09-01 00:28:58 | 51.42584 | 17.76608 | 335° | 5km/h | 22983m | 5.6m/s | 0°C | 0% | 0hPa | 0V | 00:00:00 | 00:00:00 | 00:00:00 | |
| SQ6EMJ | 2026-09-01 00:28:57 | 51.42583 | 17.76612 | 286° | 9km/h | 22976m | 5.8m/s | 0°C | 0% | 0hPa | 0V | 00:00:00 | 00:00:00 | 00:00:00 | |
| SQ6EMJ | 2026-09-01 00:28:51 | 51.42591 | 17.76627 | 186° | 15km/h | 22924m | 4.8m/s | 0°C | 0% | 0hPa | 0V | 00:00:00 | 00:00:00 | 00:00:00 | |
| SQ6EMJ | 2026-09-01 00:28:45 | 51.42594 | 17.76628 | 313° | 7km/h | 22908m | 5.7m/s | 0°C | 0% | 0hPa | 0V | 00:00:00 | 00:00:00 | 00:00:00 | |
| SQ6EMJ | 2026-09-01 00:28:40 | 51.42603 | 17.76642 | 347° | 7km/h | 22873m | 7.4m/s | 0°C | 0% | 0hPa | 0V | 00:00:00 | 00:00:00 | 00:00:00 | |
| SP3BTT-10 | 2026-09-01 00:28:36 | 51.42602 | 17.76644 | 161° | 13km/h | 22858m | 4.1m/s | 0°C | 0% | 0hPa | 0V | 00:00:00 | 00:00:00 | 00:00:00 | |
| SQ6EMJ | 2026-09-01 00:28:35 | 51.42605 | 17.76640 | 126° | 9km/h | 22857m | 6.0m/s | 0°C | 0% | 0hPa | 0V | 00:00:00 | 00:00:00 | 00:00:00 | |
| SQ6EMJ | 2026-09-01 00:28:30 | 51.42611 | 17.76624 | 205° | 9km/h | 22828m | 3.7m/s | 0°C | 0% | 0hPa | 0V | 00:00:00 | 00:00:00 | 00:00:00 | |
| SQ6EMJ | 2026-09-01 00:28:24 | 51.42613 | 17.76606 | 165° | 18km/h | 22794m | 5.1m/s | 0°C | 0% | 0hPa | 0V | 00:00:00 | 00:00:00 | 00:00:00 | |
| SQ6EMJ | 2026-09-01 00:28:19 | 51.42610 | 17.76593 | 35° | 20km/h | 22771m | 3.8m/s | 0°C | 0% | 0hPa | 0V | 00:00:00 | 00:00:00 | 00:00:00 | |
| SP6BVK | 2026-09-01 00:28:14 | 51.42608 | 17.76569 | 75° | 18km/h | 22756m | 3.4m/s | 0°C | 0% | 0hPa | 0V | 00:00:00 | 00:00:00 | 00:00:00 | |
| SQ6EMJ | 2026-09-01 00:28:08 | 51.42602 | 17.76543 | 91° | 20km/h | 22723m | 4.2m/s | 0°C | 0% | 0hPa | 0V | 00:00:00 | 00:00:00 | 00:00:00 | |
| SQ6EMJ | 2026-09-01 00:28:03 | 51.42601 | 17.76540 | 40° | 20km/h | 22698m | 5.4m/s | 0°C | 0% | 0hPa | 0V | 00:00:00 | 00:00:00 | 00:00:00 | |
| SQ6EMJ | 2026-09-01 00:27:57 | 51.42583 | 17.76526 | 34° | 15km/h | 22662m | 6.3m/s | 0°C | 0% | 0hPa | 0V | 00:00:00 | 00:00:00 | 00:00:00 | |
| SP6BVK | 2026-09-01 00:27:52 | 51.42571 | 17.76518 | 17° | 24km/h | 22636m | 4.4m/s | 0°C | 0% | 0hPa | 0V | 00:00:00 | 00:00:00 | 00:00:00 | |
| SP3BTT-10 | 2026-09-01 00:27:51 | 51.42564 | 17.76514 | 25° | 18km/h | 22632m | 4.1m/s | 0°C | 0% | 0hPa | 0V | 00:00:00 | 00:00:00 | 00:00:00 | |
| SQ6EMJ | 2026-09-01 00:27:46 | 51.42550 | 17.76508 | 56° | 13km/h | 22611m | 6.5m/s | 0°C | 0% | 0hPa | 0V | 00:00:00 | 00:00:00 | 00:00:00 | |
| SQ6EMJ | 2026-09-01 00:27:40 | 51.42526 | 17.76497 | 359° | 20km/h | 22570m | 6.0m/s | 0°C | 0% | 0hPa | 0V | 00:00:00 | 00:00:00 | 00:00:00 | |
| PETON7-10 | 2026-09-01 00:27:38 | 51.42518 | 17.76489 | 43° | 15km/h | 22559m | 4.0m/s | 0°C | 0% | 0hPa | 0V | 00:00:00 | 00:00:00 | 00:00:00 | |
| SQ6EMJ | 2026-09-01 00:27:35 | 51.42506 | 17.76487 | 314° | 13km/h | 22545m | 3.9m/s | 0°C | 0% | 0hPa | 0V | 00:00:00 | 00:00:00 | 00:00:00 | |
| SQ6EMJ | 2026-09-01 00:27:29 | 51.42486 | 17.76485 | 337° | 22km/h | 22515m | 7.5m/s | 0°C | 0% | 0hPa | 0V | 00:00:00 | 00:00:00 | 00:00:00 | |
| SP6BVK | 2026-09-01 00:27:26 | 51.42480 | 17.76486 | 49° | 7km/h | 22492m | 5.5m/s | 0°C | 0% | 0hPa | 0V | 00:00:00 | 00:00:00 | 00:00:00 | |
| SQ6EMJ | 2026-09-01 00:27:23 | 51.42472 | 17.76486 | 351° | 15km/h | 22477m | 4.6m/s | 0°C | 0% | 0hPa | 0V | 00:00:00 | 00:00:00 | 00:00:00 | |
| PETON7-10 | 2026-09-01 00:27:20 | 51.42460 | 17.76484 | 355° | 18km/h | 22466m | 4.3m/s | 0°C | 0% | 0hPa | 0V | 00:00:00 | 00:00:00 | 00:00:00 | |
| SQ6EMJ | 2026-09-01 00:27:18 | 51.42450 | 17.76482 | 346° | 24km/h | 22464m | 3.6m/s | 0°C | 0% | 0hPa | 0V | 00:00:00 | 00:00:00 | 00:00:00 | |
| SQ6EMJ | 2026-09-01 00:27:12 | 51.42420 | 17.76479 | 317° | 27km/h | 22431m | 5.8m/s | 0°C | 0% | 0hPa | 0V | 00:00:00 | 00:00:00 | 00:00:00 | |
| SQ6EMJ | 2026-09-01 00:27:07 | 51.42405 | 17.76493 | 25° | 22km/h | 22399m | 4.1m/s | 0°C | 0% | 0hPa | 0V | 00:00:00 | 00:00:00 | 00:00:00 | |
| PETON7-10 | 2026-09-01 00:27:05 | 51.42389 | 17.76490 | 332° | 16km/h | 22393m | 6.2m/s | 0°C | 0% | 0hPa | 0V | 00:00:00 | 00:00:00 | 00:00:00 | |
| SQ6EMJ | 2026-09-01 00:27:02 | 51.42374 | 17.76503 | 338° | 13km/h | 22379m | 5.6m/s | 0°C | 0% | 0hPa | 0V | 00:00:00 | 00:00:00 | 00:00:00 | |
| SP4MAZ | 2026-09-01 00:27:00 | 51.42366 | 17.76505 | 336° | 13km/h | 22373m | 4.0m/s | 0°C | 0% | 0hPa | 0V | 00:00:00 | 00:00:00 | 00:00:00 | |
| SP6BVK | 2026-09-01 00:26:59 | 51.42362 | 17.76509 | 318° | 22km/h | 22376m | 5.1m/s | 0°C | 0% | 0hPa | 0V | 00:00:00 | 00:00:00 | 00:00:00 | |
| SQ6EMJ | 2026-09-01 00:26:56 | 51.42348 | 17.76523 | 13° | 20km/h | 22360m | 4.2m/s | 0°C | 0% | 0hPa | 0V | 00:00:00 | 00:00:00 | 00:00:00 | |
| SP3BTT-10 | 2026-09-01 00:26:50 | 51.42325 | 17.76551 | 347° | 13km/h | 22328m | 9.8m/s | 0°C | 0% | 0hPa | 0V | 00:00:00 | 00:00:00 | 00:00:00 | |
| SQ6EMJ | 2026-09-01 00:26:44 | 51.42304 | 17.76548 | 338° | 15km/h | 22306m | 5.0m/s | 0°C | 0% | 0hPa | 0V | 00:00:00 | 00:00:00 | 00:00:00 | |
| SP4MAZ | 2026-09-01 00:26:40 | 51.42284 | 17.76580 | 273° | 42km/h | 22283m | 12.1m/s | 0°C | 0% | 0hPa | 0V | 00:00:00 | 00:00:00 | 00:00:00 | |
| SP6BVK | 2026-09-01 00:26:38 | 51.42287 | 17.76594 | 211° | 22km/h | 22258m | 11.4m/s | 0°C | 0% | 0hPa | 0V | 00:00:00 | 00:00:00 | 00:00:00 | |
| SQ6EMJ | 2026-09-01 00:26:30 | 51.42289 | 17.76659 | 250° | 9km/h | 22193m | 4.8m/s | 0°C | 0% | 0hPa | 0V | 00:00:00 | 00:00:00 | 00:00:00 | |
| SQ6EMJ | 2026-09-01 00:26:24 | 51.42288 | 17.76705 | 259° | 7km/h | 22160m | 3.7m/s | 0°C | 0% | 0hPa | 0V | 00:00:00 | 00:00:00 | 00:00:00 | |
| SQ6EMJ | 2026-09-01 00:26:19 | 51.42289 | 17.76738 | 234° | 11km/h | 22129m | 3.0m/s | 0°C | 0% | 0hPa | 0V | 00:00:00 | 00:00:00 | 00:00:00 | |
| SP4MAZ | 2026-09-01 00:26:18 | 51.42289 | 17.76742 | 294° | 16km/h | 22126m | 2.4m/s | 0°C | 0% | 0hPa | 0V | 00:00:00 | 00:00:00 | 00:00:00 | |
| SQ6EMJ | 2026-09-01 00:26:13 | 51.42284 | 17.76771 | 228° | 11km/h | 22109m | 4.3m/s | 0°C | 0% | 0hPa | 0V | 00:00:00 | 00:00:00 | 00:00:00 | |
| SP6BVK | 2026-09-01 00:26:12 | 51.42286 | 17.76777 | 238° | 13km/h | 22100m | 5.1m/s | 0°C | 0% | 0hPa | 0V | 00:00:00 | 00:00:00 | 00:00:00 | |
| PETON7-10 | 2026-09-01 00:26:08 | 51.42285 | 17.76803 | 258° | 11km/h | 22076m | 6.0m/s | 0°C | 0% | 0hPa | 0V | 00:00:00 | 00:00:00 | 00:00:00 | |
| SQ6EMJ | 2026-09-01 00:26:07 | 51.42287 | 17.76808 | 254° | 11km/h | 22073m | 4.6m/s | 0°C | 0% | 0hPa | 0V | 00:00:00 | 00:00:00 | 00:00:00 | |
| SP3BTT-10 | 2026-09-01 00:26:05 | 51.42287 | 17.76818 | 302° | 15km/h | 22061m | 4.8m/s | 0°C | 0% | 0hPa | 0V | 00:00:00 | 00:00:00 | 00:00:00 | |
| SQ6EMJ | 2026-09-01 00:26:01 | 51.42292 | 17.76847 | 258° | 18km/h | 22042m | 4.5m/s | 0°C | 0% | 0hPa | 0V | 00:00:00 | 00:00:00 | 00:00:00 | |
| SQ6EMJ | 2026-09-01 00:25:56 | 51.42297 | 17.76882 | 217° | 27km/h | 22007m | 4.4m/s | 0°C | 0% | 0hPa | 0V | 00:00:00 | 00:00:00 | 00:00:00 | |
| SQ6EMJ | 2026-09-01 00:25:50 | 51.42307 | 17.76930 | 231° | 13km/h | 21975m | 5.1m/s | 0°C | 0% | 0hPa | 0V | 00:00:00 | 00:00:00 | 00:00:00 | |
| SQ9EZE-15 | 2026-09-01 00:25:44 | 51.42322 | 17.76947 | 181° | 13km/h | 21943m | 0.9m/s | 0°C | 0% | 0hPa | 0V | 00:00:00 | 00:00:00 | 00:00:00 | |
| SP6BVK | 2026-09-01 00:25:39 | 51.42320 | 17.76969 | 225° | 13km/h | 21926m | 8.1m/s | 0°C | 0% | 0hPa | 0V | 00:00:00 | 00:00:00 | 00:00:00 | |
| SQ6EMJ | 2026-09-01 00:25:38 | 51.42324 | 17.76968 | 161° | 26km/h | 21918m | 5.9m/s | 0°C | 0% | 0hPa | 0V | 00:00:00 | 00:00:00 | 00:00:00 | |
| SQ6EMJ | 2026-09-01 00:25:32 | 51.42336 | 17.76963 | 251° | 18km/h | 21891m | 7.4m/s | 0°C | 0% | 0hPa | 0V | 00:00:00 | 00:00:00 | 00:00:00 | |
| SQ6EMJ | 2026-09-01 00:25:26 | 51.42338 | 17.76963 | 204° | 4km/h | 21852m | 5.8m/s | 0°C | 0% | 0hPa | 0V | 00:00:00 | 00:00:00 | 00:00:00 | |
| SQ6EMJ | 2026-09-01 00:25:21 | 51.42341 | 17.76951 | 97° | 11km/h | 21831m | 4.1m/s | 0°C | 0% | 0hPa | 0V | 00:00:00 | 00:00:00 | 00:00:00 | |
| SQ6EMJ | 2026-09-01 00:25:16 | 51.42338 | 17.76926 | 35° | 20km/h | 21806m | 4.9m/s | 0°C | 0% | 0hPa | 0V | 00:00:00 | 00:00:00 | 00:00:00 | |
| SQ6EMJ | 2026-09-01 00:25:10 | 51.42334 | 17.76887 | 90° | 29km/h | 21780m | 6.8m/s | 0°C | 0% | 0hPa | 0V | 00:00:00 | 00:00:00 | 00:00:00 | |
| SP6BVK | 2026-09-01 00:25:06 | 51.42334 | 17.76875 | 38° | 15km/h | 21758m | 4.3m/s | 0°C | 0% | 0hPa | 0V | 00:00:00 | 00:00:00 | 00:00:00 | |
| SP3BTT-10 | 2026-09-01 00:25:05 | 51.42332 | 17.76870 | 59° | 11km/h | 21751m | 4.8m/s | 0°C | 0% | 0hPa | 0V | 00:00:00 | 00:00:00 | 00:00:00 | |
| SQ6EMJ | 2026-09-01 00:25:04 | 51.42329 | 17.76862 | 63° | 20km/h | 21746m | 5.1m/s | 0°C | 0% | 0hPa | 0V | 00:00:00 | 00:00:00 | 00:00:00 | |
| SQ6EMJ | 2026-09-01 00:24:59 | 51.42329 | 17.76839 | 65° | 15km/h | 21723m | 4.2m/s | 0°C | 0% | 0hPa | 0V | 00:00:00 | 00:00:00 | 00:00:00 | |
| SQ6EMJ | 2026-09-01 00:24:54 | 51.42322 | 17.76825 | 115° | 9km/h | 21696m | 6.6m/s | 0°C | 0% | 0hPa | 0V | 00:00:00 | 00:00:00 | 00:00:00 | |
| SQ6EMJ | 2026-09-01 00:24:49 | 51.42322 | 17.76792 | 318° | 9km/h | 21663m | 6.4m/s | 0°C | 0% | 0hPa | 0V | 00:00:00 | 00:00:00 | 00:00:00 | |
| SP6BVK | 2026-09-01 00:24:45 | 51.42327 | 17.76782 | 152° | 4km/h | 21638m | 3.0m/s | 0°C | 0% | 0hPa | 0V | 00:00:00 | 00:00:00 | 00:00:00 | |
| SP4MAZ | 2026-09-01 00:24:44 | 51.42328 | 17.76781 | 158° | 5km/h | 21634m | 3.3m/s | 0°C | 0% | 0hPa | 0V | 00:00:00 | 00:00:00 | 00:00:00 | |
| SQ6EMJ | 2026-09-01 00:24:42 | 51.42327 | 17.76777 | 25° | 13km/h | 21626m | 1.8m/s | 0°C | 0% | 0hPa | 0V | 00:00:00 | 00:00:00 | 00:00:00 | |
| KRY50SP | 2026-09-01 00:24:39 | 51.42312 | 17.76759 | 354° | 9km/h | 21616m | 2.9m/s | 0°C | 0% | 0hPa | 0V | 00:00:00 | 00:00:00 | 00:00:00 | |
| SQ6EMJ | 2026-09-01 00:24:36 | 51.42320 | 17.76754 | 184° | 13km/h | 21591m | 2.1m/s | 0°C | 0% | 0hPa | 0V | 00:00:00 | 00:00:00 | 00:00:00 | |
| SQ6EMJ | 2026-09-01 00:24:32 | 51.42305 | 17.76753 | 2° | 29km/h | 21576m | 3.0m/s | 0°C | 0% | 0hPa | 0V | 00:00:00 | 00:00:00 | 00:00:00 | |
| SQ6EMJ | 2026-09-01 00:24:26 | 51.42296 | 17.76749 | 199° | 16km/h | 21549m | 4.3m/s | 0°C | 0% | 0hPa | 0V | 00:00:00 | 00:00:00 | 00:00:00 | |
| SQ6EMJ | 2026-09-01 00:24:20 | 51.42279 | 17.76743 | 116° | 4km/h | 21521m | 5.0m/s | 0°C | 0% | 0hPa | 0V | 00:00:00 | 00:00:00 | 00:00:00 | |
| SQ6EMJ | 2026-09-01 00:24:14 | 51.42283 | 17.76755 | 35° | 15km/h | 21499m | 4.9m/s | 0°C | 0% | 0hPa | 0V | 00:00:00 | 00:00:00 | 00:00:00 | |
| SP6BVK | 2026-09-01 00:24:13 | 51.42279 | 17.76752 | 10° | 13km/h | 21494m | 5.0m/s | 0°C | 0% | 0hPa | 0V | 00:00:00 | 00:00:00 | 00:00:00 | |
| SQ6EMJ | 2026-09-01 00:24:08 | 51.42275 | 17.76757 | 350° | 11km/h | 21472m | 6.9m/s | 0°C | 0% | 0hPa | 0V | 00:00:00 | 00:00:00 | 00:00:00 | |
| SP3BTT-10 | 2026-09-01 00:24:04 | 51.42266 | 17.76749 | 62° | 7km/h | 21452m | 4.6m/s | 0°C | 0% | 0hPa | 0V | 00:00:00 | 00:00:00 | 00:00:00 | |
| SQ6EMJ | 2026-09-01 00:24:02 | 51.42263 | 17.76743 | 29° | 9km/h | 21442m | 5.9m/s | 0°C | 0% | 0hPa | 0V | 00:00:00 | 00:00:00 | 00:00:00 | |
| SQ6EMJ | 2026-09-01 00:23:57 | 51.42251 | 17.76741 | 34° | 9km/h | 21415m | 4.8m/s | 0°C | 0% | 0hPa | 0V | 00:00:00 | 00:00:00 | 00:00:00 | |
| SP6BVK | 2026-09-01 00:23:52 | 51.42242 | 17.76732 | 80° | 13km/h | 21386m | 2.7m/s | 0°C | 0% | 0hPa | 0V | 00:00:00 | 00:00:00 | 00:00:00 | |
| SQ6EMJ | 2026-09-01 00:23:51 | 51.42241 | 17.76727 | 67° | 4km/h | 21383m | 5.1m/s | 0°C | 0% | 0hPa | 0V | 00:00:00 | 00:00:00 | 00:00:00 | |
| SQ6EMJ | 2026-09-01 00:23:40 | 51.42221 | 17.76684 | 108° | 11km/h | 21325m | 5.3m/s | 0°C | 0% | 0hPa | 0V | 00:00:00 | 00:00:00 | 00:00:00 | |
| SQ6EMJ | 2026-09-01 00:23:34 | 51.42216 | 17.76662 | 102° | 9km/h | 21293m | 5.0m/s | 0°C | 0% | 0hPa | 0V | 00:00:00 | 00:00:00 | 00:00:00 | |
| SP6BVK | 2026-09-01 00:23:28 | 51.42214 | 17.76645 | 86° | 5km/h | 21262m | 8.1m/s | 0°C | 0% | 0hPa | 0V | 00:00:00 | 00:00:00 | 00:00:00 | |
| SQ6EMJ | 2026-09-01 00:23:22 | 51.42213 | 17.76625 | 69° | 9km/h | 21221m | 3.4m/s | 0°C | 0% | 0hPa | 0V | 00:00:00 | 00:00:00 | 00:00:00 | |
| SQ6EMJ | 2026-09-01 00:23:17 | 51.42205 | 17.76615 | 173° | 5km/h | 21198m | 3.9m/s | 0°C | 0% | 0hPa | 0V | 00:00:00 | 00:00:00 | 00:00:00 | |
| SQ6EMJ | 2026-09-01 00:23:11 | 51.42197 | 17.76614 | 251° | 5km/h | 21175m | 4.8m/s | 0°C | 0% | 0hPa | 0V | 00:00:00 | 00:00:00 | 00:00:00 | |
| SP3BTT-10 | 2026-09-01 00:23:04 | 51.42197 | 17.76602 | 319° | 16km/h | 21144m | 5.9m/s | 0°C | 0% | 0hPa | 0V | 00:00:00 | 00:00:00 | 00:00:00 | |
| SQ6EMJ | 2026-09-01 00:22:58 | 51.42198 | 17.76615 | 99° | 13km/h | 21120m | 6.4m/s | 0°C | 0% | 0hPa | 0V | 00:00:00 | 00:00:00 | 00:00:00 | |
| SQ6EMJ | 2026-09-01 00:22:53 | 51.42196 | 17.76613 | 245° | 11km/h | 21096m | 6.1m/s | 0°C | 0% | 0hPa | 0V | 00:00:00 | 00:00:00 | 00:00:00 | |
| SP4MAZ | 2026-09-01 00:22:47 | 51.42202 | 17.76586 | 63° | 11km/h | 21069m | 7.2m/s | 0°C | 0% | 0hPa | 0V | 00:00:00 | 00:00:00 | 00:00:00 | |
| SP6BVK | 2026-09-01 00:22:42 | 51.42195 | 17.76576 | 164° | 15km/h | 21049m | 5.7m/s | 0°C | 0% | 0hPa | 0V | 00:00:00 | 00:00:00 | 00:00:00 | |
| SQ6EMJ | 2026-09-01 00:22:41 | 51.42200 | 17.76572 | 148° | 15km/h | 21044m | 6.5m/s | 0°C | 0% | 0hPa | 0V | 00:00:00 | 00:00:00 | 00:00:00 | |
| KRY50SP | 2026-09-01 00:22:39 | 51.42194 | 17.76550 | 317° | 5km/h | 21032m | 4.5m/s | 0°C | 0% | 0hPa | 0V | 00:00:00 | 00:00:00 | 00:00:00 | |
| SQ6EMJ | 2026-09-01 00:22:35 | 51.42201 | 17.76569 | 250° | 24km/h | 21014m | 7.6m/s | 0°C | 0% | 0hPa | 0V | 00:00:00 | 00:00:00 | 00:00:00 | |
| SP3BTT-10 | 2026-09-01 00:22:34 | 51.42205 | 17.76577 | 211° | 18km/h | 21005m | 5.9m/s | 0°C | 0% | 0hPa | 0V | 00:00:00 | 00:00:00 | 00:00:00 | |
| SQ6EMJ | 2026-09-01 00:22:29 | 51.42235 | 17.76572 | 156° | 18km/h | 20960m | 8.1m/s | 0°C | 0% | 0hPa | 0V | 00:00:00 | 00:00:00 | 00:00:00 | |
| SQ6EMJ | 2026-09-01 00:22:22 | 51.42246 | 17.76576 | 122° | 22km/h | 20912m | 4.9m/s | 0°C | 0% | 0hPa | 0V | 00:00:00 | 00:00:00 | 00:00:00 | |
| SQ6EMJ | 2026-09-01 00:22:16 | 51.42253 | 17.76557 | 88° | 29km/h | 20892m | -2.6m/s | 0°C | 0% | 0hPa | 0V | 00:00:00 | 00:00:00 | 00:00:00 | |
| SP6BVK | 2026-09-01 00:22:14 | 51.42256 | 17.76545 | 170° | 18km/h | 20885m | 6.1m/s | 0°C | 0% | 0hPa | 0V | 00:00:00 | 00:00:00 | 00:00:00 | |
| SQ6EMJ | 2026-09-01 00:22:11 | 51.42263 | 17.76534 | 92° | 16km/h | 20871m | 4.5m/s | 0°C | 0% | 0hPa | 0V | 00:00:00 | 00:00:00 | 00:00:00 | |
| SQ6EMJ | 2026-09-01 00:22:06 | 51.42269 | 17.76499 | 103° | 15km/h | 20858m | 6.8m/s | 0°C | 0% | 0hPa | 0V | 00:00:00 | 00:00:00 | 00:00:00 | |
| KRY50SP | 2026-09-01 00:22:01 | 51.42271 | 17.76475 | 130° | 16km/h | 20816m | 5.5m/s | 0°C | 0% | 0hPa | 0V | 00:00:00 | 00:00:00 | 00:00:00 | |
| SQ6EMJ | 2026-09-01 00:22:00 | 51.42273 | 17.76468 | 109° | 22km/h | 20810m | 5.5m/s | 0°C | 0% | 0hPa | 0V | 00:00:00 | 00:00:00 | 00:00:00 | |
| SP4MAZ | 2026-09-01 00:21:55 | 51.42277 | 17.76437 | 99° | 4km/h | 20786m | 6.6m/s | 0°C | 0% | 0hPa | 0V | 00:00:00 | 00:00:00 | 00:00:00 | |
| SQ6EMJ | 2026-09-01 00:21:54 | 51.42276 | 17.76435 | 75° | 13km/h | 20781m | 5.6m/s | 0°C | 0% | 0hPa | 0V | 00:00:00 | 00:00:00 | 00:00:00 | |
| SP6BVK | 2026-09-01 00:21:52 | 51.42275 | 17.76423 | 111° | 24km/h | 20768m | 8.5m/s | 0°C | 0% | 0hPa | 0V | 00:00:00 | 00:00:00 | 00:00:00 | |
| SQ6EMJ | 2026-09-01 00:21:48 | 51.42277 | 17.76392 | 64° | 18km/h | 20740m | 4.0m/s | 0°C | 0% | 0hPa | 0V | 00:00:00 | 00:00:00 | 00:00:00 | |
| SQ6EMJ | 2026-09-01 00:21:43 | 51.42271 | 17.76373 | 66° | 20km/h | 20708m | 6.6m/s | 0°C | 0% | 0hPa | 0V | 00:00:00 | 00:00:00 | 00:00:00 | |
| SQ6EMJ | 2026-09-01 00:21:37 | 51.42259 | 17.76341 | 49° | 20km/h | 20670m | 5.9m/s | 0°C | 0% | 0hPa | 0V | 00:00:00 | 00:00:00 | 00:00:00 | |
| SP4MAZ | 2026-09-01 00:21:35 | 51.42253 | 17.76331 | 64° | 18km/h | 20659m | 2.6m/s | 0°C | 0% | 0hPa | 0V | 00:00:00 | 00:00:00 | 00:00:00 | |
| SP3BTT-10 | 2026-09-01 00:21:34 | 51.42251 | 17.76327 | 55° | 22km/h | 20658m | 5.3m/s | 0°C | 0% | 0hPa | 0V | 00:00:00 | 00:00:00 | 00:00:00 | |
| KRY50SP | 2026-09-01 00:21:31 | 51.42243 | 17.76320 | 59° | 27km/h | 20642m | 7.7m/s | 0°C | 0% | 0hPa | 0V | 00:00:00 | 00:00:00 | 00:00:00 | |
| SQ6EMJ | 2026-09-01 00:21:25 | 51.42217 | 17.76289 | 61° | 18km/h | 20589m | 2.6m/s | 0°C | 0% | 0hPa | 0V | 00:00:00 | 00:00:00 | 00:00:00 | |
| SP6BVK | 2026-09-01 00:21:19 | 51.42193 | 17.76237 | 57° | 15km/h | 20580m | 5.0m/s | 0°C | 0% | 0hPa | 0V | 00:00:00 | 00:00:00 | 00:00:00 | |
| SQ6EMJ | 2026-09-01 00:21:18 | 51.42186 | 17.76229 | 17° | 20km/h | 20565m | 5.3m/s | 0°C | 0% | 0hPa | 0V | 00:00:00 | 00:00:00 | 00:00:00 | |
| SQ6EMJ | 2026-09-01 00:21:08 | 51.42173 | 17.76210 | 43° | 18km/h | 20533m | 7.1m/s | 0°C | 0% | 0hPa | 0V | 00:00:00 | 00:00:00 | 00:00:00 | |
| KRY50SP | 2026-09-01 00:21:04 | 51.42164 | 17.76189 | 137° | 15km/h | 20516m | 7.1m/s | 0°C | 0% | 0hPa | 0V | 00:00:00 | 00:00:00 | 00:00:00 | |
| SQ6EMJ | 2026-09-01 00:21:02 | 51.42166 | 17.76179 | 48° | 16km/h | 20505m | 6.5m/s | 0°C | 0% | 0hPa | 0V | 00:00:00 | 00:00:00 | 00:00:00 | |
| SQ6EMJ | 2026-09-01 00:20:56 | 51.42155 | 17.76147 | 95° | 22km/h | 20473m | 6.1m/s | 0°C | 0% | 0hPa | 0V | 00:00:00 | 00:00:00 | 00:00:00 | |
| SP6BVK | 2026-09-01 00:20:51 | 51.42155 | 17.76111 | 103° | 18km/h | 20440m | 5.7m/s | 0°C | 0% | 0hPa | 0V | 00:00:00 | 00:00:00 | 00:00:00 | |
| SQ6EMJ | 2026-09-01 00:20:49 | 51.42150 | 17.76097 | 83° | 20km/h | 20425m | 0.6m/s | 0°C | 0% | 0hPa | 0V | 00:00:00 | 00:00:00 | 00:00:00 | |
| SQ6EMJ | 2026-09-01 00:20:43 | 51.42163 | 17.76047 | 91° | 27km/h | 20401m | 4.5m/s | 0°C | 0% | 0hPa | 0V | 00:00:00 | 00:00:00 | 00:00:00 | |
| SQ6EMJ | 2026-09-01 00:20:36 | 51.42176 | 17.75989 | 99° | 29km/h | 20375m | 4.8m/s | 0°C | 0% | 0hPa | 0V | 00:00:00 | 00:00:00 | 00:00:00 | |
| SP3BTT-10 | 2026-09-01 00:20:33 | 51.42180 | 17.75964 | 104° | 29km/h | 20360m | 5.9m/s | 0°C | 0% | 0hPa | 0V | 00:00:00 | 00:00:00 | 00:00:00 | |
| SQ6EMJ | 2026-09-01 00:20:31 | 51.42182 | 17.75950 | 104° | 22km/h | 20347m | 4.5m/s | 0°C | 0% | 0hPa | 0V | 00:00:00 | 00:00:00 | 00:00:00 | |
| SP6BVK | 2026-09-01 00:20:24 | 51.42197 | 17.75874 | 106° | 29km/h | 20310m | 5.0m/s | 0°C | 0% | 0hPa | 0V | 00:00:00 | 00:00:00 | 00:00:00 | |
| KRY50SP | 2026-09-01 00:20:23 | 51.42200 | 17.75864 | 120° | 26km/h | 20306m | 5.3m/s | 0°C | 0% | 0hPa | 0V | 00:00:00 | 00:00:00 | 00:00:00 | |
| SQ6EMJ | 2026-09-01 00:20:19 | 51.42213 | 17.75824 | 103° | 33km/h | 20287m | 4.4m/s | 0°C | 0% | 0hPa | 0V | 00:00:00 | 00:00:00 | 00:00:00 | |
| SQ6EMJ | 2026-09-01 00:20:13 | 51.42217 | 17.75769 | 106° | 27km/h | 20251m | 4.9m/s | 0°C | 0% | 0hPa | 0V | 00:00:00 | 00:00:00 | 00:00:00 | |
| SQ6EMJ | 2026-09-01 00:20:08 | 51.42229 | 17.75702 | 85° | 27km/h | 20222m | 4.2m/s | 0°C | 0% | 0hPa | 0V | 00:00:00 | 00:00:00 | 00:00:00 | |
| SQ6EMJ | 2026-09-01 00:20:02 | 51.42234 | 17.75629 | 97° | 53km/h | 20190m | 4.3m/s | 0°C | 0% | 0hPa | 0V | 00:00:00 | 00:00:00 | 00:00:00 | |
| SQ6EMJ | 2026-09-01 00:19:54 | 51.42238 | 17.75515 | 92° | 37km/h | 20147m | 4.4m/s | 0°C | 0% | 0hPa | 0V | 00:00:00 | 00:00:00 | 00:00:00 | |
| SQ6EMJ | 2026-09-01 00:19:49 | 51.42242 | 17.75435 | 85° | 44km/h | 20124m | 5.0m/s | 0°C | 0% | 0hPa | 0V | 00:00:00 | 00:00:00 | 00:00:00 | |
| SQ6EMJ | 2026-09-01 00:19:37 | 51.42225 | 17.75275 | 76° | 35km/h | 20069m | 5.7m/s | 0°C | 0% | 0hPa | 0V | 00:00:00 | 00:00:00 | 00:00:00 | |
| SP6BVK | 2026-09-01 00:19:35 | 51.42223 | 17.75253 | 86° | 29km/h | 20059m | 3.7m/s | 0°C | 0% | 0hPa | 0V | 00:00:00 | 00:00:00 | 00:00:00 | |
| SP3BTT-10 | 2026-09-01 00:19:33 | 51.42218 | 17.75224 | 68° | 33km/h | 20050m | 2.5m/s | 0°C | 0% | 0hPa | 0V | 00:00:00 | 00:00:00 | 00:00:00 | |
| SQ6EMJ | 2026-09-01 00:19:31 | 51.42213 | 17.75201 | 73° | 26km/h | 20046m | 6.2m/s | 0°C | 0% | 0hPa | 0V | 00:00:00 | 00:00:00 | 00:00:00 | |
| SQ6EMJ | 2026-09-01 00:19:26 | 51.42197 | 17.75131 | 44° | 29km/h | 20022m | 7.4m/s | 0°C | 0% | 0hPa | 0V | 00:00:00 | 00:00:00 | 00:00:00 | |
| SQ6EMJ | 2026-09-01 00:19:21 | 51.42171 | 17.75090 | 47° | 37km/h | 19995m | 3.5m/s | 0°C | 0% | 0hPa | 0V | 00:00:00 | 00:00:00 | 00:00:00 | |
| SQ6EMJ | 2026-09-01 00:19:16 | 51.42153 | 17.75030 | 59° | 47km/h | 19971m | 3.9m/s | 0°C | 0% | 0hPa | 0V | 00:00:00 | 00:00:00 | 00:00:00 | |
| KRY50SP | 2026-09-01 00:19:15 | 51.42147 | 17.75015 | 56° | 44km/h | 19967m | 4.1m/s | 0°C | 0% | 0hPa | 0V | 00:00:00 | 00:00:00 | 00:00:00 | |
| SP6BVK | 2026-09-01 00:19:14 | 51.42141 | 17.75003 | 48° | 27km/h | 19962m | 5.3m/s | 0°C | 0% | 0hPa | 0V | 00:00:00 | 00:00:00 | 00:00:00 | |
| SQ6EMJ | 2026-09-01 00:19:09 | 51.42108 | 17.74962 | 65° | 47km/h | 19937m | 7.3m/s | 0°C | 0% | 0hPa | 0V | 00:00:00 | 00:00:00 | 00:00:00 | |
| SQ6EMJ | 2026-09-01 00:19:00 | 51.42054 | 17.74877 | 41° | 38km/h | 19894m | 5.8m/s | 0°C | 0% | 0hPa | 0V | 00:00:00 | 00:00:00 | 00:00:00 | |
| SQ6EMJ | 2026-09-01 00:18:55 | 51.42015 | 17.74851 | 13° | 33km/h | 19870m | 5.6m/s | 0°C | 0% | 0hPa | 0V | 00:00:00 | 00:00:00 | 00:00:00 | |
| SP4MAZ | 2026-09-01 00:18:51 | 51.41984 | 17.74822 | 49° | 35km/h | 19853m | 5.9m/s | 0°C | 0% | 0hPa | 0V | 00:00:00 | 00:00:00 | 00:00:00 | |
| SQ6EMJ | 2026-09-01 00:18:49 | 51.41971 | 17.74805 | 34° | 33km/h | 19843m | 3.5m/s | 0°C | 0% | 0hPa | 0V | 00:00:00 | 00:00:00 | 00:00:00 | |
| SP3BTT-10 | 2026-09-01 00:18:48 | 51.41963 | 17.74798 | 22° | 26km/h | 19839m | 5.0m/s | 0°C | 0% | 0hPa | 0V | 00:00:00 | 00:00:00 | 00:00:00 | |
| SQ6EMJ | 2026-09-01 00:18:44 | 51.41925 | 17.74775 | 43° | 24km/h | 19822m | 3.1m/s | 0°C | 0% | 0hPa | 0V | 00:00:00 | 00:00:00 | 00:00:00 | |
| KRY50SP | 2026-09-01 00:18:43 | 51.41919 | 17.74767 | 43° | 29km/h | 19820m | 4.0m/s | 0°C | 0% | 0hPa | 0V | 00:00:00 | 00:00:00 | 00:00:00 | |
| SQ6EMJ | 2026-09-01 00:18:38 | 51.41871 | 17.74732 | 20° | 29km/h | 19795m | 5.5m/s | 0°C | 0% | 0hPa | 0V | 00:00:00 | 00:00:00 | 00:00:00 | |
| SQ6EMJ | 2026-09-01 00:18:32 | 51.41829 | 17.74713 | 19° | 26km/h | 19762m | 3.7m/s | 0°C | 0% | 0hPa | 0V | 00:00:00 | 00:00:00 | 00:00:00 | |
| SQ6EMJ | 2026-09-01 00:18:26 | 51.41779 | 17.74685 | 43° | 26km/h | 19732m | 5.6m/s | 0°C | 0% | 0hPa | 0V | 00:00:00 | 00:00:00 | 00:00:00 | |
| SQ6EMJ | 2026-09-01 00:18:20 | 51.41734 | 17.74667 | 24° | 27km/h | 19697m | 2.1m/s | 0°C | 0% | 0hPa | 0V | 00:00:00 | 00:00:00 | 00:00:00 | |
| SQ6EMJ | 2026-09-01 00:18:14 | 51.41700 | 17.74647 | 39° | 26km/h | 19673m | 4.3m/s | 0°C | 0% | 0hPa | 0V | 00:00:00 | 00:00:00 | 00:00:00 | |
| KRY50SP | 2026-09-01 00:18:08 | 51.41668 | 17.74635 | 62° | 13km/h | 19647m | 3.9m/s | 0°C | 0% | 0hPa | 0V | 00:00:00 | 00:00:00 | 00:00:00 | |
| SQ6EMJ | 2026-09-01 00:18:03 | 51.41636 | 17.74614 | 7° | 18km/h | 19623m | 6.3m/s | 0°C | 0% | 0hPa | 0V | 00:00:00 | 00:00:00 | 00:00:00 | |
| SQ6EMJ | 2026-09-01 00:17:58 | 51.41610 | 17.74610 | 32° | 22km/h | 19597m | 6.0m/s | 0°C | 0% | 0hPa | 0V | 00:00:00 | 00:00:00 | 00:00:00 | |
| SP6BVK | 2026-09-01 00:17:55 | 51.41599 | 17.74596 | 38° | 24km/h | 19582m | 5.7m/s | 0°C | 0% | 0hPa | 0V | 00:00:00 | 00:00:00 | 00:00:00 | |
| SQ6EMJ | 2026-09-01 00:17:53 | 51.41579 | 17.74591 | 352° | 27km/h | 19565m | 5.6m/s | 0°C | 0% | 0hPa | 0V | 00:00:00 | 00:00:00 | 00:00:00 | |
| SP3BTT-10 | 2026-09-01 00:17:47 | 51.41558 | 17.74577 | 25° | 15km/h | 19540m | 4.8m/s | 0°C | 0% | 0hPa | 0V | 00:00:00 | 00:00:00 | 00:00:00 | |
| SQ6EMJ | 2026-09-01 00:17:41 | 51.41542 | 17.74570 | 29° | 9km/h | 19517m | 6.2m/s | 0°C | 0% | 0hPa | 0V | 00:00:00 | 00:00:00 | 00:00:00 | |
| SP4MAZ | 2026-09-01 00:17:39 | 51.41538 | 17.74564 | 39° | 11km/h | 19507m | 4.9m/s | 0°C | 0% | 0hPa | 0V | 00:00:00 | 00:00:00 | 00:00:00 | |
| SQ6EMJ | 2026-09-01 00:17:35 | 51.41526 | 17.74547 | 66° | 9km/h | 19487m | 4.5m/s | 0°C | 0% | 0hPa | 0V | 00:00:00 | 00:00:00 | 00:00:00 | |
| SP6BVK | 2026-09-01 00:17:30 | 51.41512 | 17.74547 | 46° | 15km/h | 19456m | 5.8m/s | 0°C | 0% | 0hPa | 0V | 00:00:00 | 00:00:00 | 00:00:00 | |
| SQ6EMJ | 2026-09-01 00:17:29 | 51.41510 | 17.74542 | 79° | 11km/h | 19450m | 4.9m/s | 0°C | 0% | 0hPa | 0V | 00:00:00 | 00:00:00 | 00:00:00 | |
| KRY50SP | 2026-09-01 00:17:26 | 51.41506 | 17.74536 | 321° | 13km/h | 19435m | 3.5m/s | 0°C | 0% | 0hPa | 0V | 00:00:00 | 00:00:00 | 00:00:00 | |
| SQ6EMJ | 2026-09-01 00:17:24 | 51.41502 | 17.74543 | 315° | 9km/h | 19427m | 6.0m/s | 0°C | 0% | 0hPa | 0V | 00:00:00 | 00:00:00 | 00:00:00 | |
| SQ6EMJ | 2026-09-01 00:17:18 | 51.41487 | 17.74551 | 33° | 20km/h | 19396m | 5.4m/s | 0°C | 0% | 0hPa | 0V | 00:00:00 | 00:00:00 | 00:00:00 | |
| SQ6EMJ | 2026-09-01 00:17:13 | 51.41465 | 17.74556 | 335° | 16km/h | 19369m | 4.6m/s | 0°C | 0% | 0hPa | 0V | 00:00:00 | 00:00:00 | 00:00:00 | |
| SQ6EMJ | 2026-09-01 00:17:07 | 51.41432 | 17.74559 | 47° | 18km/h | 19335m | -1.9m/s | 0°C | 0% | 0hPa | 0V | 00:00:00 | 00:00:00 | 00:00:00 | |
| SP3BTT-10 | 2026-09-01 00:17:02 | 51.41419 | 17.74556 | 355° | 18km/h | 19330m | 4.8m/s | 0°C | 0% | 0hPa | 0V | 00:00:00 | 00:00:00 | 00:00:00 | |
| SQ6EMJ | 2026-09-01 00:17:01 | 51.41414 | 17.74555 | 33° | 18km/h | 19325m | 5.7m/s | 0°C | 0% | 0hPa | 0V | 00:00:00 | 00:00:00 | 00:00:00 | |
| SP6BVK | 2026-09-01 00:16:58 | 51.41404 | 17.74547 | 332° | 13km/h | 19308m | 6.3m/s | 0°C | 0% | 0hPa | 0V | 00:00:00 | 00:00:00 | 00:00:00 | |
| SQ6EMJ | 2026-09-01 00:16:50 | 51.41381 | 17.74549 | 25° | 9km/h | 19263m | 5.8m/s | 0°C | 0% | 0hPa | 0V | 00:00:00 | 00:00:00 | 00:00:00 | |
| SQ6EMJ | 2026-09-01 00:16:44 | 51.41365 | 17.74547 | 61° | 18km/h | 19230m | 6.9m/s | 0°C | 0% | 0hPa | 0V | 00:00:00 | 00:00:00 | 00:00:00 | |
| SQ6EMJ | 2026-09-01 00:16:39 | 51.41352 | 17.74532 | 8° | 11km/h | 19197m | 3.8m/s | 0°C | 0% | 0hPa | 0V | 00:00:00 | 00:00:00 | 00:00:00 | |
| KRY50SP | 2026-09-01 00:16:34 | 51.41351 | 17.74516 | 106° | 15km/h | 19170m | 6.6m/s | 0°C | 0% | 0hPa | 0V | 00:00:00 | 00:00:00 | 00:00:00 | |
| SP6BVK | 2026-09-01 00:16:30 | 51.41342 | 17.74492 | 356° | 13km/h | 19151m | 2.5m/s | 0°C | 0% | 0hPa | 0V | 00:00:00 | 00:00:00 | 00:00:00 | |
| SQ6EMJ | 2026-09-01 00:16:25 | 51.41331 | 17.74472 | 65° | 24km/h | 19141m | 3.0m/s | 0°C | 0% | 0hPa | 0V | 00:00:00 | 00:00:00 | 00:00:00 | |
| SQ6EMJ | 2026-09-01 00:16:19 | 51.41319 | 17.74437 | 77° | 16km/h | 19117m | 3.5m/s | 0°C | 0% | 0hPa | 0V | 00:00:00 | 00:00:00 | 00:00:00 | |
| KRY50SP | 2026-09-01 00:16:15 | 51.41301 | 17.74415 | 43° | 33km/h | 19097m | 6.4m/s | 0°C | 0% | 0hPa | 0V | 00:00:00 | 00:00:00 | 00:00:00 | |
| SQ6EMJ | 2026-09-01 00:16:14 | 51.41295 | 17.74404 | 60° | 31km/h | 19092m | 5.2m/s | 0°C | 0% | 0hPa | 0V | 00:00:00 | 00:00:00 | 00:00:00 | |
| KRY50SP | 2026-09-01 00:16:08 | 51.41278 | 17.74365 | 51° | 22km/h | 19070m | 6.6m/s | 0°C | 0% | 0hPa | 0V | 00:00:00 | 00:00:00 | 00:00:00 | |
| SP3BTT-10 | 2026-09-01 00:16:02 | 51.41255 | 17.74339 | 43° | 22km/h | 19035m | 7.2m/s | 0°C | 0% | 0hPa | 0V | 00:00:00 | 00:00:00 | 00:00:00 | |
| SQ6EMJ | 2026-09-01 00:15:59 | 51.41243 | 17.74328 | 27° | 22km/h | 19017m | 4.7m/s | 0°C | 0% | 0hPa | 0V | 00:00:00 | 00:00:00 | 00:00:00 | |
| SQ6EMJ | 2026-09-01 00:15:53 | 51.41221 | 17.74307 | 47° | 13km/h | 18991m | 4.4m/s | 0°C | 0% | 0hPa | 0V | 00:00:00 | 00:00:00 | 00:00:00 | |
| SP6BVK | 2026-09-01 00:15:51 | 51.41215 | 17.74293 | 55° | 29km/h | 18979m | 5.0m/s | 0°C | 0% | 0hPa | 0V | 00:00:00 | 00:00:00 | 00:00:00 | |
| SQ6EMJ | 2026-09-01 00:15:48 | 51.41196 | 17.74279 | 352° | 29km/h | 18962m | 6.4m/s | 0°C | 0% | 0hPa | 0V | 00:00:00 | 00:00:00 | 00:00:00 | |
| SQ6EMJ | 2026-09-01 00:15:43 | 51.41176 | 17.74260 | 37° | 20km/h | 18937m | 4.9m/s | 0°C | 0% | 0hPa | 0V | 00:00:00 | 00:00:00 | 00:00:00 | |
| SQ6EMJ | 2026-09-01 00:15:30 | 51.41098 | 17.74217 | 355° | 31km/h | 18878m | 3.7m/s | 0°C | 0% | 0hPa | 0V | 00:00:00 | 00:00:00 | 00:00:00 | |
| KRY50SP | 2026-09-01 00:15:27 | 51.41082 | 17.74208 | 40° | 24km/h | 18864m | 6.2m/s | 0°C | 0% | 0hPa | 0V | 00:00:00 | 00:00:00 | 00:00:00 | |
| SQ6EMJ | 2026-09-01 00:15:25 | 51.41071 | 17.74200 | 11° | 27km/h | 18853m | 3.4m/s | 0°C | 0% | 0hPa | 0V | 00:00:00 | 00:00:00 | 00:00:00 | |
| SQ6EMJ | 2026-09-01 00:15:20 | 51.41044 | 17.74178 | 27° | 20km/h | 18834m | 4.2m/s | 0°C | 0% | 0hPa | 0V | 00:00:00 | 00:00:00 | 00:00:00 | |
| SP3BTT-10 | 2026-09-01 00:15:17 | 51.41031 | 17.74165 | 23° | 27km/h | 18818m | 3.8m/s | 0°C | 0% | 0hPa | 0V | 00:00:00 | 00:00:00 | 00:00:00 | |
| SQ6EMJ | 2026-09-01 00:15:14 | 51.41013 | 17.74151 | 7° | 24km/h | 18803m | 5.7m/s | 0°C | 0% | 0hPa | 0V | 00:00:00 | 00:00:00 | 00:00:00 | |
| KRY50SP | 2026-09-01 00:15:12 | 51.41003 | 17.74147 | 41° | 15km/h | 18792m | 5.5m/s | 0°C | 0% | 0hPa | 0V | 00:00:00 | 00:00:00 | 00:00:00 | |
| SQ6EMJ | 2026-09-01 00:15:08 | 51.40988 | 17.74119 | 14° | 26km/h | 18772m | 5.4m/s | 0°C | 0% | 0hPa | 0V | 00:00:00 | 00:00:00 | 00:00:00 | |
| SQ6EMJ | 2026-09-01 00:15:01 | 51.40955 | 17.74100 | 12° | 18km/h | 18731m | 5.7m/s | 0°C | 0% | 0hPa | 0V | 00:00:00 | 00:00:00 | 00:00:00 | |
| SP6BVK | 2026-09-01 00:14:57 | 51.40940 | 17.74095 | 27° | 16km/h | 18710m | 5.8m/s | 0°C | 0% | 0hPa | 0V | 00:00:00 | 00:00:00 | 00:00:00 | |
| SQ6EMJ | 2026-09-01 00:14:56 | 51.40936 | 17.74093 | 35° | 18km/h | 18705m | 6.5m/s | 0°C | 0% | 0hPa | 0V | 00:00:00 | 00:00:00 | 00:00:00 | |
| SQ6EMJ | 2026-09-01 00:14:50 | 51.40917 | 17.74069 | 14° | 15km/h | 18676m | 6.0m/s | 0°C | 0% | 0hPa | 0V | 00:00:00 | 00:00:00 | 00:00:00 | |
| KRY50SP | 2026-09-01 00:14:49 | 51.40913 | 17.74069 | 337° | 18km/h | 18669m | 4.5m/s | 0°C | 0% | 0hPa | 0V | 00:00:00 | 00:00:00 | 00:00:00 | |
| SQ6EMJ | 2026-09-01 00:14:43 | 51.40886 | 17.74055 | 54° | 26km/h | 18632m | 3.8m/s | 0°C | 0% | 0hPa | 0V | 00:00:00 | 00:00:00 | 00:00:00 | |
| KRY50SP | 2026-09-01 00:14:35 | 51.40873 | 17.74045 | 16° | 20km/h | 18607m | 4.8m/s | 0°C | 0% | 0hPa | 0V | 00:00:00 | 00:00:00 | 00:00:00 | |
| SQ6EMJ | 2026-09-01 00:14:29 | 51.40849 | 17.74056 | 235° | 16km/h | 18582m | 9.5m/s | 0°C | 0% | 0hPa | 0V | 00:00:00 | 00:00:00 | 00:00:00 | |
| SQ6EMJ | 2026-09-01 00:14:23 | 51.40827 | 17.74050 | 314° | 24km/h | 18544m | 6.5m/s | 0°C | 0% | 0hPa | 0V | 00:00:00 | 00:00:00 | 00:00:00 | |
| SQ6EMJ | 2026-09-01 00:14:18 | 51.40839 | 17.74041 | 49° | 24km/h | 18517m | 8.0m/s | 0°C | 0% | 0hPa | 0V | 00:00:00 | 00:00:00 | 00:00:00 | |
| SP3BTT-10 | 2026-09-01 00:14:15 | 51.40819 | 17.74042 | 319° | 16km/h | 18499m | 4.8m/s | 0°C | 0% | 0hPa | 0V | 00:00:00 | 00:00:00 | 00:00:00 | |
| SQ6EMJ | 2026-09-01 00:14:12 | 51.40825 | 17.74030 | 104° | 37km/h | 18485m | 3.6m/s | 0°C | 0% | 0hPa | 0V | 00:00:00 | 00:00:00 | 00:00:00 | |
| SQ6EMJ | 2026-09-01 00:14:06 | 51.40815 | 17.73995 | 172° | 7km/h | 18456m | 7.6m/s | 0°C | 0% | 0hPa | 0V | 00:00:00 | 00:00:00 | 00:00:00 | |
| SQ6EMJ | 2026-09-01 00:14:00 | 51.40803 | 17.73948 | 91° | 29km/h | 18420m | 3.9m/s | 0°C | 0% | 0hPa | 0V | 00:00:00 | 00:00:00 | 00:00:00 | |
| KRY50SP | 2026-09-01 00:13:58 | 51.40805 | 17.73930 | 101° | 13km/h | 18410m | 7.4m/s | 0°C | 0% | 0hPa | 0V | 00:00:00 | 00:00:00 | 00:00:00 | |
| SQ6EMJ | 2026-09-01 00:13:55 | 51.40803 | 17.73919 | 51° | 15km/h | 18393m | 5.4m/s | 0°C | 0% | 0hPa | 0V | 00:00:00 | 00:00:00 | 00:00:00 | |
| SP6BVK | 2026-09-01 00:13:54 | 51.40800 | 17.73912 | 59° | 33km/h | 18386m | 6.0m/s | 0°C | 0% | 0hPa | 0V | 00:00:00 | 00:00:00 | 00:00:00 | |
| SQ6EMJ | 2026-09-01 00:13:49 | 51.40787 | 17.73873 | 116° | 18km/h | 18358m | 4.1m/s | 0°C | 0% | 0hPa | 0V | 00:00:00 | 00:00:00 | 00:00:00 | |
| SQ6EMJ | 2026-09-01 00:13:43 | 51.40794 | 17.73831 | 84° | 33km/h | 18346m | 4.5m/s | 0°C | 0% | 0hPa | 0V | 00:00:00 | 00:00:00 | 00:00:00 | |
| KRY50SP | 2026-09-01 00:13:40 | 51.40794 | 17.73807 | 110° | 4km/h | 18333m | 6.2m/s | 0°C | 0% | 0hPa | 0V | 00:00:00 | 00:00:00 | 00:00:00 | |
| SQ6EMJ | 2026-09-01 00:13:38 | 51.40794 | 17.73794 | 89° | 22km/h | 18314m | 4.1m/s | 0°C | 0% | 0hPa | 0V | 00:00:00 | 00:00:00 | 00:00:00 | |
| KRY50SP | 2026-09-01 00:13:34 | 51.40793 | 17.73775 | 91° | 13km/h | 18300m | 3.8m/s | 0°C | 0% | 0hPa | 0V | 00:00:00 | 00:00:00 | 00:00:00 | |
| SP6BVK | 2026-09-01 00:13:33 | 51.40793 | 17.73760 | 93° | 24km/h | 18292m | 6.8m/s | 0°C | 0% | 0hPa | 0V | 00:00:00 | 00:00:00 | 00:00:00 | |
| SP3BTT-10 | 2026-09-01 00:13:31 | 51.40793 | 17.73743 | 86° | 22km/h | 18280m | 5.4m/s | 0°C | 0% | 0hPa | 0V | 00:00:00 | 00:00:00 | 00:00:00 | |
| SQ6EMJ | 2026-09-01 00:13:26 | 51.40786 | 17.73722 | 56° | 24km/h | 18262m | 2.7m/s | 0°C | 0% | 0hPa | 0V | 00:00:00 | 00:00:00 | 00:00:00 | |
| SQ6EMJ | 2026-09-01 00:13:21 | 51.40777 | 17.73687 | 61° | 22km/h | 18239m | 5.8m/s | 0°C | 0% | 0hPa | 0V | 00:00:00 | 00:00:00 | 00:00:00 | |
| SQ6EMJ | 2026-09-01 00:13:15 | 51.40766 | 17.73653 | 78° | 26km/h | 18207m | 4.5m/s | 0°C | 0% | 0hPa | 0V | 00:00:00 | 00:00:00 | 00:00:00 | |
| KRY50SP | 2026-09-01 00:13:13 | 51.40764 | 17.73640 | 70° | 11km/h | 18201m | 4.4m/s | 0°C | 0% | 0hPa | 0V | 00:00:00 | 00:00:00 | 00:00:00 | |
| SQ6EMJ | 2026-09-01 00:13:09 | 51.40755 | 17.73632 | 40° | 18km/h | 18185m | 4.0m/s | 0°C | 0% | 0hPa | 0V | 00:00:00 | 00:00:00 | 00:00:00 | |
| SP6BVK | 2026-09-01 00:13:06 | 51.40755 | 17.73616 | 135° | 26km/h | 18170m | 2.7m/s | 0°C | 0% | 0hPa | 0V | 00:00:00 | 00:00:00 | 00:00:00 | |
| SQ6EMJ | 2026-09-01 00:13:04 | 51.40761 | 17.73599 | 100° | 22km/h | 18162m | 5.8m/s | 0°C | 0% | 0hPa | 0V | 00:00:00 | 00:00:00 | 00:00:00 | |
| SQ6EMJ | 2026-09-01 00:12:59 | 51.40759 | 17.73593 | 123° | 13km/h | 18134m | 4.7m/s | 0°C | 0% | 0hPa | 0V | 00:00:00 | 00:00:00 | 00:00:00 | |
| SQ6EMJ | 2026-09-01 00:12:53 | 51.40772 | 17.73554 | 56° | 15km/h | 18107m | 5.8m/s | 0°C | 0% | 0hPa | 0V | 00:00:00 | 00:00:00 | 00:00:00 | |
| SQ6EMJ | 2026-09-01 00:12:47 | 51.40784 | 17.73540 | 98° | 29km/h | 18071m | 9.3m/s | 0°C | 0% | 0hPa | 0V | 00:00:00 | 00:00:00 | 00:00:00 | |
| SQ6EMJ | 2026-09-01 00:12:42 | 51.40782 | 17.73510 | 173° | 29km/h | 18037m | 4.1m/s | 0°C | 0% | 0hPa | 0V | 00:00:00 | 00:00:00 | 00:00:00 | |
| KRY50SP | 2026-09-01 00:12:37 | 51.40792 | 17.73477 | 74° | 29km/h | 18034m | 2.1m/s | 0°C | 0% | 0hPa | 0V | 00:00:00 | 00:00:00 | 00:00:00 | |
| SQ6EMJ | 2026-09-01 00:12:36 | 51.40791 | 17.73464 | 101° | 29km/h | 18031m | 3.1m/s | 0°C | 0% | 0hPa | 0V | 00:00:00 | 00:00:00 | 00:00:00 | |
| SP6BVK | 2026-09-01 00:12:32 | 51.40801 | 17.73422 | 89° | 20km/h | 18022m | 5.6m/s | 0°C | 0% | 0hPa | 0V | 00:00:00 | 00:00:00 | 00:00:00 | |
| SQ6EMJ | 2026-09-01 00:12:31 | 51.40801 | 17.73414 | 79° | 18km/h | 18019m | 6.4m/s | 0°C | 0% | 0hPa | 0V | 00:00:00 | 00:00:00 | 00:00:00 | |
| SQ6EMJ | 2026-09-01 00:12:26 | 51.40804 | 17.73367 | 71° | 27km/h | 18001m | 5.2m/s | 0°C | 0% | 0hPa | 0V | 00:00:00 | 00:00:00 | 00:00:00 | |
| SQ6EMJ | 2026-09-01 00:12:21 | 51.40799 | 17.73316 | 61° | 18km/h | 17970m | 12.4m/s | 0°C | 0% | 0hPa | 0V | 00:00:00 | 00:00:00 | 00:00:00 | |
| KRY50SP | 2026-09-01 00:12:19 | 51.40793 | 17.73301 | 62° | 26km/h | 17952m | 4.4m/s | 0°C | 0% | 0hPa | 0V | 00:00:00 | 00:00:00 | 00:00:00 | |
| SP3BTT-10 | 2026-09-01 00:12:15 | 51.40788 | 17.73257 | 71° | 37km/h | 17940m | 7.4m/s | 0°C | 0% | 0hPa | 0V | 00:00:00 | 00:00:00 | 00:00:00 | |
| KRY50SP | 2026-09-01 00:12:13 | 51.40784 | 17.73229 | 86° | 29km/h | 17928m | 6.2m/s | 0°C | 0% | 0hPa | 0V | 00:00:00 | 00:00:00 | 00:00:00 | |
| SQ6EMJ | 2026-09-01 00:12:10 | 51.40783 | 17.73199 | 63° | 31km/h | 17909m | 5.7m/s | 0°C | 0% | 0hPa | 0V | 00:00:00 | 00:00:00 | 00:00:00 | |
| KRY50SP | 2026-09-01 00:12:06 | 51.40774 | 17.73151 | 89° | 37km/h | 17891m | 4.2m/s | 0°C | 0% | 0hPa | 0V | 00:00:00 | 00:00:00 | 00:00:00 | |
| SQ6EMJ | 2026-09-01 00:12:04 | 51.40771 | 17.73119 | 77° | 38km/h | 17880m | 4.5m/s | 0°C | 0% | 0hPa | 0V | 00:00:00 | 00:00:00 | 00:00:00 | |
| SP6BVK | 2026-09-01 00:12:02 | 51.40766 | 17.73093 | 87° | 33km/h | 17869m | 4.7m/s | 0°C | 0% | 0hPa | 0V | 00:00:00 | 00:00:00 | 00:00:00 | |
| SQ6EMJ | 2026-09-01 00:11:59 | 51.40757 | 17.73056 | 65° | 42km/h | 17859m | 5.3m/s | 0°C | 0% | 0hPa | 0V | 00:00:00 | 00:00:00 | 00:00:00 | |
| KRY50SP | 2026-09-01 00:11:55 | 51.40753 | 17.72999 | 92° | 24km/h | 17844m | 4.3m/s | 0°C | 0% | 0hPa | 0V | 00:00:00 | 00:00:00 | 00:00:00 | |
| SQ6EMJ | 2026-09-01 00:11:53 | 51.40748 | 17.72979 | 49° | 38km/h | 17834m | 4.2m/s | 0°C | 0% | 0hPa | 0V | 00:00:00 | 00:00:00 | 00:00:00 | |
| SQ6EMJ | 2026-09-01 00:11:48 | 51.40728 | 17.72920 | 84° | 37km/h | 17816m | 4.4m/s | 0°C | 0% | 0hPa | 0V | 00:00:00 | 00:00:00 | 00:00:00 | |
| KRY50SP | 2026-09-01 00:11:46 | 51.40727 | 17.72899 | 69° | 22km/h | 17811m | 6.5m/s | 0°C | 0% | 0hPa | 0V | 00:00:00 | 00:00:00 | 00:00:00 | |
| SQ6EMJ | 2026-09-01 00:11:42 | 51.40704 | 17.72864 | 57° | 55km/h | 17788m | 5.0m/s | 0°C | 0% | 0hPa | 0V | 00:00:00 | 00:00:00 | 00:00:00 | |
| SP6BVK | 2026-09-01 00:11:38 | 51.40690 | 17.72809 | 94° | 24km/h | 17765m | 6.4m/s | 0°C | 0% | 0hPa | 0V | 00:00:00 | 00:00:00 | 00:00:00 | |
| KRY50SP | 2026-09-01 00:11:37 | 51.40689 | 17.72799 | 77° | 27km/h | 17757m | 5.6m/s | 0°C | 0% | 0hPa | 0V | 00:00:00 | 00:00:00 | 00:00:00 | |
| SQ6EMJ | 2026-09-01 00:11:34 | 51.40672 | 17.72764 | 41° | 47km/h | 17742m | 4.4m/s | 0°C | 0% | 0hPa | 0V | 00:00:00 | 00:00:00 | 00:00:00 | |
| KRY50SP | 2026-09-01 00:11:31 | 51.40654 | 17.72723 | 74° | 42km/h | 17724m | 7.2m/s | 0°C | 0% | 0hPa | 0V | 00:00:00 | 00:00:00 | 00:00:00 | |
| SP3BTT-10 | 2026-09-01 00:11:29 | 51.40647 | 17.72696 | 54° | 38km/h | 17713m | 6.8m/s | 0°C | 0% | 0hPa | 0V | 00:00:00 | 00:00:00 | 00:00:00 | |
| SQ6EMJ | 2026-09-01 00:11:26 | 51.40630 | 17.72660 | 50° | 49km/h | 17693m | 5.3m/s | 0°C | 0% | 0hPa | 0V | 00:00:00 | 00:00:00 | 00:00:00 | |
| KRY50SP | 2026-09-01 00:11:24 | 51.40618 | 17.72624 | 71° | 40km/h | 17683m | 5.7m/s | 0°C | 0% | 0hPa | 0V | 00:00:00 | 00:00:00 | 00:00:00 | |
| SQ6EMJ | 2026-09-01 00:11:21 | 51.40609 | 17.72585 | 50° | 26km/h | 17667m | 5.1m/s | 0°C | 0% | 0hPa | 0V | 00:00:00 | 00:00:00 | 00:00:00 | |
| SP6BVK | 2026-09-01 00:11:16 | 51.40578 | 17.72530 | 55° | 40km/h | 17642m | 7.3m/s | 0°C | 0% | 0hPa | 0V | 00:00:00 | 00:00:00 | 00:00:00 | |
| KRY50SP | 2026-09-01 00:11:14 | 51.40570 | 17.72503 | 60° | 31km/h | 17632m | 4.4m/s | 0°C | 0% | 0hPa | 0V | 00:00:00 | 00:00:00 | 00:00:00 | |
| KRY50SP | 2026-09-01 00:11:08 | 51.40528 | 17.72438 | 51° | 29km/h | 17600m | 5.6m/s | 0°C | 0% | 0hPa | 0V | 00:00:00 | 00:00:00 | 00:00:00 | |
| SQ6EMJ | 2026-09-01 00:11:03 | 51.40496 | 17.72372 | 51° | 38km/h | 17573m | 4.2m/s | 0°C | 0% | 0hPa | 0V | 00:00:00 | 00:00:00 | 00:00:00 | |
| KRY50SP | 2026-09-01 00:11:02 | 51.40489 | 17.72359 | 48° | 44km/h | 17568m | 2.8m/s | 0°C | 0% | 0hPa | 0V | 00:00:00 | 00:00:00 | 00:00:00 | |
| SQ6EMJ | 2026-09-01 00:10:56 | 51.40457 | 17.72284 | 65° | 44km/h | 17535m | 5.7m/s | 0°C | 0% | 0hPa | 0V | 00:00:00 | 00:00:00 | 00:00:00 | |
| SP6BVK | 2026-09-01 00:10:53 | 51.40440 | 17.72245 | 47° | 40km/h | 17521m | 4.6m/s | 0°C | 0% | 0hPa | 0V | 00:00:00 | 00:00:00 | 00:00:00 | |
| KRY50SP | 2026-09-01 00:10:51 | 51.40429 | 17.72221 | 64° | 38km/h | 17512m | 3.8m/s | 0°C | 0% | 0hPa | 0V | 00:00:00 | 00:00:00 | 00:00:00 | |
| SQ6EMJ | 2026-09-01 00:10:50 | 51.40425 | 17.72207 | 59° | 37km/h | 17506m | 7.7m/s | 0°C | 0% | 0hPa | 0V | 00:00:00 | 00:00:00 | 00:00:00 | |
| SP3BTT-10 | 2026-09-01 00:10:44 | 51.40392 | 17.72125 | 52° | 29km/h | 17472m | 4.8m/s | 0°C | 0% | 0hPa | 0V | 00:00:00 | 00:00:00 | 00:00:00 | |
| KRY50SP | 2026-09-01 00:10:41 | 51.40375 | 17.72094 | 53° | 26km/h | 17457m | 5.2m/s | 0°C | 0% | 0hPa | 0V | 00:00:00 | 00:00:00 | 00:00:00 | |
| SQ6EMJ | 2026-09-01 00:10:36 | 51.40351 | 17.72033 | 45° | 44km/h | 17428m | 6.2m/s | 0°C | 0% | 0hPa | 0V | 00:00:00 | 00:00:00 | 00:00:00 | |
| SQ6EMJ | 2026-09-01 00:10:31 | 51.40328 | 17.71987 | 48° | 24km/h | 17399m | 2.9m/s | 0°C | 0% | 0hPa | 0V | 00:00:00 | 00:00:00 | 00:00:00 | |
| KRY50SP | 2026-09-01 00:10:27 | 51.40304 | 17.71940 | 65° | 38km/h | 17375m | 5.8m/s | 0°C | 0% | 0hPa | 0V | 00:00:00 | 00:00:00 | 00:00:00 | |
| SP6BVK | 2026-09-01 00:10:26 | 51.40299 | 17.71930 | 45° | 27km/h | 17369m | 5.7m/s | 0°C | 0% | 0hPa | 0V | 00:00:00 | 00:00:00 | 00:00:00 | |
| SQ6EMJ | 2026-09-01 00:10:25 | 51.40294 | 17.71923 | 43° | 18km/h | 17363m | 3.9m/s | 0°C | 0% | 0hPa | 0V | 00:00:00 | 00:00:00 | 00:00:00 | |
| SQ6EMJ | 2026-09-01 00:10:21 | 51.40268 | 17.71872 | 50° | 35km/h | 17336m | 4.9m/s | 0°C | 0% | 0hPa | 0V | 00:00:00 | 00:00:00 | 00:00:00 | |
| SQ6EMJ | 2026-09-01 00:10:14 | 51.40230 | 17.71825 | 44° | 24km/h | 17298m | 4.6m/s | 0°C | 0% | 0hPa | 0V | 00:00:00 | 00:00:00 | 00:00:00 | |
| SQ6EMJ | 2026-09-01 00:10:09 | 51.40216 | 17.71768 | 57° | 22km/h | 17271m | 1.5m/s | 0°C | 0% | 0hPa | 0V | 00:00:00 | 00:00:00 | 00:00:00 | |
| SP6BVK | 2026-09-01 00:10:05 | 51.40192 | 17.71729 | 62° | 33km/h | 17241m | 5.7m/s | 0°C | 0% | 0hPa | 0V | 00:00:00 | 00:00:00 | 00:00:00 | |
| KRY50SP | 2026-09-01 00:10:04 | 51.40188 | 17.71717 | 72° | 27km/h | 17235m | 6.2m/s | 0°C | 0% | 0hPa | 0V | 00:00:00 | 00:00:00 | 00:00:00 | |
| KRY50SP | 2026-09-01 00:09:58 | 51.40177 | 17.71652 | 78° | 22km/h | 17203m | 3.1m/s | 0°C | 0% | 0hPa | 0V | 00:00:00 | 00:00:00 | 00:00:00 | |
| SP3BTT-10 | 2026-09-01 00:09:55 | 51.40170 | 17.71631 | 56° | 49km/h | 17198m | 4.6m/s | 0°C | 0% | 0hPa | 0V | 00:00:00 | 00:00:00 | 00:00:00 | |
| SQ6EMJ | 2026-09-01 00:09:53 | 51.40162 | 17.71605 | 73° | 35km/h | 17193m | 5.9m/s | 0°C | 0% | 0hPa | 0V | 00:00:00 | 00:00:00 | 00:00:00 | |
| SQ6EMJ | 2026-09-01 00:09:47 | 51.40151 | 17.71559 | 71° | 38km/h | 17161m | 4.8m/s | 0°C | 0% | 0hPa | 0V | 00:00:00 | 00:00:00 | 00:00:00 | |
| SP6BVK | 2026-09-01 00:09:44 | 51.40145 | 17.71508 | 72° | 38km/h | 17147m | 6.4m/s | 0°C | 0% | 0hPa | 0V | 00:00:00 | 00:00:00 | 00:00:00 | |
| KRY50SP | 2026-09-01 00:09:41 | 51.40138 | 17.71475 | 92° | 20km/h | 17132m | 5.9m/s | 0°C | 0% | 0hPa | 0V | 00:00:00 | 00:00:00 | 00:00:00 | |
| SQ6EMJ | 2026-09-01 00:09:35 | 51.40135 | 17.71409 | 87° | 33km/h | 17101m | 6.8m/s | 0°C | 0% | 0hPa | 0V | 00:00:00 | 00:00:00 | 00:00:00 | |
| KRY50SP | 2026-09-01 00:09:31 | 51.40134 | 17.71358 | 73° | 31km/h | 17078m | 5.9m/s | 0°C | 0% | 0hPa | 0V | 00:00:00 | 00:00:00 | 00:00:00 | |
| SQ6EMJ | 2026-09-01 00:09:29 | 51.40129 | 17.71334 | 86° | 31km/h | 17065m | 4.3m/s | 0°C | 0% | 0hPa | 0V | 00:00:00 | 00:00:00 | 00:00:00 | |
| KRY50SP | 2026-09-01 00:09:25 | 51.40124 | 17.71280 | 81° | 37km/h | 17045m | 2.8m/s | 0°C | 0% | 0hPa | 0V | 00:00:00 | 00:00:00 | 00:00:00 | |
| SP6BVK | 2026-09-01 00:09:24 | 51.40123 | 17.71265 | 86° | 31km/h | 17042m | 5.0m/s | 0°C | 0% | 0hPa | 0V | 00:00:00 | 00:00:00 | 00:00:00 | |
| SQ6EMJ | 2026-09-01 00:09:23 | 51.40124 | 17.71251 | 99° | 27km/h | 17038m | 4.2m/s | 0°C | 0% | 0hPa | 0V | 00:00:00 | 00:00:00 | 00:00:00 | |
| SQ6EMJ | 2026-09-01 00:09:18 | 51.40114 | 17.71169 | 73° | 38km/h | 17016m | 5.7m/s | 0°C | 0% | 0hPa | 0V | 00:00:00 | 00:00:00 | 00:00:00 | |
| KRY50SP | 2026-09-01 00:09:13 | 51.40105 | 17.71090 | 81° | 49km/h | 16987m | 4.9m/s | 0°C | 0% | 0hPa | 0V | 00:00:00 | 00:00:00 | 00:00:00 | |
| SQ6EMJ | 2026-09-01 00:09:12 | 51.40103 | 17.71070 | 87° | 46km/h | 16982m | 4.6m/s | 0°C | 0% | 0hPa | 0V | 00:00:00 | 00:00:00 | 00:00:00 | |
| SQ6EMJ | 2026-09-01 00:09:06 | 51.40077 | 17.70973 | 72° | 42km/h | 16954m | 6.0m/s | 0°C | 0% | 0hPa | 0V | 00:00:00 | 00:00:00 | 00:00:00 | |
| SP6BVK | 2026-09-01 00:09:03 | 51.40069 | 17.70923 | 67° | 51km/h | 16938m | 5.3m/s | 0°C | 0% | 0hPa | 0V | 00:00:00 | 00:00:00 | 00:00:00 | |
| SQ6EMJ | 2026-09-01 00:09:00 | 51.40046 | 17.70864 | 62° | 57km/h | 16921m | 5.8m/s | 0°C | 0% | 0hPa | 0V | 00:00:00 | 00:00:00 | 00:00:00 | |
| KRY50SP | 2026-09-01 00:08:55 | 51.40025 | 17.70769 | 76° | 53km/h | 16895m | 5.7m/s | 0°C | 0% | 0hPa | 0V | 00:00:00 | 00:00:00 | 00:00:00 | |
| SQ6EMJ | 2026-09-01 00:08:49 | 51.39995 | 17.70649 | 82° | 49km/h | 16867m | 4.7m/s | 0°C | 0% | 0hPa | 0V | 00:00:00 | 00:00:00 | 00:00:00 | |
| SP3BTT-10 | 2026-09-01 00:08:44 | 51.39980 | 17.70548 | 72° | 64km/h | 16845m | 4.4m/s | 0°C | 0% | 0hPa | 0V | 00:00:00 | 00:00:00 | 00:00:00 | |
| KRY50SP | 2026-09-01 00:08:39 | 51.39963 | 17.70447 | 92° | 47km/h | 16822m | 6.8m/s | 0°C | 0% | 0hPa | 0V | 00:00:00 | 00:00:00 | 00:00:00 | |
| SQ6EMJ | 2026-09-01 00:08:34 | 51.39945 | 17.70331 | 84° | 58km/h | 16795m | 4.8m/s | 0°C | 0% | 0hPa | 0V | 00:00:00 | 00:00:00 | 00:00:00 | |
| SP6BVK | 2026-09-01 00:08:30 | 51.39941 | 17.70262 | 84° | 55km/h | 16779m | 4.7m/s | 0°C | 0% | 0hPa | 0V | 00:00:00 | 00:00:00 | 00:00:00 | |
| SQ6EMJ | 2026-09-01 00:08:27 | 51.39933 | 17.70199 | 77° | 51km/h | 16766m | 3.6m/s | 0°C | 0% | 0hPa | 0V | 00:00:00 | 00:00:00 | 00:00:00 | |
| SQ6EMJ | 2026-09-01 00:08:22 | 51.39928 | 17.70097 | 100° | 66km/h | 16745m | 3.9m/s | 0°C | 0% | 0hPa | 0V | 00:00:00 | 00:00:00 | 00:00:00 | |
| SQ6EMJ | 2026-09-01 00:08:17 | 51.39914 | 17.69995 | 64° | 38km/h | 16725m | 1.7m/s | 0°C | 0% | 0hPa | 0V | 00:00:00 | 00:00:00 | 00:00:00 | |
| SQ6EMJ | 2026-09-01 00:08:10 | 51.39910 | 17.69829 | 80° | 55km/h | 16691m | 7.8m/s | 0°C | 0% | 0hPa | 0V | 00:00:00 | 00:00:00 | 00:00:00 | |
| SP6BVK | 2026-09-01 00:08:06 | 51.39909 | 17.69743 | 88° | 57km/h | 16665m | 7.3m/s | 0°C | 0% | 0hPa | 0V | 00:00:00 | 00:00:00 | 00:00:00 | |
| SQ6EMJ | 2026-09-01 00:08:04 | 51.39907 | 17.69696 | 87° | 64km/h | 16653m | 5.1m/s | 0°C | 0% | 0hPa | 0V | 00:00:00 | 00:00:00 | 00:00:00 | |
| SQ6EMJ | 2026-09-01 00:07:58 | 51.39896 | 17.69525 | 93° | 75km/h | 16619m | 6.2m/s | 0°C | 0% | 0hPa | 0V | 00:00:00 | 00:00:00 | 00:00:00 | |
| SQ6EMJ | 2026-09-01 00:07:53 | 51.39881 | 17.69386 | 81° | 68km/h | 16588m | 6.1m/s | 0°C | 0% | 0hPa | 0V | 00:00:00 | 00:00:00 | 00:00:00 | |
| SQ6EMJ | 2026-09-01 00:07:48 | 51.39866 | 17.69249 | 75° | 62km/h | 16562m | 4.8m/s | 0°C | 0% | 0hPa | 0V | 00:00:00 | 00:00:00 | 00:00:00 | |
| SP3BTT-10 | 2026-09-01 00:07:43 | 51.39841 | 17.69119 | 77° | 71km/h | 16538m | 3.8m/s | 0°C | 0% | 0hPa | 0V | 00:00:00 | 00:00:00 | 00:00:00 | |
| SQ6EMJ | 2026-09-01 00:07:42 | 51.39838 | 17.69094 | 84° | 60km/h | 16534m | 2.3m/s | 0°C | 0% | 0hPa | 0V | 00:00:00 | 00:00:00 | 00:00:00 | |
| KRY50SP | 2026-09-01 00:07:40 | 51.39834 | 17.69043 | 82° | 69km/h | 16531m | 1.9m/s | 0°C | 0% | 0hPa | 0V | 00:00:00 | 00:00:00 | 00:00:00 | |
| SP6BVK | 2026-09-01 00:07:36 | 51.39820 | 17.68939 | 74° | 58km/h | 16519m | 4.6m/s | 0°C | 0% | 0hPa | 0V | 00:00:00 | 00:00:00 | 00:00:00 | |
| SQ6EMJ | 2026-09-01 00:07:30 | 51.39788 | 17.68793 | 76° | 64km/h | 16496m | 4.8m/s | 0°C | 0% | 0hPa | 0V | 00:00:00 | 00:00:00 | 00:00:00 | |
| SQ6EMJ | 2026-09-01 00:07:25 | 51.39757 | 17.68641 | 64° | 60km/h | 16473m | 3.0m/s | 0°C | 0% | 0hPa | 0V | 00:00:00 | 00:00:00 | 00:00:00 | |
| SQ6EMJ | 2026-09-01 00:07:19 | 51.39723 | 17.68512 | 64° | 62km/h | 16453m | 4.2m/s | 0°C | 0% | 0hPa | 0V | 00:00:00 | 00:00:00 | 00:00:00 | |
| SQ6EMJ | 2026-09-01 00:07:14 | 51.39682 | 17.68396 | 63° | 62km/h | 16427m | 6.0m/s | 0°C | 0% | 0hPa | 0V | 00:00:00 | 00:00:00 | 00:00:00 | |
| SP6BVK | 2026-09-01 00:07:10 | 51.39652 | 17.68286 | 65° | 84km/h | 16407m | 3.6m/s | 0°C | 0% | 0hPa | 0V | 00:00:00 | 00:00:00 | 00:00:00 | |
| SQ6EMJ | 2026-09-01 00:07:08 | 51.39632 | 17.68235 | 55° | 64km/h | 16398m | 3.7m/s | 0°C | 0% | 0hPa | 0V | 00:00:00 | 00:00:00 | 00:00:00 | |
| KRY50SP | 2026-09-01 00:07:04 | 51.39596 | 17.68137 | 61° | 73km/h | 16381m | 5.8m/s | 0°C | 0% | 0hPa | 0V | 00:00:00 | 00:00:00 | 00:00:00 | |
| SQ6EMJ | 2026-09-01 00:07:02 | 51.39578 | 17.68080 | 60° | 80km/h | 16369m | 6.1m/s | 0°C | 0% | 0hPa | 0V | 00:00:00 | 00:00:00 | 00:00:00 | |
| SP3BTT-10 | 2026-09-01 00:06:58 | 51.39536 | 17.67979 | 48° | 55km/h | 16355m | 2.3m/s | 0°C | 0% | 0hPa | 0V | 00:00:00 | 00:00:00 | 00:00:00 | |
| SQ6EMJ | 2026-09-01 00:06:55 | 51.39492 | 17.67883 | 64° | 82km/h | 16339m | 4.8m/s | 0°C | 0% | 0hPa | 0V | 00:00:00 | 00:00:00 | 00:00:00 | |
| SQ6EMJ | 2026-09-01 00:06:50 | 51.39435 | 17.67764 | 54° | 78km/h | 16316m | 5.1m/s | 0°C | 0% | 0hPa | 0V | 00:00:00 | 00:00:00 | 00:00:00 | |
| SQ6EMJ | 2026-09-01 00:06:41 | 51.39354 | 17.67583 | 48° | 77km/h | 16278m | 4.9m/s | 0°C | 0% | 0hPa | 0V | 00:00:00 | 00:00:00 | 00:00:00 | |
| SP6BVK | 2026-09-01 00:06:38 | 51.39319 | 17.67508 | 57° | 71km/h | 16267m | 4.5m/s | 0°C | 0% | 0hPa | 0V | 00:00:00 | 00:00:00 | 00:00:00 | |
| SQ6EMJ | 2026-09-01 00:06:35 | 51.39292 | 17.67453 | 47° | 55km/h | 16255m | 6.9m/s | 0°C | 0% | 0hPa | 0V | 00:00:00 | 00:00:00 | 00:00:00 | |
| SQ6EMJ | 2026-09-01 00:06:30 | 51.39238 | 17.67320 | 61° | 66km/h | 16225m | 6.3m/s | 0°C | 0% | 0hPa | 0V | 00:00:00 | 00:00:00 | 00:00:00 | |
| SQ6EMJ | 2026-09-01 00:06:24 | 51.39202 | 17.67232 | 63° | 55km/h | 16202m | 5.2m/s | 0°C | 0% | 0hPa | 0V | 00:00:00 | 00:00:00 | 00:00:00 | |
| KRY50SP | 2026-09-01 00:06:22 | 51.39183 | 17.67183 | 58° | 75km/h | 16191m | 3.4m/s | 0°C | 0% | 0hPa | 0V | 00:00:00 | 00:00:00 | 00:00:00 | |
| SQ6EMJ | 2026-09-01 00:06:18 | 51.39153 | 17.67118 | 34° | 35km/h | 16170m | 4.5m/s | 0°C | 0% | 0hPa | 0V | 00:00:00 | 00:00:00 | 00:00:00 | |
| KRY50SP | 2026-09-01 00:06:16 | 51.39138 | 17.67093 | 53° | 57km/h | 16161m | 4.8m/s | 0°C | 0% | 0hPa | 0V | 00:00:00 | 00:00:00 | 00:00:00 | |
| SQ6EMJ | 2026-09-01 00:06:13 | 51.39114 | 17.67027 | 68° | 60km/h | 16149m | 4.3m/s | 0°C | 0% | 0hPa | 0V | 00:00:00 | 00:00:00 | 00:00:00 | |
| SP6BVK | 2026-09-01 00:06:08 | 51.39078 | 17.66916 | 59° | 55km/h | 16118m | 4.6m/s | 0°C | 0% | 0hPa | 0V | 00:00:00 | 00:00:00 | 00:00:00 | |
| SQ6EMJ | 2026-09-01 00:06:01 | 51.39040 | 17.66815 | 53° | 51km/h | 16084m | 4.2m/s | 0°C | 0% | 0hPa | 0V | 00:00:00 | 00:00:00 | 00:00:00 | |
| SP3BTT-10 | 2026-09-01 00:05:58 | 51.39021 | 17.66770 | 65° | 40km/h | 16072m | 5.1m/s | 0°C | 0% | 0hPa | 0V | 00:00:00 | 00:00:00 | 00:00:00 | |
| SQ6EMJ | 2026-09-01 00:05:56 | 51.39009 | 17.66732 | 61° | 53km/h | 16064m | 4.2m/s | 0°C | 0% | 0hPa | 0V | 00:00:00 | 00:00:00 | 00:00:00 | |
| SQ6EMJ | 2026-09-01 00:05:50 | 51.38968 | 17.66640 | 65° | 46km/h | 16038m | 4.7m/s | 0°C | 0% | 0hPa | 0V | 00:00:00 | 00:00:00 | 00:00:00 | |
| KRY50SP | 2026-09-01 00:05:48 | 51.38959 | 17.66612 | 67° | 33km/h | 16029m | 4.3m/s | 0°C | 0% | 0hPa | 0V | 00:00:00 | 00:00:00 | 00:00:00 | |
| SQ6EMJ | 2026-09-01 00:05:47 | 51.38942 | 17.66566 | 53° | 53km/h | 16014m | 4.8m/s | 0°C | 0% | 0hPa | 0V | 00:00:00 | 00:00:00 | 00:00:00 | |
| KRY50SP | 2026-09-01 00:05:44 | 51.38927 | 17.66537 | 54° | 42km/h | 16006m | 3.2m/s | 0°C | 0% | 0hPa | 0V | 00:00:00 | 00:00:00 | 00:00:00 | |
| SQ6EMJ | 2026-09-01 00:05:40 | 51.38912 | 17.66495 | 63° | 38km/h | 15992m | 5.5m/s | 0°C | 0% | 0hPa | 0V | 00:00:00 | 00:00:00 | 00:00:00 | |
| SQ6EMJ | 2026-09-01 00:05:36 | 51.38873 | 17.66411 | 61° | 38km/h | 15960m | 4.6m/s | 0°C | 0% | 0hPa | 0V | 00:00:00 | 00:00:00 | 00:00:00 | |
| SQ6EMJ | 2026-09-01 00:05:30 | 51.38844 | 17.66345 | 45° | 42km/h | 15937m | 7.1m/s | 0°C | 0% | 0hPa | 0V | 00:00:00 | 00:00:00 | 00:00:00 | |
| KRY50SP | 2026-09-01 00:05:25 | 51.38818 | 17.66287 | 61° | 31km/h | 15908m | 3.7m/s | 0°C | 0% | 0hPa | 0V | 00:00:00 | 00:00:00 | 00:00:00 | |
| SQ6EMJ | 2026-09-01 00:05:24 | 51.38813 | 17.66278 | 42° | 35km/h | 15903m | 5.2m/s | 0°C | 0% | 0hPa | 0V | 00:00:00 | 00:00:00 | 00:00:00 | |
| SQ6EMJ | 2026-09-01 00:05:20 | 51.38785 | 17.66218 | 60° | 27km/h | 15878m | 5.5m/s | 0°C | 0% | 0hPa | 0V | 00:00:00 | 00:00:00 | 00:00:00 | |
| KRY50SP | 2026-09-01 00:05:16 | 51.38771 | 17.66183 | 59° | 42km/h | 15866m | 5.2m/s | 0°C | 0% | 0hPa | 0V | 00:00:00 | 00:00:00 | 00:00:00 | |
| SP3BTT-10 | 2026-09-01 00:05:13 | 51.38761 | 17.66157 | 56° | 37km/h | 15857m | 5.6m/s | 0°C | 0% | 0hPa | 0V | 00:00:00 | 00:00:00 | 00:00:00 | |
| SQ6EMJ | 2026-09-01 00:05:12 | 51.38756 | 17.66145 | 55° | 33km/h | 15852m | 5.9m/s | 0°C | 0% | 0hPa | 0V | 00:00:00 | 00:00:00 | 00:00:00 | |
| SQ6EMJ | 2026-09-01 00:05:07 | 51.38726 | 17.66077 | 66° | 35km/h | 15821m | 5.2m/s | 0°C | 0% | 0hPa | 0V | 00:00:00 | 00:00:00 | 00:00:00 | |
| SQ6EMJ | 2026-09-01 00:05:01 | 51.38701 | 17.66011 | 55° | 33km/h | 15786m | 5.3m/s | 0°C | 0% | 0hPa | 0V | 00:00:00 | 00:00:00 | 00:00:00 | |
| SQ6EMJ | 2026-09-01 00:04:54 | 51.38671 | 17.65936 | 48° | 33km/h | 15750m | 5.2m/s | 0°C | 0% | 0hPa | 0V | 00:00:00 | 00:00:00 | 00:00:00 | |
| KRY50SP | 2026-09-01 00:04:50 | 51.38655 | 17.65886 | 68° | 26km/h | 15723m | 5.9m/s | 0°C | 0% | 0hPa | 0V | 00:00:00 | 00:00:00 | 00:00:00 | |
| SQ6EMJ | 2026-09-01 00:04:49 | 51.38648 | 17.65863 | 70° | 37km/h | 15711m | 5.6m/s | 0°C | 0% | 0hPa | 0V | 00:00:00 | 00:00:00 | 00:00:00 | |
| KRY50SP | 2026-09-01 00:04:44 | 51.38632 | 17.65829 | 48° | 31km/h | 15698m | 5.6m/s | 0°C | 0% | 0hPa | 0V | 00:00:00 | 00:00:00 | 00:00:00 | |
| SQ6EMJ | 2026-09-01 00:04:40 | 51.38623 | 17.65797 | 83° | 33km/h | 15681m | 5.2m/s | 0°C | 0% | 0hPa | 0V | 00:00:00 | 00:00:00 | 00:00:00 | |
| SQ6EMJ | 2026-09-01 00:04:35 | 51.38602 | 17.65719 | 59° | 31km/h | 15650m | 4.7m/s | 0°C | 0% | 0hPa | 0V | 00:00:00 | 00:00:00 | 00:00:00 | |
| SP6BVK | 2026-09-01 00:04:34 | 51.38598 | 17.65708 | 66° | 27km/h | 15647m | 3.9m/s | 0°C | 0% | 0hPa | 0V | 00:00:00 | 00:00:00 | 00:00:00 | |
| SQ6EMJ | 2026-09-01 00:04:31 | 51.38590 | 17.65649 | 72° | 42km/h | 15626m | 5.9m/s | 0°C | 0% | 0hPa | 0V | 00:00:00 | 00:00:00 | 00:00:00 | |
| SP3BTT-10 | 2026-09-01 00:04:27 | 51.38580 | 17.65619 | 58° | 47km/h | 15616m | 5.4m/s | 0°C | 0% | 0hPa | 0V | 00:00:00 | 00:00:00 | 00:00:00 | |
| SQ6EMJ | 2026-09-01 00:04:23 | 51.38571 | 17.65564 | 77° | 37km/h | 15596m | 6.1m/s | 0°C | 0% | 0hPa | 0V | 00:00:00 | 00:00:00 | 00:00:00 | |
| SQ6EMJ | 2026-09-01 00:04:19 | 51.38556 | 17.65495 | 88° | 38km/h | 15571m | 5.4m/s | 0°C | 0% | 0hPa | 0V | 00:00:00 | 00:00:00 | 00:00:00 | |
| KRY50SP | 2026-09-01 00:04:14 | 51.38547 | 17.65434 | 77° | 44km/h | 15548m | 5.3m/s | 0°C | 0% | 0hPa | 0V | 00:00:00 | 00:00:00 | 00:00:00 | |
| SQ6EMJ | 2026-09-01 00:04:12 | 51.38544 | 17.65394 | 81° | 57km/h | 15540m | 3.7m/s | 0°C | 0% | 0hPa | 0V | 00:00:00 | 00:00:00 | 00:00:00 | |
| SQ6EMJ | 2026-09-01 00:04:06 | 51.38522 | 17.65279 | 80° | 47km/h | 15511m | 6.7m/s | 0°C | 0% | 0hPa | 0V | 00:00:00 | 00:00:00 | 00:00:00 | |
| KRY50SP | 2026-09-01 00:04:05 | 51.38520 | 17.65260 | 80° | 47km/h | 15505m | 5.5m/s | 0°C | 0% | 0hPa | 0V | 00:00:00 | 00:00:00 | 00:00:00 | |
| SQ6EMJ | 2026-09-01 00:04:00 | 51.38506 | 17.65159 | 59° | 44km/h | 15479m | 3.9m/s | 0°C | 0% | 0hPa | 0V | 00:00:00 | 00:00:00 | 00:00:00 | |
| KRY50SP | 2026-09-01 00:03:57 | 51.38493 | 17.65101 | 86° | 58km/h | 15463m | 5.2m/s | 0°C | 0% | 0hPa | 0V | 00:00:00 | 00:00:00 | 00:00:00 | |
| SQ6EMJ | 2026-09-01 00:03:53 | 51.38488 | 17.65022 | 77° | 42km/h | 15443m | 5.2m/s | 0°C | 0% | 0hPa | 0V | 00:00:00 | 00:00:00 | 00:00:00 | |
| KRY50SP | 2026-09-01 00:03:52 | 51.38476 | 17.64964 | 72° | 55km/h | 15429m | 4.5m/s | 0°C | 0% | 0hPa | 0V | 00:00:00 | 00:00:00 | 00:00:00 | |
| SQ6EMJ | 2026-09-01 00:03:51 | 51.38461 | 17.64906 | 74° | 57km/h | 15414m | 6.2m/s | 0°C | 0% | 0hPa | 0V | 00:00:00 | 00:00:00 | 00:00:00 | |
| KRY50SP | 2026-09-01 00:03:47 | 51.38438 | 17.64806 | 63° | 53km/h | 15394m | 6.0m/s | 0°C | 0% | 0hPa | 0V | 00:00:00 | 00:00:00 | 00:00:00 | |
| SP3BTT-10 | 2026-09-01 00:03:46 | 51.38438 | 17.64806 | 63° | 58km/h | 15394m | 5.9m/s | 0°C | 0% | 0hPa | 0V | 00:00:00 | 00:00:00 | 00:00:00 | |
| SQ6EMJ | 2026-09-01 00:03:45 | 51.38433 | 17.64786 | 72° | 57km/h | 15389m | 5.2m/s | 0°C | 0% | 0hPa | 0V | 00:00:00 | 00:00:00 | 00:00:00 | |
| SQ6EMJ | 2026-09-01 00:03:42 | 51.38408 | 17.64660 | 74° | 53km/h | 15363m | 7.0m/s | 0°C | 0% | 0hPa | 0V | 00:00:00 | 00:00:00 | 00:00:00 | |
| KRY50SP | 2026-09-01 00:03:41 | 51.38402 | 17.64619 | 77° | 47km/h | 15352m | 6.1m/s | 0°C | 0% | 0hPa | 0V | 00:00:00 | 00:00:00 | 00:00:00 | |
| SQ6EMJ | 2026-09-01 00:03:40 | 51.38395 | 17.64541 | 79° | 51km/h | 15332m | 3.2m/s | 0°C | 0% | 0hPa | 0V | 00:00:00 | 00:00:00 | 00:00:00 | |
| KRY50SP | 2026-09-01 00:03:37 | 51.38379 | 17.64462 | 79° | 58km/h | 15314m | 5.2m/s | 0°C | 0% | 0hPa | 0V | 00:00:00 | 00:00:00 | 00:00:00 | |
| SQ6EMJ | 2026-09-01 00:03:36 | 51.38369 | 17.64393 | 76° | 51km/h | 15301m | 4.3m/s | 0°C | 0% | 0hPa | 0V | 00:00:00 | 00:00:00 | 00:00:00 | |
| KRY50SP | 2026-09-01 00:03:34 | 51.38362 | 17.64331 | 83° | 53km/h | 15284m | 5.8m/s | 0°C | 0% | 0hPa | 0V | 00:00:00 | 00:00:00 | 00:00:00 | |
| SQ6EMJ | 2026-09-01 00:03:33 | 51.38356 | 17.64291 | 71° | 51km/h | 15272m | 3.3m/s | 0°C | 0% | 0hPa | 0V | 00:00:00 | 00:00:00 | 00:00:00 | |
| KRY50SP | 2026-09-01 00:03:31 | 51.38342 | 17.64197 | 78° | 58km/h | 15257m | 5.4m/s | 0°C | 0% | 0hPa | 0V | 00:00:00 | 00:00:00 | 00:00:00 | |
| SQ6EMJ | 2026-09-01 00:03:29 | 51.38336 | 17.64153 | 79° | 53km/h | 15250m | 5.0m/s | 0°C | 0% | 0hPa | 0V | 00:00:00 | 00:00:00 | 00:00:00 | |
| SP6BVK | 2026-09-01 00:03:25 | 51.38317 | 17.64022 | 89° | 60km/h | 15225m | 4.9m/s | 0°C | 0% | 0hPa | 0V | 00:00:00 | 00:00:00 | 00:00:00 | |
| KRY50SP | 2026-09-01 00:03:22 | 51.38312 | 17.63928 | 70° | 53km/h | 15210m | 4.5m/s | 0°C | 0% | 0hPa | 0V | 00:00:00 | 00:00:00 | 00:00:00 | |
| SQ6EMJ | 2026-09-01 00:03:15 | 51.38295 | 17.63782 | 79° | 62km/h | 15184m | 4.1m/s | 0°C | 0% | 0hPa | 0V | 00:00:00 | 00:00:00 | 00:00:00 | |
| KRY50SP | 2026-09-01 00:03:12 | 51.38273 | 17.63669 | 75° | 55km/h | 15160m | 4.2m/s | 0°C | 0% | 0hPa | 0V | 00:00:00 | 00:00:00 | 00:00:00 | |
| SQ6EMJ | 2026-09-01 00:03:11 | 51.38271 | 17.63646 | 83° | 62km/h | 15156m | 3.4m/s | 0°C | 0% | 0hPa | 0V | 00:00:00 | 00:00:00 | 00:00:00 | |
| SP6BVK | 2026-09-01 00:03:01 | 51.38245 | 17.63499 | 78° | 62km/h | 15135m | 4.6m/s | 0°C | 0% | 0hPa | 0V | 00:00:00 | 00:00:00 | 00:00:00 | |
| SP3BTT-10 | 2026-09-01 00:02:59 | 51.38242 | 17.63475 | 84° | 58km/h | 15131m | 4.0m/s | 0°C | 0% | 0hPa | 0V | 00:00:00 | 00:00:00 | 00:00:00 | |
| KRY50SP | 2026-09-01 00:02:57 | 51.38240 | 17.63449 | 82° | 66km/h | 15126m | 5.0m/s | 0°C | 0% | 0hPa | 0V | 00:00:00 | 00:00:00 | 00:00:00 | |
| KRY50SP | 2026-09-01 00:02:45 | 51.38199 | 17.63238 | 89° | 62km/h | 15093m | 3.4m/s | 0°C | 0% | 0hPa | 0V | 00:00:00 | 00:00:00 | 00:00:00 | |
| SQ6EMJ | 2026-09-01 00:02:44 | 51.38196 | 17.63193 | 65° | 58km/h | 15085m | 7.0m/s | 0°C | 0% | 0hPa | 0V | 00:00:00 | 00:00:00 | 00:00:00 | |
| KRY50SP | 2026-09-01 00:02:32 | 51.38164 | 17.63087 | 74° | 66km/h | 15061m | 3.7m/s | 0°C | 0% | 0hPa | 0V | 00:00:00 | 00:00:00 | 00:00:00 | |
| SP6BVK | 2026-09-01 00:02:31 | 51.38153 | 17.63036 | 74° | 62km/h | 15053m | 2.9m/s | 0°C | 0% | 0hPa | 0V | 00:00:00 | 00:00:00 | 00:00:00 | |
| SQ6EMJ | 2026-09-01 00:02:24 | 51.38118 | 17.62924 | 60° | 66km/h | 15028m | 3.8m/s | 0°C | 0% | 0hPa | 0V | 00:00:00 | 00:00:00 | 00:00:00 | |
| SQ6EMJ | 2026-09-01 00:02:16 | 51.38094 | 17.62806 | 61° | 58km/h | 15009m | 4.8m/s | 0°C | 0% | 0hPa | 0V | 00:00:00 | 00:00:00 | 00:00:00 | |
| KRY50SP | 2026-09-01 00:02:08 | 51.38068 | 17.62697 | 76° | 66km/h | 14991m | 5.1m/s | 0°C | 0% | 0hPa | 0V | 00:00:00 | 00:00:00 | 00:00:00 | |
| KRY50SP | 2026-09-01 00:01:59 | 51.37912 | 17.62236 | 59° | 55km/h | 14896m | 6.3m/s | 0°C | 0% | 0hPa | 0V | 00:00:00 | 00:00:00 | 00:00:00 | |
| SP6BVK | 2026-09-01 00:01:56 | 51.37888 | 17.62174 | 69° | 68km/h | 14879m | 5.8m/s | 0°C | 0% | 0hPa | 0V | 00:00:00 | 00:00:00 | 00:00:00 | |
| SQ6EMJ | 2026-09-01 00:01:45 | 51.37840 | 17.62053 | 57° | 60km/h | 14853m | 3.0m/s | 0°C | 0% | 0hPa | 0V | 00:00:00 | 00:00:00 | 00:00:00 | |
| KRY50SP | 2026-09-01 00:01:43 | 51.37833 | 17.62031 | 64° | 62km/h | 14848m | 2.5m/s | 0°C | 0% | 0hPa | 0V | 00:00:00 | 00:00:00 | 00:00:00 | |
| SQ6EMJ | 2026-09-01 00:01:38 | 51.37805 | 17.61915 | 61° | 69km/h | 14825m | 4.6m/s | 0°C | 0% | 0hPa | 0V | 00:00:00 | 00:00:00 | 00:00:00 | |
| KRY50SP | 2026-09-01 00:01:37 | 51.37796 | 17.61892 | 60° | 68km/h | 14821m | 3.5m/s | 0°C | 0% | 0hPa | 0V | 00:00:00 | 00:00:00 | 00:00:00 | |
| SQ6EMJ | 2026-09-01 00:01:32 | 51.37770 | 17.61817 | 65° | 55km/h | 14808m | 3.5m/s | 0°C | 0% | 0hPa | 0V | 00:00:00 | 00:00:00 | 00:00:00 | |
| SQ6EMJ | 2026-09-01 00:01:24 | 51.37728 | 17.61671 | 65° | 55km/h | 14783m | 3.9m/s | 0°C | 0% | 0hPa | 0V | 00:00:00 | 00:00:00 | 00:00:00 | |
| SQ6EMJ | 2026-09-01 00:01:15 | 51.37686 | 17.61511 | 72° | 78km/h | 14760m | 5.0m/s | 0°C | 0% | 0hPa | 0V | 00:00:00 | 00:00:00 | 00:00:00 | |
| SQ6EMJ | 2026-09-01 00:01:07 | 51.37640 | 17.61351 | 68° | 82km/h | 14733m | 4.4m/s | 0°C | 0% | 0hPa | 0V | 00:00:00 | 00:00:00 | 00:00:00 | |
| SP3BTT-10 | 2026-09-01 00:01:00 | 51.37577 | 17.61106 | 65° | 66km/h | 14695m | 4.4m/s | 0°C | 0% | 0hPa | 0V | 00:00:00 | 00:00:00 | 00:00:00 | |
| SP6BVK | 2026-09-01 00:00:59 | 51.37557 | 17.61026 | 70° | 66km/h | 14683m | 5.7m/s | 0°C | 0% | 0hPa | 0V | 00:00:00 | 00:00:00 | 00:00:00 | |
| SQ6EMJ | 2026-09-01 00:00:58 | 51.37544 | 17.60978 | 63° | 68km/h | 14673m | 4.9m/s | 0°C | 0% | 0hPa | 0V | 00:00:00 | 00:00:00 | 00:00:00 | |
| SQ6EMJ | 2026-09-01 00:00:47 | 51.37492 | 17.60798 | 68° | 71km/h | 14641m | 4.1m/s | 0°C | 0% | 0hPa | 0V | 00:00:00 | 00:00:00 | 00:00:00 | |
| SQ6EMJ | 2026-09-01 00:00:38 | 51.37443 | 17.60621 | 63° | 64km/h | 14611m | 3.6m/s | 0°C | 0% | 0hPa | 0V | 00:00:00 | 00:00:00 | 00:00:00 | |
| SQ6EMJ | 2026-09-01 00:00:32 | 51.37403 | 17.60477 | 74° | 69km/h | 14588m | 3.0m/s | 0°C | 0% | 0hPa | 0V | 00:00:00 | 00:00:00 | 00:00:00 | |
| SP6BVK | 2026-09-01 00:00:30 | 51.37380 | 17.60396 | 59° | 73km/h | 14578m | 4.2m/s | 0°C | 0% | 0hPa | 0V | 00:00:00 | 00:00:00 | 00:00:00 | |
| SQ6EMJ | 2026-09-01 00:00:28 | 51.37355 | 17.60314 | 66° | 57km/h | 14559m | 5.2m/s | 0°C | 0% | 0hPa | 0V | 00:00:00 | 00:00:00 | 00:00:00 | |
| KRY50SP | 2026-09-01 00:00:25 | 51.37319 | 17.60193 | 68° | 66km/h | 14535m | 5.7m/s | 0°C | 0% | 0hPa | 0V | 00:00:00 | 00:00:00 | 00:00:00 | |
| SP3BTT-10 | 2026-09-01 00:00:17 | 51.37260 | 17.60014 | 64° | 60km/h | 14497m | 5.9m/s | 0°C | 0% | 0hPa | 0V | 00:00:00 | 00:00:00 | 00:00:00 | |
| SQ6EMJ | 2026-09-01 00:00:13 | 51.37253 | 17.59991 | 68° | 60km/h | 14490m | 5.5m/s | 0°C | 0% | 0hPa | 0V | 00:00:00 | 00:00:00 | 00:00:00 | |
| SP6BVK | 2026-09-01 00:00:07 | 51.37223 | 17.59907 | 64° | 57km/h | 14469m | 4.2m/s | 0°C | 0% | 0hPa | 0V | 00:00:00 | 00:00:00 | 00:00:00 | |
| KRY50SP | 2026-09-01 00:00:04 | 51.37209 | 17.59867 | 58° | 57km/h | 14458m | 5.6m/s | 0°C | 0% | 0hPa | 0V | 00:00:00 | 00:00:00 | 00:00:00 | |
| SQ6EMJ | 2026-08-31 23:59:56 | 51.37142 | 17.59695 | 55° | 60km/h | 14418m | 4.3m/s | 0°C | 0% | 0hPa | 0V | 00:00:00 | 00:00:00 | 00:00:00 | |
| SQ6EMJ | 2026-08-31 23:59:50 | 51.37094 | 17.59572 | 61° | 60km/h | 14392m | 3.5m/s | 0°C | 0% | 0hPa | 0V | 00:00:00 | 00:00:00 | 00:00:00 | |
| SP6BVK | 2026-08-31 23:59:46 | 51.37060 | 17.59495 | 60° | 57km/h | 14373m | 4.8m/s | 0°C | 0% | 0hPa | 0V | 00:00:00 | 00:00:00 | 00:00:00 | |
| KRY50SP | 2026-08-31 23:59:45 | 51.37053 | 17.59474 | 63° | 60km/h | 14369m | 4.2m/s | 0°C | 0% | 0hPa | 0V | 00:00:00 | 00:00:00 | 00:00:00 | |
| SQ6EMJ | 2026-08-31 23:59:39 | 51.37016 | 17.59353 | 58° | 57km/h | 14342m | 4.9m/s | 0°C | 0% | 0hPa | 0V | 00:00:00 | 00:00:00 | 00:00:00 | |
| SQ6EMJ | 2026-08-31 23:59:34 | 51.36978 | 17.59241 | 66° | 60km/h | 14319m | 5.3m/s | 0°C | 0% | 0hPa | 0V | 00:00:00 | 00:00:00 | 00:00:00 | |
| SQ6EMJ | 2026-08-31 23:59:28 | 51.36939 | 17.59118 | 66° | 58km/h | 14292m | 4.9m/s | 0°C | 0% | 0hPa | 0V | 00:00:00 | 00:00:00 | 00:00:00 | |
| SP3BTT-10 | 2026-08-31 23:59:26 | 51.36928 | 17.59071 | 72° | 66km/h | 14281m | 3.4m/s | 0°C | 0% | 0hPa | 0V | 00:00:00 | 00:00:00 | 00:00:00 | |
| SP6BVK | 2026-08-31 23:59:24 | 51.36917 | 17.59027 | 63° | 57km/h | 14274m | 2.5m/s | 0°C | 0% | 0hPa | 0V | 00:00:00 | 00:00:00 | 00:00:00 | |
| SQ6EMJ | 2026-08-31 23:59:23 | 51.36910 | 17.59006 | 66° | 57km/h | 14273m | 4.6m/s | 0°C | 0% | 0hPa | 0V | 00:00:00 | 00:00:00 | 00:00:00 | |
| SQ6EMJ | 2026-08-31 23:59:18 | 51.36883 | 17.58903 | 66° | 51km/h | 14250m | 4.1m/s | 0°C | 0% | 0hPa | 0V | 00:00:00 | 00:00:00 | 00:00:00 | |
| SQ6EMJ | 2026-08-31 23:59:13 | 51.36849 | 17.58776 | 72° | 55km/h | 14225m | 2.9m/s | 0°C | 0% | 0hPa | 0V | 00:00:00 | 00:00:00 | 00:00:00 | |
| SQ6EMJ | 2026-08-31 23:59:06 | 51.36819 | 17.58648 | 77° | 64km/h | 14196m | 4.5m/s | 0°C | 0% | 0hPa | 0V | 00:00:00 | 00:00:00 | 00:00:00 | |
| SP6BVK | 2026-08-31 23:59:01 | 51.36795 | 17.58540 | 81° | 57km/h | 14174m | 5.3m/s | 0°C | 0% | 0hPa | 0V | 00:00:00 | 00:00:00 | 00:00:00 | |
| SQ6EMJ | 2026-08-31 23:59:00 | 51.36792 | 17.58517 | 79° | 57km/h | 14169m | 4.3m/s | 0°C | 0% | 0hPa | 0V | 00:00:00 | 00:00:00 | 00:00:00 | |
| KRY50SP | 2026-08-31 23:58:53 | 51.36760 | 17.58362 | 73° | 60km/h | 14133m | 4.5m/s | 0°C | 0% | 0hPa | 0V | 00:00:00 | 00:00:00 | 00:00:00 | |
| SQ6EMJ | 2026-08-31 23:58:52 | 51.36755 | 17.58338 | 72° | 60km/h | 14129m | 4.7m/s | 0°C | 0% | 0hPa | 0V | 00:00:00 | 00:00:00 | 00:00:00 | |
| SQ6EMJ | 2026-08-31 23:58:47 | 51.36731 | 17.58226 | 67° | 64km/h | 14105m | 6.4m/s | 0°C | 0% | 0hPa | 0V | 00:00:00 | 00:00:00 | 00:00:00 | |
| SQ6EMJ | 2026-08-31 23:58:42 | 51.36706 | 17.58101 | 74° | 57km/h | 14079m | 4.5m/s | 0°C | 0% | 0hPa | 0V | 00:00:00 | 00:00:00 | 00:00:00 | |
| SQ6EMJ | 2026-08-31 23:58:35 | 51.36664 | 17.57919 | 70° | 73km/h | 14052m | 5.3m/s | 0°C | 0% | 0hPa | 0V | 00:00:00 | 00:00:00 | 00:00:00 | |
| SQ6EMJ | 2026-08-31 23:58:30 | 51.36634 | 17.57791 | 71° | 75km/h | 14026m | 6.1m/s | 0°C | 0% | 0hPa | 0V | 00:00:00 | 00:00:00 | 00:00:00 | |
| SP3BTT-10 | 2026-08-31 23:58:25 | 51.36600 | 17.57663 | 74° | 68km/h | 13999m | 4.0m/s | 0°C | 0% | 0hPa | 0V | 00:00:00 | 00:00:00 | 00:00:00 | |
| SQ6EMJ | 2026-08-31 23:58:24 | 51.36595 | 17.57636 | 74° | 73km/h | 13995m | 4.3m/s | 0°C | 0% | 0hPa | 0V | 00:00:00 | 00:00:00 | 00:00:00 | |
| SQ6EMJ | 2026-08-31 23:58:19 | 51.36553 | 17.57500 | 68° | 82km/h | 13975m | 4.9m/s | 0°C | 0% | 0hPa | 0V | 00:00:00 | 00:00:00 | 00:00:00 | |
| SQ6EMJ | 2026-08-31 23:58:14 | 51.36517 | 17.57372 | 72° | 75km/h | 13949m | 3.6m/s | 0°C | 0% | 0hPa | 0V | 00:00:00 | 00:00:00 | 00:00:00 | |
| SQ6EMJ | 2026-08-31 23:58:09 | 51.36478 | 17.57240 | 58° | 73km/h | 13924m | 4.4m/s | 0°C | 0% | 0hPa | 0V | 00:00:00 | 00:00:00 | 00:00:00 | |
| SQ6EMJ | 2026-08-31 23:58:04 | 51.36426 | 17.57109 | 57° | 73km/h | 13899m | 5.0m/s | 0°C | 0% | 0hPa | 0V | 00:00:00 | 00:00:00 | 00:00:00 | |
| SQ6EMJ | 2026-08-31 23:57:58 | 51.36370 | 17.56956 | 66° | 77km/h | 13874m | 4.2m/s | 0°C | 0% | 0hPa | 0V | 00:00:00 | 00:00:00 | 00:00:00 | |
| SQ6EMJ | 2026-08-31 23:57:52 | 51.36316 | 17.56800 | 64° | 73km/h | 13854m | 5.7m/s | 0°C | 0% | 0hPa | 0V | 00:00:00 | 00:00:00 | 00:00:00 | |
| SQ6EMJ | 2026-08-31 23:57:47 | 51.36280 | 17.56675 | 64° | 73km/h | 13835m | 4.8m/s | 0°C | 0% | 0hPa | 0V | 00:00:00 | 00:00:00 | 00:00:00 | |
| SQ6EMJ | 2026-08-31 23:57:41 | 51.36233 | 17.56528 | 70° | 62km/h | 13808m | 4.0m/s | 0°C | 0% | 0hPa | 0V | 00:00:00 | 00:00:00 | 00:00:00 | |
| SP3BTT-10 | 2026-08-31 23:57:40 | 51.36227 | 17.56504 | 67° | 77km/h | 13803m | 4.3m/s | 0°C | 0% | 0hPa | 0V | 00:00:00 | 00:00:00 | 00:00:00 | |
| SQ6EMJ | 2026-08-31 23:57:35 | 51.36190 | 17.56384 | 74° | 73km/h | 13783m | 5.3m/s | 0°C | 0% | 0hPa | 0V | 00:00:00 | 00:00:00 | 00:00:00 | |
| SQ6EMJ | 2026-08-31 23:57:29 | 51.36148 | 17.56234 | 66° | 71km/h | 13754m | 5.8m/s | 0°C | 0% | 0hPa | 0V | 00:00:00 | 00:00:00 | 00:00:00 | |
| SQ6EMJ | 2026-08-31 23:57:23 | 51.36098 | 17.56082 | 60° | 66km/h | 13727m | 5.4m/s | 0°C | 0% | 0hPa | 0V | 00:00:00 | 00:00:00 | 00:00:00 | |
| SQ6EMJ | 2026-08-31 23:57:18 | 51.36058 | 17.55958 | 56° | 66km/h | 13704m | 3.2m/s | 0°C | 0% | 0hPa | 0V | 00:00:00 | 00:00:00 | 00:00:00 | |
| SQ6EMJ | 2026-08-31 23:57:12 | 51.36005 | 17.55798 | 62° | 75km/h | 13682m | 3.4m/s | 0°C | 0% | 0hPa | 0V | 00:00:00 | 00:00:00 | 00:00:00 | |
| SQ6EMJ | 2026-08-31 23:57:06 | 51.35952 | 17.55642 | 67° | 77km/h | 13653m | 2.9m/s | 0°C | 0% | 0hPa | 0V | 00:00:00 | 00:00:00 | 00:00:00 | |
| SQ6EMJ | 2026-08-31 23:57:00 | 51.35900 | 17.55482 | 70° | 80km/h | 13637m | 2.4m/s | 0°C | 0% | 0hPa | 0V | 00:00:00 | 00:00:00 | 00:00:00 | |
| SQ6EMJ | 2026-08-31 23:56:54 | 51.35846 | 17.55333 | 70° | 68km/h | 13615m | 6.7m/s | 0°C | 0% | 0hPa | 0V | 00:00:00 | 00:00:00 | 00:00:00 | |
| SQ6EMJ | 2026-08-31 23:56:49 | 51.35799 | 17.55200 | 65° | 82km/h | 13593m | 5.2m/s | 0°C | 0% | 0hPa | 0V | 00:00:00 | 00:00:00 | 00:00:00 | |
| SQ6EMJ | 2026-08-31 23:56:40 | 51.35716 | 17.54954 | 68° | 82km/h | 13551m | 5.7m/s | 0°C | 0% | 0hPa | 0V | 00:00:00 | 00:00:00 | 00:00:00 | |
| SQ6EMJ | 2026-08-31 23:56:31 | 51.35630 | 17.54699 | 70° | 78km/h | 13518m | 4.2m/s | 0°C | 0% | 0hPa | 0V | 00:00:00 | 00:00:00 | 00:00:00 | |
| SQ6EMJ | 2026-08-31 23:56:25 | 51.35578 | 17.54533 | 65° | 80km/h | 13492m | 3.6m/s | 0°C | 0% | 0hPa | 0V | 00:00:00 | 00:00:00 | 00:00:00 | |
| SP3BTT-10 | 2026-08-31 23:56:24 | 51.35571 | 17.54503 | 67° | 77km/h | 13490m | 2.9m/s | 0°C | 0% | 0hPa | 0V | 00:00:00 | 00:00:00 | 00:00:00 | |
| SQ6EMJ | 2026-08-31 23:56:20 | 51.35531 | 17.54394 | 61° | 84km/h | 13469m | 4.6m/s | 0°C | 0% | 0hPa | 0V | 00:00:00 | 00:00:00 | 00:00:00 | |
| SQ6EMJ | 2026-08-31 23:56:15 | 51.35482 | 17.54253 | 64° | 80km/h | 13453m | 4.5m/s | 0°C | 0% | 0hPa | 0V | 00:00:00 | 00:00:00 | 00:00:00 | |
| SQ6EMJ | 2026-08-31 23:56:09 | 51.35419 | 17.54082 | 66° | 86km/h | 13426m | 3.6m/s | 0°C | 0% | 0hPa | 0V | 00:00:00 | 00:00:00 | 00:00:00 | |
| SQ6EMJ | 2026-08-31 23:56:04 | 51.35371 | 17.53942 | 66° | 86km/h | 13404m | 3.6m/s | 0°C | 0% | 0hPa | 0V | 00:00:00 | 00:00:00 | 00:00:00 | |
| SQ6EMJ | 2026-08-31 23:55:58 | 51.35310 | 17.53770 | 63° | 80km/h | 13381m | 3.6m/s | 0°C | 0% | 0hPa | 0V | 00:00:00 | 00:00:00 | 00:00:00 | |
| SQ6EMJ | 2026-08-31 23:55:53 | 51.35261 | 17.53628 | 66° | 80km/h | 13367m | 4.1m/s | 0°C | 0% | 0hPa | 0V | 00:00:00 | 00:00:00 | 00:00:00 | |
| SQ6EMJ | 2026-08-31 23:55:43 | 51.35162 | 17.53347 | 63° | 86km/h | 13330m | 3.8m/s | 0°C | 0% | 0hPa | 0V | 00:00:00 | 00:00:00 | 00:00:00 | |
| SQ6EMJ | 2026-08-31 23:55:33 | 51.35066 | 17.53073 | 66° | 80km/h | 13290m | 3.9m/s | 0°C | 0% | 0hPa | 0V | 00:00:00 | 00:00:00 | 00:00:00 | |
| SQ6EMJ | 2026-08-31 23:55:28 | 51.35023 | 17.52937 | 65° | 77km/h | 13267m | 3.9m/s | 0°C | 0% | 0hPa | 0V | 00:00:00 | 00:00:00 | 00:00:00 | |
| SP3BTT-10 | 2026-08-31 23:55:24 | 51.34990 | 17.52830 | 67° | 73km/h | 13249m | 5.7m/s | 0°C | 0% | 0hPa | 0V | 00:00:00 | 00:00:00 | 00:00:00 | |
| SQ6EMJ | 2026-08-31 23:55:22 | 51.34972 | 17.52773 | 60° | 82km/h | 13242m | 3.9m/s | 0°C | 0% | 0hPa | 0V | 00:00:00 | 00:00:00 | 00:00:00 | |
| SQ6EMJ | 2026-08-31 23:55:18 | 51.34927 | 17.52636 | 69° | 78km/h | 13228m | 4.4m/s | 0°C | 0% | 0hPa | 0V | 00:00:00 | 00:00:00 | 00:00:00 | |
| SQ6EMJ | 2026-08-31 23:55:09 | 51.34844 | 17.52403 | 66° | 86km/h | 13192m | 9.8m/s | 0°C | 0% | 0hPa | 0V | 00:00:00 | 00:00:00 | 00:00:00 | |
| SQ6EMJ | 2026-08-31 23:55:04 | 51.34799 | 17.52262 | 61° | 86km/h | 13168m | 6.5m/s | 0°C | 0% | 0hPa | 0V | 00:00:00 | 00:00:00 | 00:00:00 | |
| SQ6EMJ | 2026-08-31 23:54:57 | 51.34736 | 17.52064 | 70° | 77km/h | 13136m | 5.1m/s | 0°C | 0% | 0hPa | 0V | 00:00:00 | 00:00:00 | 00:00:00 | |
| SQ6EMJ | 2026-08-31 23:54:52 | 51.34690 | 17.51930 | 64° | 80km/h | 13113m | 5.5m/s | 0°C | 0% | 0hPa | 0V | 00:00:00 | 00:00:00 | 00:00:00 | |
| SP3BTT-10 | 2026-08-31 23:54:38 | 51.34578 | 17.51573 | 64° | 71km/h | 13051m | 6.6m/s | 0°C | 0% | 0hPa | 0V | 00:00:00 | 00:00:00 | 00:00:00 | |
| SQ6EMJ | 2026-08-31 23:54:32 | 51.34525 | 17.51424 | 63° | 73km/h | 13022m | 5.2m/s | 0°C | 0% | 0hPa | 0V | 00:00:00 | 00:00:00 | 00:00:00 | |
| SQ6EMJ | 2026-08-31 23:54:26 | 51.34481 | 17.51265 | 68° | 86km/h | 12994m | 4.2m/s | 0°C | 0% | 0hPa | 0V | 00:00:00 | 00:00:00 | 00:00:00 | |
| SQ6EMJ | 2026-08-31 23:54:20 | 51.34435 | 17.51108 | 73° | 66km/h | 12966m | 5.8m/s | 0°C | 0% | 0hPa | 0V | 00:00:00 | 00:00:00 | 00:00:00 | |
| SQ6EMJ | 2026-08-31 23:54:05 | 51.34314 | 17.50684 | 63° | 71km/h | 12889m | 4.0m/s | 0°C | 0% | 0hPa | 0V | 00:00:00 | 00:00:00 | 00:00:00 | |
| SQ6EMJ | 2026-08-31 23:53:58 | 51.34268 | 17.50517 | 72° | 68km/h | 12861m | 6.5m/s | 0°C | 0% | 0hPa | 0V | 00:00:00 | 00:00:00 | 00:00:00 | |
| SQ6EMJ | 2026-08-31 23:53:51 | 51.34223 | 17.50314 | 67° | 68km/h | 12828m | 6.2m/s | 0°C | 0% | 0hPa | 0V | 00:00:00 | 00:00:00 | 00:00:00 | |
| SQ6EMJ | 2026-08-31 23:53:42 | 51.34161 | 17.50063 | 65° | 66km/h | 12778m | 6.8m/s | 0°C | 0% | 0hPa | 0V | 00:00:00 | 00:00:00 | 00:00:00 | |
| SP3BTT-10 | 2026-08-31 23:53:39 | 51.34146 | 17.49987 | 76° | 82km/h | 12760m | 5.3m/s | 0°C | 0% | 0hPa | 0V | 00:00:00 | 00:00:00 | 00:00:00 | |
| SQ6EMJ | 2026-08-31 23:53:36 | 51.34127 | 17.49907 | 65° | 77km/h | 12743m | 5.5m/s | 0°C | 0% | 0hPa | 0V | 00:00:00 | 00:00:00 | 00:00:00 | |
| SQ6EMJ | 2026-08-31 23:53:27 | 51.34086 | 17.49675 | 72° | 77km/h | 12691m | 7.6m/s | 0°C | 0% | 0hPa | 0V | 00:00:00 | 00:00:00 | 00:00:00 | |
| SQ6EMJ | 2026-08-31 23:53:21 | 51.34048 | 17.49512 | 90° | 80km/h | 12650m | 4.7m/s | 0°C | 0% | 0hPa | 0V | 00:00:00 | 00:00:00 | 00:00:00 | |
| SQ6EMJ | 2026-08-31 23:53:16 | 51.34015 | 17.49360 | 76° | 80km/h | 12620m | 8.7m/s | 0°C | 0% | 0hPa | 0V | 00:00:00 | 00:00:00 | 00:00:00 | |
| SQ6EMJ | 2026-08-31 23:53:10 | 51.33981 | 17.49177 | 76° | 82km/h | 12584m | 2.9m/s | 0°C | 0% | 0hPa | 0V | 00:00:00 | 00:00:00 | 00:00:00 | |
| SQ6EMJ | 2026-08-31 23:53:04 | 51.33963 | 17.49001 | 78° | 82km/h | 12551m | 8.1m/s | 0°C | 0% | 0hPa | 0V | 00:00:00 | 00:00:00 | 00:00:00 | |
| SQ6EMJ | 2026-08-31 23:52:59 | 51.33943 | 17.48823 | 75° | 75km/h | 12525m | 4.3m/s | 0°C | 0% | 0hPa | 0V | 00:00:00 | 00:00:00 | 00:00:00 | |
| SP3BTT-10 | 2026-08-31 23:52:54 | 51.33914 | 17.48626 | 75° | 95km/h | 12488m | 4.4m/s | 0°C | 0% | 0hPa | 0V | 00:00:00 | 00:00:00 | 00:00:00 | |
| SQ6EMJ | 2026-08-31 23:52:52 | 51.33908 | 17.48590 | 78° | 89km/h | 12483m | 6.4m/s | 0°C | 0% | 0hPa | 0V | 00:00:00 | 00:00:00 | 00:00:00 | |
| SP3BTT-10 | 2026-08-31 23:51:53 | 51.33536 | 17.46664 | 66° | 95km/h | 12135m | 5.2m/s | 0°C | 0% | 0hPa | 0V | 00:00:00 | 00:00:00 | 00:00:00 | |
| SP3BTT-10 | 2026-08-31 23:50:53 | 51.33065 | 17.44639 | 66° | 108km/h | 11791m | 6.0m/s | 0°C | 0% | 0hPa | 0V | 00:00:00 | 00:00:00 | 00:00:00 | |
| SP3BTT-10 | 2026-08-31 23:50:07 | 51.32628 | 17.42736 | 61° | 117km/h | 11541m | 6.4m/s | 0°C | 0% | 0hPa | 0V | 00:00:00 | 00:00:00 | 00:00:00 | |
| SP3BTT-10 | 2026-08-31 23:49:07 | 51.31845 | 17.40212 | 59° | 120km/h | 11229m | 2.9m/s | 0°C | 0% | 0hPa | 0V | 00:00:00 | 00:00:00 | 00:00:00 | |
| OE3JTB-15 | 2026-08-31 23:48:52 | 51.31605 | 17.39598 | 60° | 119km/h | 11150m | 4.7m/s | 0°C | 0% | 0hPa | 0V | 00:00:00 | 00:00:00 | 00:00:00 | |
| SP6BVK | 2026-08-31 23:48:50 | 51.31576 | 17.39525 | 55° | 117km/h | 11143m | 4.6m/s | 0°C | 0% | 0hPa | 0V | 00:00:00 | 00:00:00 | 00:00:00 | |
| SP6BVK | 2026-08-31 23:48:29 | 51.31241 | 17.38701 | 51° | 100km/h | 11035m | 2.1m/s | 0°C | 0% | 0hPa | 0V | 00:00:00 | 00:00:00 | 00:00:00 | |
| SQ6EMJ | 2026-08-31 23:48:15 | 51.31005 | 17.38144 | 57° | 117km/h | 10963m | 2.9m/s | 0°C | 0% | 0hPa | 0V | 00:00:00 | 00:00:00 | 00:00:00 | |
| SP3BTT-10 | 2026-08-31 23:48:12 | 51.30951 | 17.38024 | 55° | 130km/h | 10946m | 8.6m/s | 0°C | 0% | 0hPa | 0V | 00:00:00 | 00:00:00 | 00:00:00 | |
| SP6BVK | 2026-08-31 23:48:07 | 51.30869 | 17.37816 | 53° | 122km/h | 10918m | 7.9m/s | 0°C | 0% | 0hPa | 0V | 00:00:00 | 00:00:00 | 00:00:00 | |
| SP6BVK | 2026-08-31 23:47:46 | 51.30493 | 17.36979 | 56° | 130km/h | 10805m | 3.6m/s | 0°C | 0% | 0hPa | 0V | 00:00:00 | 00:00:00 | 00:00:00 | |
| SQ6EMJ | 2026-08-31 23:47:44 | 51.30453 | 17.36904 | 44° | 113km/h | 10796m | 4.8m/s | 0°C | 0% | 0hPa | 0V | 00:00:00 | 00:00:00 | 00:00:00 | |
| SQ6EMJ | 2026-08-31 23:47:33 | 51.30217 | 17.36477 | 54° | 137km/h | 10736m | 5.8m/s | 0°C | 0% | 0hPa | 0V | 00:00:00 | 00:00:00 | 00:00:00 | |
| SQ6EMJ | 2026-08-31 23:47:28 | 51.30104 | 17.36284 | 45° | 137km/h | 10709m | 4.9m/s | 0°C | 0% | 0hPa | 0V | 00:00:00 | 00:00:00 | 00:00:00 | |
| SP6BVK | 2026-08-31 23:47:24 | 51.30022 | 17.36111 | 57° | 131km/h | 10687m | 3.7m/s | 0°C | 0% | 0hPa | 0V | 00:00:00 | 00:00:00 | 00:00:00 | |
| SP3BTT-10 | 2026-08-31 23:47:21 | 51.29954 | 17.35994 | 42° | 144km/h | 10672m | 4.0m/s | 0°C | 0% | 0hPa | 0V | 00:00:00 | 00:00:00 | 00:00:00 | |
| SQ6EMJ | 2026-08-31 23:47:18 | 51.29879 | 17.35869 | 51° | 146km/h | 10654m | 6.8m/s | 0°C | 0% | 0hPa | 0V | 00:00:00 | 00:00:00 | 00:00:00 | |
| SQ6EMJ | 2026-08-31 23:47:08 | 51.29619 | 17.35408 | 46° | 131km/h | 10591m | 6.2m/s | 0°C | 0% | 0hPa | 0V | 00:00:00 | 00:00:00 | 00:00:00 | |
| SP6BVK | 2026-08-31 23:47:04 | 51.29536 | 17.35282 | 42° | 159km/h | 10571m | 6.1m/s | 0°C | 0% | 0hPa | 0V | 00:00:00 | 00:00:00 | 00:00:00 | |
| SQ6EMJ | 2026-08-31 23:46:59 | 51.29403 | 17.35064 | 46° | 148km/h | 10544m | 6.0m/s | 0°C | 0% | 0hPa | 0V | 00:00:00 | 00:00:00 | 00:00:00 | |
| SP6BVK | 2026-08-31 23:46:44 | 51.28999 | 17.34448 | 41° | 155km/h | 10462m | 2.5m/s | 0°C | 0% | 0hPa | 0V | 00:00:00 | 00:00:00 | 00:00:00 | |
| SQ6EMJ | 2026-08-31 23:46:38 | 51.28850 | 17.34219 | 40° | 146km/h | 10436m | 6.3m/s | 0°C | 0% | 0hPa | 0V | 00:00:00 | 00:00:00 | 00:00:00 | |
| SQ6EMJ | 2026-08-31 23:46:31 | 51.28642 | 17.33945 | 47° | 141km/h | 10392m | 5.9m/s | 0°C | 0% | 0hPa | 0V | 00:00:00 | 00:00:00 | 00:00:00 | |
| KRY50SP | 2026-08-31 23:46:28 | 51.28569 | 17.33821 | 48° | 139km/h | 10379m | 7.3m/s | 0°C | 0% | 0hPa | 0V | 00:00:00 | 00:00:00 | 00:00:00 | |
| SP6BVK | 2026-08-31 23:46:24 | 51.28456 | 17.33671 | 39° | 162km/h | 10348m | 5.0m/s | 0°C | 0% | 0hPa | 0V | 00:00:00 | 00:00:00 | 00:00:00 | |
| SQ6EMJ | 2026-08-31 23:46:22 | 51.28394 | 17.33592 | 41° | 144km/h | 10336m | 4.6m/s | 0°C | 0% | 0hPa | 0V | 00:00:00 | 00:00:00 | 00:00:00 | |
| SP3BTT-10 | 2026-08-31 23:46:21 | 51.28366 | 17.33556 | 37° | 146km/h | 10332m | 2.9m/s | 0°C | 0% | 0hPa | 0V | 00:00:00 | 00:00:00 | 00:00:00 | |
| KRY50SP | 2026-08-31 23:46:05 | 51.27888 | 17.32955 | 34° | 153km/h | 10253m | 6.3m/s | 0°C | 0% | 0hPa | 0V | 00:00:00 | 00:00:00 | 00:00:00 | |
| SP6BVK | 2026-08-31 23:46:03 | 51.27826 | 17.32886 | 39° | 141km/h | 10241m | 4.5m/s | 0°C | 0% | 0hPa | 0V | 00:00:00 | 00:00:00 | 00:00:00 | |
| SQ6EMJ | 2026-08-31 23:45:53 | 51.27524 | 17.32523 | 38° | 170km/h | 10195m | 4.0m/s | 0°C | 0% | 0hPa | 0V | 00:00:00 | 00:00:00 | 00:00:00 | |
| SQ6EMJ | 2026-08-31 23:45:47 | 51.27345 | 17.32301 | 38° | 137km/h | 10165m | 2.5m/s | 0°C | 0% | 0hPa | 0V | 00:00:00 | 00:00:00 | 00:00:00 | |
| SP6BVK | 2026-08-31 23:45:43 | 51.27226 | 17.32160 | 40° | 155km/h | 10147m | 3.4m/s | 0°C | 0% | 0hPa | 0V | 00:00:00 | 00:00:00 | 00:00:00 | |
| SQ6EMJ | 2026-08-31 23:45:41 | 51.27165 | 17.32080 | 40° | 155km/h | 10139m | 4.8m/s | 0°C | 0% | 0hPa | 0V | 00:00:00 | 00:00:00 | 00:00:00 | |
| SQ6EMJ | 2026-08-31 23:45:34 | 51.26933 | 17.31797 | 43° | 144km/h | 10101m | 7.2m/s | 0°C | 0% | 0hPa | 0V | 00:00:00 | 00:00:00 | 00:00:00 | |
| SQ6EMJ | 2026-08-31 23:45:28 | 51.26790 | 17.31625 | 34° | 148km/h | 10076m | 4.3m/s | 0°C | 0% | 0hPa | 0V | 00:00:00 | 00:00:00 | 00:00:00 | |
| SQ6EMJ | 2026-08-31 23:45:23 | 51.26617 | 17.31411 | 38° | 151km/h | 10043m | 4.4m/s | 0°C | 0% | 0hPa | 0V | 00:00:00 | 00:00:00 | 00:00:00 | |
| SP3BTT-10 | 2026-08-31 23:45:21 | 51.26587 | 17.31375 | 38° | 144km/h | 10036m | 8.4m/s | 0°C | 0% | 0hPa | 0V | 00:00:00 | 00:00:00 | 00:00:00 | |
| SQ6EMJ | 2026-08-31 23:45:18 | 51.26471 | 17.31243 | 38° | 150km/h | 10012m | 6.1m/s | 0°C | 0% | 0hPa | 0V | 00:00:00 | 00:00:00 | 00:00:00 | |
| KRY50SP | 2026-08-31 23:45:07 | 51.26194 | 17.30891 | 39° | 131km/h | 9962m | 2.9m/s | 0°C | 0% | 0hPa | 0V | 00:00:00 | 00:00:00 | 00:00:00 | |
| SQ6EMJ | 2026-08-31 23:45:06 | 51.26167 | 17.30857 | 40° | 144km/h | 9956m | 8.8m/s | 0°C | 0% | 0hPa | 0V | 00:00:00 | 00:00:00 | 00:00:00 | |
| SQ6EMJ | 2026-08-31 23:45:01 | 51.26025 | 17.30667 | 39° | 130km/h | 9930m | 4.3m/s | 0°C | 0% | 0hPa | 0V | 00:00:00 | 00:00:00 | 00:00:00 | |
| KRY50SP | 2026-08-31 23:45:00 | 51.25999 | 17.30635 | 38° | 130km/h | 9925m | 5.6m/s | 0°C | 0% | 0hPa | 0V | 00:00:00 | 00:00:00 | 00:00:00 | |
| KRY50SP | 2026-08-31 23:44:55 | 51.25848 | 17.30473 | 39° | 153km/h | 9895m | 7.0m/s | 0°C | 0% | 0hPa | 0V | 00:00:00 | 00:00:00 | 00:00:00 | |
| KRY50SP | 2026-08-31 23:44:49 | 51.25674 | 17.30261 | 35° | 150km/h | 9867m | 4.2m/s | 0°C | 0% | 0hPa | 0V | 00:00:00 | 00:00:00 | 00:00:00 | |
| SQ6EMJ | 2026-08-31 23:44:47 | 51.25612 | 17.30190 | 38° | 148km/h | 9855m | 6.7m/s | 0°C | 0% | 0hPa | 0V | 00:00:00 | 00:00:00 | 00:00:00 | |
| KRY50SP | 2026-08-31 23:44:43 | 51.25491 | 17.30040 | 39° | 159km/h | 9833m | 4.0m/s | 0°C | 0% | 0hPa | 0V | 00:00:00 | 00:00:00 | 00:00:00 | |
| SP6BVK | 2026-08-31 23:44:41 | 51.25425 | 17.29963 | 34° | 164km/h | 9826m | 4.2m/s | 0°C | 0% | 0hPa | 0V | 00:00:00 | 00:00:00 | 00:00:00 | |
| KRY50SP | 2026-08-31 23:44:37 | 51.25300 | 17.29816 | 40° | 133km/h | 9808m | 4.6m/s | 0°C | 0% | 0hPa | 0V | 00:00:00 | 00:00:00 | 00:00:00 | |
| SQ6EMJ | 2026-08-31 23:44:35 | 51.25245 | 17.29749 | 37° | 146km/h | 9801m | 5.4m/s | 0°C | 0% | 0hPa | 0V | 00:00:00 | 00:00:00 | 00:00:00 | |
| KRY50SP | 2026-08-31 23:44:32 | 51.25139 | 17.29631 | 37° | 177km/h | 9789m | -0.1m/s | 0°C | 0% | 0hPa | 0V | 00:00:00 | 00:00:00 | 00:00:00 | |
| SQ6EMJ | 2026-08-31 23:44:29 | 51.25041 | 17.29518 | 38° | 135km/h | 9775m | 9.5m/s | 0°C | 0% | 0hPa | 0V | 00:00:00 | 00:00:00 | 00:00:00 | |
| SQ6EMJ | 2026-08-31 23:44:24 | 51.24890 | 17.29346 | 38° | 151km/h | 9744m | 4.1m/s | 0°C | 0% | 0hPa | 0V | 00:00:00 | 00:00:00 | 00:00:00 | |
| SP6BVK | 2026-08-31 23:44:20 | 51.24776 | 17.29224 | 33° | 146km/h | 9720m | 4.5m/s | 0°C | 0% | 0hPa | 0V | 00:00:00 | 00:00:00 | 00:00:00 | |
| SQ6EMJ | 2026-08-31 23:44:19 | 51.24744 | 17.29191 | 36° | 155km/h | 9713m | 8.8m/s | 0°C | 0% | 0hPa | 0V | 00:00:00 | 00:00:00 | 00:00:00 | |
| SQ6EMJ | 2026-08-31 23:44:13 | 51.24567 | 17.28966 | 37° | 144km/h | 9678m | 1.9m/s | 0°C | 0% | 0hPa | 0V | 00:00:00 | 00:00:00 | 00:00:00 | |
| KRY50SP | 2026-08-31 23:44:08 | 51.24423 | 17.28784 | 34° | 146km/h | 9657m | 5.4m/s | 0°C | 0% | 0hPa | 0V | 00:00:00 | 00:00:00 | 00:00:00 | |
| SP3BTT-10 | 2026-08-31 23:44:06 | 51.24362 | 17.28722 | 34° | 135km/h | 9649m | 3.5m/s | 0°C | 0% | 0hPa | 0V | 00:00:00 | 00:00:00 | 00:00:00 | |
| KRY50SP | 2026-08-31 23:44:02 | 51.24263 | 17.28569 | 45° | 122km/h | 9628m | 4.6m/s | 0°C | 0% | 0hPa | 0V | 00:00:00 | 00:00:00 | 00:00:00 | |
| SP6BVK | 2026-08-31 23:43:59 | 51.24180 | 17.28469 | 37° | 159km/h | 9608m | 6.8m/s | 0°C | 0% | 0hPa | 0V | 00:00:00 | 00:00:00 | 00:00:00 | |
| SQ6EMJ | 2026-08-31 23:43:57 | 51.24118 | 17.28398 | 36° | 142km/h | 9597m | 6.2m/s | 0°C | 0% | 0hPa | 0V | 00:00:00 | 00:00:00 | 00:00:00 | |
| SQ6EMJ | 2026-08-31 23:43:51 | 51.23962 | 17.28216 | 39° | 155km/h | 9562m | 9.1m/s | 0°C | 0% | 0hPa | 0V | 00:00:00 | 00:00:00 | 00:00:00 | |
| SQ6EMJ | 2026-08-31 23:43:45 | 51.23798 | 17.27967 | 47° | 139km/h | 9524m | 7.0m/s | 0°C | 0% | 0hPa | 0V | 00:00:00 | 00:00:00 | 00:00:00 | |
| SQ6EMJ | 2026-08-31 23:43:40 | 51.23674 | 17.27804 | 43° | 131km/h | 9498m | 5.0m/s | 0°C | 0% | 0hPa | 0V | 00:00:00 | 00:00:00 | 00:00:00 | |
| SP6BVK | 2026-08-31 23:43:38 | 51.23619 | 17.27732 | 38° | 146km/h | 9485m | 6.8m/s | 0°C | 0% | 0hPa | 0V | 00:00:00 | 00:00:00 | 00:00:00 | |
| SQ6EMJ | 2026-08-31 23:43:34 | 51.23506 | 17.27595 | 46° | 128km/h | 9463m | 6.5m/s | 0°C | 0% | 0hPa | 0V | 00:00:00 | 00:00:00 | 00:00:00 | |
| SQ6EMJ | 2026-08-31 23:43:28 | 51.23358 | 17.27380 | 41° | 148km/h | 9426m | 6.6m/s | 0°C | 0% | 0hPa | 0V | 00:00:00 | 00:00:00 | 00:00:00 | |
| SQ6EMJ | 2026-08-31 23:43:23 | 51.23209 | 17.27159 | 47° | 122km/h | 9394m | 7.1m/s | 0°C | 0% | 0hPa | 0V | 00:00:00 | 00:00:00 | 00:00:00 | |
| SP3BTT-10 | 2026-08-31 23:43:20 | 51.23166 | 17.27091 | 43° | 126km/h | 9382m | 4.3m/s | 0°C | 0% | 0hPa | 0V | 00:00:00 | 00:00:00 | 00:00:00 | |
| SP6BVK | 2026-08-31 23:43:17 | 51.23094 | 17.26986 | 44° | 142km/h | 9364m | 5.6m/s | 0°C | 0% | 0hPa | 0V | 00:00:00 | 00:00:00 | 00:00:00 | |
| KRY50SP | 2026-08-31 23:43:13 | 51.22992 | 17.26825 | 47° | 133km/h | 9344m | 5.7m/s | 0°C | 0% | 0hPa | 0V | 00:00:00 | 00:00:00 | 00:00:00 | |
| KRY50SP | 2026-08-31 23:43:06 | 51.22828 | 17.26573 | 47° | 122km/h | 9302m | 6.6m/s | 0°C | 0% | 0hPa | 0V | 00:00:00 | 00:00:00 | 00:00:00 | |
| SQ6EMJ | 2026-08-31 23:43:02 | 51.22714 | 17.26398 | 41° | 144km/h | 9271m | 4.9m/s | 0°C | 0% | 0hPa | 0V | 00:00:00 | 00:00:00 | 00:00:00 | |
| KRY50SP | 2026-08-31 23:43:00 | 51.22687 | 17.26361 | 41° | 144km/h | 9266m | 5.7m/s | 0°C | 0% | 0hPa | 0V | 00:00:00 | 00:00:00 | 00:00:00 | |
| SP6BVK | 2026-08-31 23:42:57 | 51.22596 | 17.26208 | 49° | 120km/h | 9241m | 6.6m/s | 0°C | 0% | 0hPa | 0V | 00:00:00 | 00:00:00 | 00:00:00 | |
| SQ6EMJ | 2026-08-31 23:42:56 | 51.22596 | 17.26208 | 49° | 120km/h | 9241m | 6.6m/s | 0°C | 0% | 0hPa | 0V | 00:00:00 | 00:00:00 | 00:00:00 | |
| KRY50SP | 2026-08-31 23:42:51 | 51.22475 | 17.26047 | 42° | 126km/h | 9213m | 3.7m/s | 0°C | 0% | 0hPa | 0V | 00:00:00 | 00:00:00 | 00:00:00 | |
| SQ6EMJ | 2026-08-31 23:42:50 | 51.22452 | 17.26014 | 45° | 119km/h | 9209m | 6.2m/s | 0°C | 0% | 0hPa | 0V | 00:00:00 | 00:00:00 | 00:00:00 | |
| KRY50SP | 2026-08-31 23:42:46 | 51.22371 | 17.25869 | 49° | 135km/h | 9189m | 5.5m/s | 0°C | 0% | 0hPa | 0V | 00:00:00 | 00:00:00 | 00:00:00 | |
| SQ6EMJ | 2026-08-31 23:42:44 | 51.22323 | 17.25795 | 41° | 128km/h | 9178m | 4.0m/s | 0°C | 0% | 0hPa | 0V | 00:00:00 | 00:00:00 | 00:00:00 | |
| KRY50SP | 2026-08-31 23:42:41 | 51.22249 | 17.25701 | 44° | 126km/h | 9163m | 5.3m/s | 0°C | 0% | 0hPa | 0V | 00:00:00 | 00:00:00 | 00:00:00 | |
| SQ6EMJ | 2026-08-31 23:42:39 | 51.22208 | 17.25627 | 53° | 117km/h | 9153m | 5.3m/s | 0°C | 0% | 0hPa | 0V | 00:00:00 | 00:00:00 | 00:00:00 | |
| SP6BVK | 2026-08-31 23:42:36 | 51.22152 | 17.25516 | 48° | 120km/h | 9139m | 5.5m/s | 0°C | 0% | 0hPa | 0V | 00:00:00 | 00:00:00 | 00:00:00 | |
| KRY50SP | 2026-08-31 23:42:34 | 51.22106 | 17.25451 | 40° | 122km/h | 9123m | 4.2m/s | 0°C | 0% | 0hPa | 0V | 00:00:00 | 00:00:00 | 00:00:00 | |
| KRY50SP | 2026-08-31 23:42:29 | 51.22001 | 17.25271 | 56° | 126km/h | 9095m | 5.6m/s | 0°C | 0% | 0hPa | 0V | 00:00:00 | 00:00:00 | 00:00:00 | |
| SQ6EMJ | 2026-08-31 23:42:28 | 51.21982 | 17.25232 | 53° | 120km/h | 9090m | 4.1m/s | 0°C | 0% | 0hPa | 0V | 00:00:00 | 00:00:00 | 00:00:00 | |
| KRY50SP | 2026-08-31 23:42:23 | 51.21877 | 17.25056 | 52° | 135km/h | 9063m | 5.4m/s | 0°C | 0% | 0hPa | 0V | 00:00:00 | 00:00:00 | 00:00:00 | |
| SP3BTT-10 | 2026-08-31 23:42:22 | 51.21856 | 17.25013 | 53° | 119km/h | 9058m | 5.1m/s | 0°C | 0% | 0hPa | 0V | 00:00:00 | 00:00:00 | 00:00:00 | |
| KRY50SP | 2026-08-31 23:42:18 | 51.21766 | 17.24870 | 40° | 122km/h | 9040m | 3.1m/s | 0°C | 0% | 0hPa | 0V | 00:00:00 | 00:00:00 | 00:00:00 | |
| SQ6EMJ | 2026-08-31 23:42:17 | 51.21742 | 17.24837 | 43° | 128km/h | 9036m | 4.8m/s | 0°C | 0% | 0hPa | 0V | 00:00:00 | 00:00:00 | 00:00:00 | |
| SP6BVK | 2026-08-31 23:42:15 | 51.21696 | 17.24759 | 51° | 133km/h | 9027m | 3.8m/s | 0°C | 0% | 0hPa | 0V | 00:00:00 | 00:00:00 | 00:00:00 | |
| SQ6EMJ | 2026-08-31 23:42:13 | 51.21631 | 17.24644 | 47° | 126km/h | 9013m | 7.1m/s | 0°C | 0% | 0hPa | 0V | 00:00:00 | 00:00:00 | 00:00:00 | |
| KRY50SP | 2026-08-31 23:42:11 | 51.21608 | 17.24608 | 44° | 130km/h | 9005m | 8.2m/s | 0°C | 0% | 0hPa | 0V | 00:00:00 | 00:00:00 | 00:00:00 | |
| SQ6EMJ | 2026-08-31 23:42:06 | 51.21501 | 17.24449 | 41° | 110km/h | 8977m | 5.5m/s | 0°C | 0% | 0hPa | 0V | 00:00:00 | 00:00:00 | 00:00:00 | |
| KRY50SP | 2026-08-31 23:42:04 | 51.21455 | 17.24383 | 45° | 133km/h | 8967m | 3.8m/s | 0°C | 0% | 0hPa | 0V | 00:00:00 | 00:00:00 | 00:00:00 | |
| KRY50SP | 2026-08-31 23:41:58 | 51.21332 | 17.24203 | 42° | 117km/h | 8944m | 5.4m/s | 0°C | 0% | 0hPa | 0V | 00:00:00 | 00:00:00 | 00:00:00 | |
| SQ6EMJ | 2026-08-31 23:41:55 | 51.21245 | 17.24060 | 47° | 104km/h | 8914m | 8.6m/s | 0°C | 0% | 0hPa | 0V | 00:00:00 | 00:00:00 | 00:00:00 | |
| SP6BVK | 2026-08-31 23:41:54 | 51.21245 | 17.24060 | 47° | 104km/h | 8914m | 8.6m/s | 0°C | 0% | 0hPa | 0V | 00:00:00 | 00:00:00 | 00:00:00 | |
| SP3BTT-10 | 2026-08-31 23:41:52 | 51.21208 | 17.24010 | 39° | 111km/h | 8903m | 3.7m/s | 0°C | 0% | 0hPa | 0V | 00:00:00 | 00:00:00 | 00:00:00 | |
| SQ6EMJ | 2026-08-31 23:41:49 | 51.21148 | 17.23910 | 55° | 126km/h | 8886m | 4.9m/s | 0°C | 0% | 0hPa | 0V | 00:00:00 | 00:00:00 | 00:00:00 | |
| SQ6EMJ | 2026-08-31 23:41:43 | 51.21040 | 17.23712 | 44° | 115km/h | 8851m | 4.6m/s | 0°C | 0% | 0hPa | 0V | 00:00:00 | 00:00:00 | 00:00:00 | |
| KRY50SP | 2026-08-31 23:41:42 | 51.21019 | 17.23680 | 46° | 119km/h | 8847m | 4.9m/s | 0°C | 0% | 0hPa | 0V | 00:00:00 | 00:00:00 | 00:00:00 | |
| SQ6EMJ | 2026-08-31 23:41:38 | 51.20946 | 17.23543 | 55° | 97km/h | 8822m | 4.9m/s | 0°C | 0% | 0hPa | 0V | 00:00:00 | 00:00:00 | 00:00:00 | |
| KRY50SP | 2026-08-31 23:41:34 | 51.20894 | 17.23415 | 58° | 93km/h | 8802m | 6.1m/s | 0°C | 0% | 0hPa | 0V | 00:00:00 | 00:00:00 | 00:00:00 | |
| SP6BVK | 2026-08-31 23:41:33 | 51.20880 | 17.23382 | 59° | 100km/h | 8796m | 6.4m/s | 0°C | 0% | 0hPa | 0V | 00:00:00 | 00:00:00 | 00:00:00 | |
| SQ6EMJ | 2026-08-31 23:41:32 | 51.20866 | 17.23347 | 54° | 108km/h | 8789m | 8.4m/s | 0°C | 0% | 0hPa | 0V | 00:00:00 | 00:00:00 | 00:00:00 | |
| SQ6EMJ | 2026-08-31 23:41:28 | 51.20760 | 17.23153 | 50° | 99km/h | 8755m | 5.9m/s | 0°C | 0% | 0hPa | 0V | 00:00:00 | 00:00:00 | 00:00:00 | |
| KRY50SP | 2026-08-31 23:41:21 | 51.20663 | 17.22951 | 57° | 95km/h | 8718m | 8.1m/s | 0°C | 0% | 0hPa | 0V | 00:00:00 | 00:00:00 | 00:00:00 | |
| SQ6EMJ | 2026-08-31 23:41:14 | 51.20555 | 17.22754 | 54° | 104km/h | 8681m | 7.6m/s | 0°C | 0% | 0hPa | 0V | 00:00:00 | 00:00:00 | 00:00:00 | |
| KRY50SP | 2026-08-31 23:41:12 | 51.20527 | 17.22690 | 58° | 97km/h | 8669m | 3.6m/s | 0°C | 0% | 0hPa | 0V | 00:00:00 | 00:00:00 | 00:00:00 | |
| SQ6EMJ | 2026-08-31 23:41:08 | 51.20464 | 17.22543 | 55° | 108km/h | 8649m | 7.2m/s | 0°C | 0% | 0hPa | 0V | 00:00:00 | 00:00:00 | 00:00:00 | |
| KRY50SP | 2026-08-31 23:41:06 | 51.20433 | 17.22480 | 49° | 95km/h | 8638m | 8.7m/s | 0°C | 0% | 0hPa | 0V | 00:00:00 | 00:00:00 | 00:00:00 | |
| SQ6EMJ | 2026-08-31 23:41:02 | 51.20364 | 17.22345 | 62° | 115km/h | 8618m | 4.9m/s | 0°C | 0% | 0hPa | 0V | 00:00:00 | 00:00:00 | 00:00:00 | |
| SQ6EMJ | 2026-08-31 23:40:58 | 51.20289 | 17.22179 | 46° | 108km/h | 8594m | 4.6m/s | 0°C | 0% | 0hPa | 0V | 00:00:00 | 00:00:00 | 00:00:00 | |
| KRY50SP | 2026-08-31 23:40:57 | 51.20289 | 17.22179 | 46° | 108km/h | 8594m | 4.6m/s | 0°C | 0% | 0hPa | 0V | 00:00:00 | 00:00:00 | 00:00:00 | |
| SP3BTT-10 | 2026-08-31 23:40:51 | 51.20201 | 17.21958 | 67° | 106km/h | 8569m | 4.1m/s | 0°C | 0% | 0hPa | 0V | 00:00:00 | 00:00:00 | 00:00:00 | |
| SQ6EMJ | 2026-08-31 23:40:45 | 51.20091 | 17.21741 | 50° | 111km/h | 8524m | 7.7m/s | 0°C | 0% | 0hPa | 0V | 00:00:00 | 00:00:00 | 00:00:00 | |
| KRY50SP | 2026-08-31 23:40:44 | 51.20073 | 17.21708 | 50° | 106km/h | 8516m | 7.6m/s | 0°C | 0% | 0hPa | 0V | 00:00:00 | 00:00:00 | 00:00:00 | |
| SQ6EMJ | 2026-08-31 23:40:40 | 51.19984 | 17.21541 | 50° | 119km/h | 8481m | 3.2m/s | 0°C | 0% | 0hPa | 0V | 00:00:00 | 00:00:00 | 00:00:00 | |
| KRY50SP | 2026-08-31 23:40:39 | 51.19984 | 17.21541 | 50° | 119km/h | 8481m | 3.2m/s | 0°C | 0% | 0hPa | 0V | 00:00:00 | 00:00:00 | 00:00:00 | |
| SQ6EMJ | 2026-08-31 23:40:33 | 51.19893 | 17.21354 | 48° | 111km/h | 8450m | 4.8m/s | 0°C | 0% | 0hPa | 0V | 00:00:00 | 00:00:00 | 00:00:00 | |
| KRY50SP | 2026-08-31 23:40:32 | 51.19873 | 17.21320 | 48° | 119km/h | 8445m | 5.2m/s | 0°C | 0% | 0hPa | 0V | 00:00:00 | 00:00:00 | 00:00:00 | |
| SP6BVK | 2026-08-31 23:40:31 | 51.19854 | 17.21286 | 50° | 111km/h | 8440m | 5.8m/s | 0°C | 0% | 0hPa | 0V | 00:00:00 | 00:00:00 | 00:00:00 | |
| SQ6EMJ | 2026-08-31 23:40:28 | 51.19811 | 17.21189 | 58° | 91km/h | 8424m | 4.7m/s | 0°C | 0% | 0hPa | 0V | 00:00:00 | 00:00:00 | 00:00:00 | |
| KRY50SP | 2026-08-31 23:40:25 | 51.19762 | 17.21097 | 49° | 113km/h | 8407m | 5.9m/s | 0°C | 0% | 0hPa | 0V | 00:00:00 | 00:00:00 | 00:00:00 | |
| SQ6EMJ | 2026-08-31 23:40:23 | 51.19705 | 17.20991 | 50° | 106km/h | 8394m | 5.2m/s | 0°C | 0% | 0hPa | 0V | 00:00:00 | 00:00:00 | 00:00:00 | |
| KRY50SP | 2026-08-31 23:40:20 | 51.19676 | 17.20934 | 56° | 82km/h | 8384m | 5.3m/s | 0°C | 0% | 0hPa | 0V | 00:00:00 | 00:00:00 | 00:00:00 | |
| SQ6EMJ | 2026-08-31 23:40:18 | 51.19634 | 17.20840 | 53° | 108km/h | 8368m | 6.3m/s | 0°C | 0% | 0hPa | 0V | 00:00:00 | 00:00:00 | 00:00:00 | |
| KRY50SP | 2026-08-31 23:40:14 | 51.19580 | 17.20736 | 51° | 115km/h | 8352m | 5.7m/s | 0°C | 0% | 0hPa | 0V | 00:00:00 | 00:00:00 | 00:00:00 | |
| SQ6EMJ | 2026-08-31 23:40:12 | 51.19532 | 17.20640 | 53° | 88km/h | 8336m | 4.7m/s | 0°C | 0% | 0hPa | 0V | 00:00:00 | 00:00:00 | 00:00:00 | |
| SP6BVK | 2026-08-31 23:40:10 | 51.19519 | 17.20612 | 53° | 88km/h | 8332m | 3.3m/s | 0°C | 0% | 0hPa | 0V | 00:00:00 | 00:00:00 | 00:00:00 | |
| SP3BTT-10 | 2026-08-31 23:40:09 | 51.19505 | 17.20583 | 55° | 88km/h | 8327m | 5.4m/s | 0°C | 0% | 0hPa | 0V | 00:00:00 | 00:00:00 | 00:00:00 | |
| SQ6EMJ | 2026-08-31 23:40:06 | 51.19458 | 17.20475 | 52° | 110km/h | 8314m | 3.7m/s | 0°C | 0% | 0hPa | 0V | 00:00:00 | 00:00:00 | 00:00:00 | |
| KRY50SP | 2026-08-31 23:40:03 | 51.19409 | 17.20394 | 45° | 84km/h | 8298m | 4.8m/s | 0°C | 0% | 0hPa | 0V | 00:00:00 | 00:00:00 | 00:00:00 | |
| SQ6EMJ | 2026-08-31 23:40:00 | 51.19359 | 17.20313 | 49° | 113km/h | 8283m | 3.7m/s | 0°C | 0% | 0hPa | 0V | 00:00:00 | 00:00:00 | 00:00:00 | |
| KRY50SP | 2026-08-31 23:39:58 | 51.19321 | 17.20246 | 49° | 102km/h | 8275m | 4.8m/s | 0°C | 0% | 0hPa | 0V | 00:00:00 | 00:00:00 | 00:00:00 | |
| SQ6EMJ | 2026-08-31 23:39:54 | 51.19263 | 17.20152 | 41° | 88km/h | 8248m | 5.6m/s | 0°C | 0% | 0hPa | 0V | 00:00:00 | 00:00:00 | 00:00:00 | |
| KRY50SP | 2026-08-31 23:39:52 | 51.19228 | 17.20097 | 50° | 106km/h | 8236m | 8.0m/s | 0°C | 0% | 0hPa | 0V | 00:00:00 | 00:00:00 | 00:00:00 | |
| SP6BVK | 2026-08-31 23:39:50 | 51.19197 | 17.20032 | 58° | 93km/h | 8223m | 6.7m/s | 0°C | 0% | 0hPa | 0V | 00:00:00 | 00:00:00 | 00:00:00 | |
| SQ6EMJ | 2026-08-31 23:39:49 | 51.19185 | 17.20002 | 60° | 84km/h | 8217m | 4.8m/s | 0°C | 0% | 0hPa | 0V | 00:00:00 | 00:00:00 | 00:00:00 | |
| KRY50SP | 2026-08-31 23:39:47 | 51.19164 | 17.19946 | 63° | 84km/h | 8209m | 3.8m/s | 0°C | 0% | 0hPa | 0V | 00:00:00 | 00:00:00 | 00:00:00 | |
| SQ6EMJ | 2026-08-31 23:39:44 | 51.19124 | 17.19850 | 51° | 97km/h | 8197m | 5.4m/s | 0°C | 0% | 0hPa | 0V | 00:00:00 | 00:00:00 | 00:00:00 | |
| KRY50SP | 2026-08-31 23:39:41 | 51.19082 | 17.19768 | 60° | 78km/h | 8181m | 5.4m/s | 0°C | 0% | 0hPa | 0V | 00:00:00 | 00:00:00 | 00:00:00 | |
| SQ6EMJ | 2026-08-31 23:39:38 | 51.19049 | 17.19681 | 52° | 97km/h | 8167m | 5.5m/s | 0°C | 0% | 0hPa | 0V | 00:00:00 | 00:00:00 | 00:00:00 | |
| KRY50SP | 2026-08-31 23:39:33 | 51.18984 | 17.19536 | 64° | 69km/h | 8141m | 4.3m/s | 0°C | 0% | 0hPa | 0V | 00:00:00 | 00:00:00 | 00:00:00 | |
| SP6BVK | 2026-08-31 23:39:30 | 51.18949 | 17.19462 | 48° | 86km/h | 8125m | 6.5m/s | 0°C | 0% | 0hPa | 0V | 00:00:00 | 00:00:00 | 00:00:00 | |
| SQ6EMJ | 2026-08-31 23:39:27 | 51.18907 | 17.19395 | 42° | 69km/h | 8106m | 6.4m/s | 0°C | 0% | 0hPa | 0V | 00:00:00 | 00:00:00 | 00:00:00 | |
| KRY50SP | 2026-08-31 23:39:25 | 51.18881 | 17.19353 | 51° | 82km/h | 8094m | 7.6m/s | 0°C | 0% | 0hPa | 0V | 00:00:00 | 00:00:00 | 00:00:00 | |
| SQ6EMJ | 2026-08-31 23:39:21 | 51.18829 | 17.19236 | 61° | 82km/h | 8063m | 5.8m/s | 0°C | 0% | 0hPa | 0V | 00:00:00 | 00:00:00 | 00:00:00 | |
| SP3BTT-10 | 2026-08-31 23:39:20 | 51.18818 | 17.19210 | 55° | 78km/h | 8056m | 6.3m/s | 0°C | 0% | 0hPa | 0V | 00:00:00 | 00:00:00 | 00:00:00 | |
| KRY50SP | 2026-08-31 23:39:19 | 51.18808 | 17.19187 | 54° | 66km/h | 8050m | 6.2m/s | 0°C | 0% | 0hPa | 0V | 00:00:00 | 00:00:00 | 00:00:00 | |
| SQ6EMJ | 2026-08-31 23:39:16 | 51.18770 | 17.19126 | 44° | 82km/h | 8035m | 6.4m/s | 0°C | 0% | 0hPa | 0V | 00:00:00 | 00:00:00 | 00:00:00 | |
| KRY50SP | 2026-08-31 23:39:11 | 51.18704 | 17.18975 | 64° | 77km/h | 8003m | 5.4m/s | 0°C | 0% | 0hPa | 0V | 00:00:00 | 00:00:00 | 00:00:00 | |
| SP6BVK | 2026-08-31 23:39:10 | 51.18695 | 17.18949 | 61° | 71km/h | 7998m | 6.2m/s | 0°C | 0% | 0hPa | 0V | 00:00:00 | 00:00:00 | 00:00:00 | |
| KRY50SP | 2026-08-31 23:39:05 | 51.18629 | 17.18822 | 57° | 84km/h | 7969m | 6.9m/s | 0°C | 0% | 0hPa | 0V | 00:00:00 | 00:00:00 | 00:00:00 | |
| SQ6EMJ | 2026-08-31 23:39:04 | 51.18618 | 17.18795 | 58° | 75km/h | 7961m | 7.9m/s | 0°C | 0% | 0hPa | 0V | 00:00:00 | 00:00:00 | 00:00:00 | |
| KRY50SP | 2026-08-31 23:39:00 | 51.18575 | 17.18693 | 55° | 82km/h | 7936m | 4.6m/s | 0°C | 0% | 0hPa | 0V | 00:00:00 | 00:00:00 | 00:00:00 | |
| SQ6EMJ | 2026-08-31 23:38:58 | 51.18549 | 17.18636 | 53° | 95km/h | 7926m | 4.6m/s | 0°C | 0% | 0hPa | 0V | 00:00:00 | 00:00:00 | 00:00:00 | |
| SQ6EMJ | 2026-08-31 23:38:53 | 51.18475 | 17.18505 | 57° | 84km/h | 7900m | 8.0m/s | 0°C | 0% | 0hPa | 0V | 00:00:00 | 00:00:00 | 00:00:00 | |
| KRY50SP | 2026-08-31 23:38:51 | 51.18454 | 17.18449 | 64° | 77km/h | 7884m | 8.4m/s | 0°C | 0% | 0hPa | 0V | 00:00:00 | 00:00:00 | 00:00:00 | |
| SP6BVK | 2026-08-31 23:38:49 | 51.18433 | 17.18401 | 48° | 68km/h | 7870m | 3.7m/s | 0°C | 0% | 0hPa | 0V | 00:00:00 | 00:00:00 | 00:00:00 | |
| SQ6EMJ | 2026-08-31 23:38:48 | 51.18421 | 17.18381 | 48° | 71km/h | 7865m | 6.3m/s | 0°C | 0% | 0hPa | 0V | 00:00:00 | 00:00:00 | 00:00:00 | |
| KRY50SP | 2026-08-31 23:38:45 | 51.18381 | 17.18304 | 54° | 91km/h | 7848m | 4.3m/s | 0°C | 0% | 0hPa | 0V | 00:00:00 | 00:00:00 | 00:00:00 | |
| SQ6EMJ | 2026-08-31 23:38:41 | 51.18328 | 17.18182 | 63° | 78km/h | 7823m | 6.1m/s | 0°C | 0% | 0hPa | 0V | 00:00:00 | 00:00:00 | 00:00:00 | |
| SQ6EMJ | 2026-08-31 23:38:36 | 51.18275 | 17.18061 | 44° | 78km/h | 7795m | 5.8m/s | 0°C | 0% | 0hPa | 0V | 00:00:00 | 00:00:00 | 00:00:00 | |
| SP3BTT-10 | 2026-08-31 23:38:34 | 51.18247 | 17.18016 | 47° | 68km/h | 7783m | 6.9m/s | 0°C | 0% | 0hPa | 0V | 00:00:00 | 00:00:00 | 00:00:00 | |
| KRY50SP | 2026-08-31 23:38:33 | 51.18233 | 17.17993 | 51° | 75km/h | 7777m | 5.6m/s | 0°C | 0% | 0hPa | 0V | 00:00:00 | 00:00:00 | 00:00:00 | |
| SQ6EMJ | 2026-08-31 23:38:30 | 51.18205 | 17.17922 | 56° | 62km/h | 7757m | 4.8m/s | 0°C | 0% | 0hPa | 0V | 00:00:00 | 00:00:00 | 00:00:00 | |
| SP6BVK | 2026-08-31 23:38:29 | 51.18195 | 17.17902 | 51° | 64km/h | 7752m | 5.2m/s | 0°C | 0% | 0hPa | 0V | 00:00:00 | 00:00:00 | 00:00:00 | |
| SQ6EMJ | 2026-08-31 23:38:24 | 51.18136 | 17.17771 | 63° | 84km/h | 7721m | 4.8m/s | 0°C | 0% | 0hPa | 0V | 00:00:00 | 00:00:00 | 00:00:00 | |
| KRY50SP | 2026-08-31 23:38:23 | 51.18126 | 17.17743 | 60° | 77km/h | 7715m | 5.2m/s | 0°C | 0% | 0hPa | 0V | 00:00:00 | 00:00:00 | 00:00:00 | |
| SQ6EMJ | 2026-08-31 23:38:19 | 51.18078 | 17.17646 | 50° | 89km/h | 7693m | 4.6m/s | 0°C | 0% | 0hPa | 0V | 00:00:00 | 00:00:00 | 00:00:00 | |
| SQ6EMJ | 2026-08-31 23:38:14 | 51.18018 | 17.17517 | 51° | 64km/h | 7662m | 6.4m/s | 0°C | 0% | 0hPa | 0V | 00:00:00 | 00:00:00 | 00:00:00 | |
| SP6BVK | 2026-08-31 23:38:08 | 51.17950 | 17.17380 | 62° | 82km/h | 7626m | 4.3m/s | 0°C | 0% | 0hPa | 0V | 00:00:00 | 00:00:00 | 00:00:00 | |
| SQ6EMJ | 2026-08-31 23:38:03 | 51.17895 | 17.17259 | 44° | 60km/h | 7599m | 3.2m/s | 0°C | 0% | 0hPa | 0V | 00:00:00 | 00:00:00 | 00:00:00 | |
| SQ6EMJ | 2026-08-31 23:37:57 | 51.17819 | 17.17114 | 56° | 82km/h | 7565m | 4.4m/s | 0°C | 0% | 0hPa | 0V | 00:00:00 | 00:00:00 | 00:00:00 | |
| SQ6EMJ | 2026-08-31 23:37:51 | 51.17771 | 17.16984 | 53° | 62km/h | 7528m | 7.3m/s | 0°C | 0% | 0hPa | 0V | 00:00:00 | 00:00:00 | 00:00:00 | |
| SP6BVK | 2026-08-31 23:37:47 | 51.17725 | 17.16886 | 59° | 78km/h | 7503m | 7.5m/s | 0°C | 0% | 0hPa | 0V | 00:00:00 | 00:00:00 | 00:00:00 | |
| KRY50SP | 2026-08-31 23:37:46 | 51.17714 | 17.16859 | 58° | 77km/h | 7495m | 7.7m/s | 0°C | 0% | 0hPa | 0V | 00:00:00 | 00:00:00 | 00:00:00 | |
| SQ6EMJ | 2026-08-31 23:37:45 | 51.17703 | 17.16836 | 54° | 68km/h | 7489m | 4.6m/s | 0°C | 0% | 0hPa | 0V | 00:00:00 | 00:00:00 | 00:00:00 | |
| SQ6EMJ | 2026-08-31 23:37:39 | 51.17649 | 17.16693 | 65° | 78km/h | 7452m | 4.1m/s | 0°C | 0% | 0hPa | 0V | 00:00:00 | 00:00:00 | 00:00:00 | |
| KRY50SP | 2026-08-31 23:37:38 | 51.17639 | 17.16667 | 56° | 71km/h | 7448m | 4.7m/s | 0°C | 0% | 0hPa | 0V | 00:00:00 | 00:00:00 | 00:00:00 | |
| SQ6EMJ | 2026-08-31 23:37:34 | 51.17598 | 17.16597 | 52° | 58km/h | 7430m | 3.5m/s | 0°C | 0% | 0hPa | 0V | 00:00:00 | 00:00:00 | 00:00:00 | |
| SQ6EMJ | 2026-08-31 23:37:29 | 51.17549 | 17.16479 | 49° | 51km/h | 7407m | 6.3m/s | 0°C | 0% | 0hPa | 0V | 00:00:00 | 00:00:00 | 00:00:00 | |
| SP6BVK | 2026-08-31 23:37:27 | 51.17530 | 17.16455 | 35° | 53km/h | 7398m | 1.9m/s | 0°C | 0% | 0hPa | 0V | 00:00:00 | 00:00:00 | 00:00:00 | |
| SQ6EMJ | 2026-08-31 23:37:24 | 51.17478 | 17.16372 | 55° | 86km/h | 7375m | 8.0m/s | 0°C | 0% | 0hPa | 0V | 00:00:00 | 00:00:00 | 00:00:00 | |
| SQ6EMJ | 2026-08-31 23:37:17 | 51.17430 | 17.16249 | 35° | 62km/h | 7339m | 5.7m/s | 0°C | 0% | 0hPa | 0V | 00:00:00 | 00:00:00 | 00:00:00 | |
| SQ6EMJ | 2026-08-31 23:37:11 | 51.17366 | 17.16103 | 57° | 49km/h | 7301m | 7.7m/s | 0°C | 0% | 0hPa | 0V | 00:00:00 | 00:00:00 | 00:00:00 | |
| SP6BVK | 2026-08-31 23:37:06 | 51.17309 | 17.16026 | 54° | 60km/h | 7266m | 6.2m/s | 0°C | 0% | 0hPa | 0V | 00:00:00 | 00:00:00 | 00:00:00 | |
| SQ6EMJ | 2026-08-31 23:37:00 | 51.17265 | 17.15873 | 59° | 82km/h | 7231m | 5.5m/s | 0°C | 0% | 0hPa | 0V | 00:00:00 | 00:00:00 | 00:00:00 | |
| SQ6EMJ | 2026-08-31 23:36:54 | 51.17213 | 17.15763 | 66° | 46km/h | 7199m | 2.5m/s | 0°C | 0% | 0hPa | 0V | 00:00:00 | 00:00:00 | 00:00:00 | |
| SQ6EMJ | 2026-08-31 23:36:48 | 51.17149 | 17.15646 | 45° | 60km/h | 7168m | 4.9m/s | 0°C | 0% | 0hPa | 0V | 00:00:00 | 00:00:00 | 00:00:00 | |
| KRY50SP | 2026-08-31 23:36:47 | 51.17140 | 17.15628 | 59° | 58km/h | 7162m | 5.9m/s | 0°C | 0% | 0hPa | 0V | 00:00:00 | 00:00:00 | 00:00:00 | |
| SP6BVK | 2026-08-31 23:36:46 | 51.17133 | 17.15606 | 69° | 66km/h | 7155m | 7.9m/s | 0°C | 0% | 0hPa | 0V | 00:00:00 | 00:00:00 | 00:00:00 | |
| SQ6EMJ | 2026-08-31 23:36:42 | 51.17103 | 17.15500 | 54° | 66km/h | 7132m | 6.2m/s | 0°C | 0% | 0hPa | 0V | 00:00:00 | 00:00:00 | 00:00:00 | |
| SQ6EMJ | 2026-08-31 23:36:36 | 51.17048 | 17.15361 | 64° | 89km/h | 7104m | 0.8m/s | 0°C | 0% | 0hPa | 0V | 00:00:00 | 00:00:00 | 00:00:00 | |
| SQ6EMJ | 2026-08-31 23:36:28 | 51.16988 | 17.15200 | 42° | 55km/h | 7056m | 6.0m/s | 0°C | 0% | 0hPa | 0V | 00:00:00 | 00:00:00 | 00:00:00 | |
| SP6BVK | 2026-08-31 23:36:25 | 51.16959 | 17.15144 | 58° | 68km/h | 7035m | 8.7m/s | 0°C | 0% | 0hPa | 0V | 00:00:00 | 00:00:00 | 00:00:00 | |
| SQ6EMJ | 2026-08-31 23:36:22 | 51.16932 | 17.15067 | 59° | 73km/h | 7017m | 4.1m/s | 0°C | 0% | 0hPa | 0V | 00:00:00 | 00:00:00 | 00:00:00 | |
| KRY50SP | 2026-08-31 23:36:21 | 51.16922 | 17.15045 | 57° | 64km/h | 7012m | 5.3m/s | 0°C | 0% | 0hPa | 0V | 00:00:00 | 00:00:00 | 00:00:00 | |
| SQ6EMJ | 2026-08-31 23:36:17 | 51.16897 | 17.14964 | 70° | 69km/h | 6997m | 5.1m/s | 0°C | 0% | 0hPa | 0V | 00:00:00 | 00:00:00 | 00:00:00 | |
| SQ6EMJ | 2026-08-31 23:36:10 | 51.16831 | 17.14830 | 39° | 75km/h | 6959m | 4.5m/s | 0°C | 0% | 0hPa | 0V | 00:00:00 | 00:00:00 | 00:00:00 | |
| SP3BTT-10 | 2026-08-31 23:36:08 | 51.16797 | 17.14762 | 61° | 58km/h | 6942m | 6.5m/s | 0°C | 0% | 0hPa | 0V | 00:00:00 | 00:00:00 | 00:00:00 | |
| SQ6EMJ | 2026-08-31 23:35:59 | 51.16725 | 17.14620 | 47° | 84km/h | 6896m | 7.0m/s | 0°C | 0% | 0hPa | 0V | 00:00:00 | 00:00:00 | 00:00:00 | |
| SP6BVK | 2026-08-31 23:35:44 | 51.16560 | 17.14296 | 71° | 68km/h | 6814m | 5.1m/s | 0°C | 0% | 0hPa | 0V | 00:00:00 | 00:00:00 | 00:00:00 | |
| SQ6EMJ | 2026-08-31 23:35:25 | 51.16359 | 17.13882 | 37° | 78km/h | 6693m | 3.9m/s | 0°C | 0% | 0hPa | 0V | 00:00:00 | 00:00:00 | 00:00:00 | |
| SP6BVK | 2026-08-31 23:35:23 | 51.16342 | 17.13864 | 34° | 86km/h | 6689m | 3.8m/s | 0°C | 0% | 0hPa | 0V | 00:00:00 | 00:00:00 | 00:00:00 | |
| SQ6EMJ | 2026-08-31 23:35:19 | 51.16285 | 17.13782 | 58° | 60km/h | 6667m | 6.5m/s | 0°C | 0% | 0hPa | 0V | 00:00:00 | 00:00:00 | 00:00:00 | |
| SQ6EMJ | 2026-08-31 23:35:13 | 51.16217 | 17.13647 | 55° | 89km/h | 6636m | 1.5m/s | 0°C | 0% | 0hPa | 0V | 00:00:00 | 00:00:00 | 00:00:00 | |
| SQ6EMJ | 2026-08-31 23:35:08 | 51.16158 | 17.13547 | 53° | 58km/h | 6608m | 7.6m/s | 0°C | 0% | 0hPa | 0V | 00:00:00 | 00:00:00 | 00:00:00 | |
| SP6BVK | 2026-08-31 23:35:03 | 51.16108 | 17.13423 | 54° | 68km/h | 6574m | 8.1m/s | 0°C | 0% | 0hPa | 0V | 00:00:00 | 00:00:00 | 00:00:00 | |
| SQ6EMJ | 2026-08-31 23:35:02 | 51.16097 | 17.13402 | 44° | 71km/h | 6565m | 8.7m/s | 0°C | 0% | 0hPa | 0V | 00:00:00 | 00:00:00 | 00:00:00 | |
| SQ6EMJ | 2026-08-31 23:34:57 | 51.16043 | 17.13286 | 64° | 49km/h | 6532m | 5.6m/s | 0°C | 0% | 0hPa | 0V | 00:00:00 | 00:00:00 | 00:00:00 | |
| KRY50SP | 2026-08-31 23:34:51 | 51.15980 | 17.13186 | 33° | 68km/h | 6497m | 4.9m/s | 0°C | 0% | 0hPa | 0V | 00:00:00 | 00:00:00 | 00:00:00 | |
| KRY50SP | 2026-08-31 23:34:40 | 51.15879 | 17.12963 | 58° | 69km/h | 6431m | 3.8m/s | 0°C | 0% | 0hPa | 0V | 00:00:00 | 00:00:00 | 00:00:00 | |
| KRY50SP | 2026-08-31 23:34:34 | 51.15809 | 17.12862 | 37° | 60km/h | 6406m | 5.6m/s | 0°C | 0% | 0hPa | 0V | 00:00:00 | 00:00:00 | 00:00:00 | |
| SQ6EMJ | 2026-08-31 23:34:31 | 51.15780 | 17.12806 | 75° | 68km/h | 6388m | 3.7m/s | 0°C | 0% | 0hPa | 0V | 00:00:00 | 00:00:00 | 00:00:00 | |
| SQ6EMJ | 2026-08-31 23:34:23 | 51.15709 | 17.12619 | 65° | 73km/h | 6344m | 7.4m/s | 0°C | 0% | 0hPa | 0V | 00:00:00 | 00:00:00 | 00:00:00 | |
| SP6BVK | 2026-08-31 23:34:22 | 51.15709 | 17.12619 | 65° | 73km/h | 6344m | 7.4m/s | 0°C | 0% | 0hPa | 0V | 00:00:00 | 00:00:00 | 00:00:00 | |
| SP3BTT-10 | 2026-08-31 23:34:19 | 51.15679 | 17.12550 | 48° | 58km/h | 6328m | 3.6m/s | 0°C | 0% | 0hPa | 0V | 00:00:00 | 00:00:00 | 00:00:00 | |
| SQ6EMJ | 2026-08-31 23:34:12 | 51.15615 | 17.12407 | 62° | 89km/h | 6295m | 4.7m/s | 0°C | 0% | 0hPa | 0V | 00:00:00 | 00:00:00 | 00:00:00 | |
| SQ6EMJ | 2026-08-31 23:34:04 | 51.15542 | 17.12245 | 56° | 66km/h | 6245m | 5.0m/s | 0°C | 0% | 0hPa | 0V | 00:00:00 | 00:00:00 | 00:00:00 | |
| SP6BVK | 2026-08-31 23:34:02 | 51.15519 | 17.12202 | 46° | 73km/h | 6237m | 4.2m/s | 0°C | 0% | 0hPa | 0V | 00:00:00 | 00:00:00 | 00:00:00 | |
| SQ6EMJ | 2026-08-31 23:33:42 | 51.15324 | 17.11762 | 67° | 64km/h | 6144m | 5.3m/s | 0°C | 0% | 0hPa | 0V | 00:00:00 | 00:00:00 | 00:00:00 | |
| SP6BVK | 2026-08-31 23:33:41 | 51.15318 | 17.11737 | 70° | 73km/h | 6141m | 2.3m/s | 0°C | 0% | 0hPa | 0V | 00:00:00 | 00:00:00 | 00:00:00 | |
| SQ6EMJ | 2026-08-31 23:33:30 | 51.15217 | 17.11512 | 48° | 51km/h | 6094m | 3.2m/s | 0°C | 0% | 0hPa | 0V | 00:00:00 | 00:00:00 | 00:00:00 | |
| SQ6EMJ | 2026-08-31 23:33:25 | 51.15189 | 17.11430 | 54° | 55km/h | 6069m | 5.5m/s | 0°C | 0% | 0hPa | 0V | 00:00:00 | 00:00:00 | 00:00:00 | |
| SP6BVK | 2026-08-31 23:33:20 | 51.15142 | 17.11307 | 75° | 60km/h | 6041m | 3.5m/s | 0°C | 0% | 0hPa | 0V | 00:00:00 | 00:00:00 | 00:00:00 | |
| SQ6EMJ | 2026-08-31 23:33:14 | 51.15086 | 17.11180 | 66° | 80km/h | 6013m | 4.3m/s | 0°C | 0% | 0hPa | 0V | 00:00:00 | 00:00:00 | 00:00:00 | |
| SQ6EMJ | 2026-08-31 23:33:08 | 51.15045 | 17.11033 | 49° | 57km/h | 5987m | 2.5m/s | 0°C | 0% | 0hPa | 0V | 00:00:00 | 00:00:00 | 00:00:00 | |
| SQ6EMJ | 2026-08-31 23:33:03 | 51.15011 | 17.10923 | 75° | 60km/h | 5966m | 5.5m/s | 0°C | 0% | 0hPa | 0V | 00:00:00 | 00:00:00 | 00:00:00 | |
| SP6BVK | 2026-08-31 23:32:59 | 51.14988 | 17.10819 | 74° | 84km/h | 5944m | 6.8m/s | 0°C | 0% | 0hPa | 0V | 00:00:00 | 00:00:00 | 00:00:00 | |
| SQ6EMJ | 2026-08-31 23:32:57 | 51.14973 | 17.10760 | 64° | 73km/h | 5935m | 3.8m/s | 0°C | 0% | 0hPa | 0V | 00:00:00 | 00:00:00 | 00:00:00 | |
| SQ6EMJ | 2026-08-31 23:32:51 | 51.14924 | 17.10604 | 77° | 58km/h | 5904m | 3.7m/s | 0°C | 0% | 0hPa | 0V | 00:00:00 | 00:00:00 | 00:00:00 | |
| SQ6EMJ | 2026-08-31 23:32:46 | 51.14875 | 17.10480 | 54° | 86km/h | 5884m | 2.8m/s | 0°C | 0% | 0hPa | 0V | 00:00:00 | 00:00:00 | 00:00:00 | |
| SQ6EMJ | 2026-08-31 23:32:40 | 51.14836 | 17.10325 | 73° | 88km/h | 5856m | 5.2m/s | 0°C | 0% | 0hPa | 0V | 00:00:00 | 00:00:00 | 00:00:00 | |
| SP6BVK | 2026-08-31 23:32:39 | 51.14829 | 17.10292 | 69° | 88km/h | 5852m | 2.5m/s | 0°C | 0% | 0hPa | 0V | 00:00:00 | 00:00:00 | 00:00:00 | |
| SQ6EMJ | 2026-08-31 23:32:34 | 51.14795 | 17.10160 | 72° | 75km/h | 5821m | 7.5m/s | 0°C | 0% | 0hPa | 0V | 00:00:00 | 00:00:00 | 00:00:00 | |
| SQ6EMJ | 2026-08-31 23:32:28 | 51.14760 | 17.10023 | 70° | 55km/h | 5790m | 3.7m/s | 0°C | 0% | 0hPa | 0V | 00:00:00 | 00:00:00 | 00:00:00 | |
| SQ6EMJ | 2026-08-31 23:32:22 | 51.14732 | 17.09875 | 53° | 78km/h | 5764m | 4.9m/s | 0°C | 0% | 0hPa | 0V | 00:00:00 | 00:00:00 | 00:00:00 | |
| SP6BVK | 2026-08-31 23:32:19 | 51.14701 | 17.09799 | 71° | 64km/h | 5751m | 6.3m/s | 0°C | 0% | 0hPa | 0V | 00:00:00 | 00:00:00 | 00:00:00 | |
| SQ6EMJ | 2026-08-31 23:32:16 | 51.14687 | 17.09714 | 65° | 84km/h | 5735m | 6.2m/s | 0°C | 0% | 0hPa | 0V | 00:00:00 | 00:00:00 | 00:00:00 | |
| SQ6EMJ | 2026-08-31 23:32:10 | 51.14646 | 17.09562 | 76° | 80km/h | 5698m | 5.4m/s | 0°C | 0% | 0hPa | 0V | 00:00:00 | 00:00:00 | 00:00:00 | |
| SQ6EMJ | 2026-08-31 23:32:03 | 51.14589 | 17.09408 | 73° | 73km/h | 5649m | 7.9m/s | 0°C | 0% | 0hPa | 0V | 00:00:00 | 00:00:00 | 00:00:00 | |
| SP6BVK | 2026-08-31 23:31:59 | 51.14576 | 17.09293 | 77° | 69km/h | 5626m | 4.4m/s | 0°C | 0% | 0hPa | 0V | 00:00:00 | 00:00:00 | 00:00:00 | |
| SQ6EMJ | 2026-08-31 23:31:58 | 51.14569 | 17.09267 | 62° | 75km/h | 5619m | 6.3m/s | 0°C | 0% | 0hPa | 0V | 00:00:00 | 00:00:00 | 00:00:00 | |
| SQ6EMJ | 2026-08-31 23:31:52 | 51.14519 | 17.09130 | 71° | 46km/h | 5587m | 5.7m/s | 0°C | 0% | 0hPa | 0V | 00:00:00 | 00:00:00 | 00:00:00 | |
| SQ6EMJ | 2026-08-31 23:31:45 | 51.14460 | 17.08986 | 77° | 77km/h | 5552m | 6.9m/s | 0°C | 0% | 0hPa | 0V | 00:00:00 | 00:00:00 | 00:00:00 | |
| SQ6EMJ | 2026-08-31 23:31:29 | 51.14385 | 17.08590 | 78° | 86km/h | 5463m | 6.3m/s | 0°C | 0% | 0hPa | 0V | 00:00:00 | 00:00:00 | 00:00:00 | |
| SP6BVK | 2026-08-31 23:31:17 | 51.14331 | 17.08288 | 64° | 46km/h | 5389m | 5.4m/s | 0°C | 0% | 0hPa | 0V | 00:00:00 | 00:00:00 | 00:00:00 | |
| SQ6EMJ | 2026-08-31 23:31:08 | 51.14269 | 17.08038 | 58° | 49km/h | 5336m | 6.2m/s | 0°C | 0% | 0hPa | 0V | 00:00:00 | 00:00:00 | 00:00:00 | |
| SP6BVK | 2026-08-31 23:30:57 | 51.14212 | 17.07784 | 75° | 80km/h | 5276m | 5.5m/s | 0°C | 0% | 0hPa | 0V | 00:00:00 | 00:00:00 | 00:00:00 | |
| SP6BVK | 2026-08-31 23:30:37 | 51.14064 | 17.07329 | 51° | 66km/h | 5162m | 3.9m/s | 0°C | 0% | 0hPa | 0V | 00:00:00 | 00:00:00 | 00:00:00 | |
| SP6BVK | 2026-08-31 23:30:16 | 51.13890 | 17.06767 | 45° | 60km/h | 5046m | 2.6m/s | 0°C | 0% | 0hPa | 0V | 00:00:00 | 00:00:00 | 00:00:00 | |
| SQ6EMJ | 2026-08-31 23:30:05 | 51.13806 | 17.06504 | 78° | 80km/h | 4980m | 5.1m/s | 0°C | 0% | 0hPa | 0V | 00:00:00 | 00:00:00 | 00:00:00 | |
| SP6BVK | 2026-08-31 23:29:55 | 51.13713 | 17.06233 | 55° | 78km/h | 4909m | 4.0m/s | 0°C | 0% | 0hPa | 0V | 00:00:00 | 00:00:00 | 00:00:00 | |
| SQ6EMJ | 2026-08-31 23:29:54 | 51.13701 | 17.06208 | 54° | 78km/h | 4903m | 3.7m/s | 0°C | 0% | 0hPa | 0V | 00:00:00 | 00:00:00 | 00:00:00 | |
| SQ6EMJ | 2026-08-31 23:29:40 | 51.13603 | 17.05811 | 68° | 62km/h | 4832m | 6.9m/s | 0°C | 0% | 0hPa | 0V | 00:00:00 | 00:00:00 | 00:00:00 | |
| SQ6EMJ | 2026-08-31 23:29:35 | 51.13563 | 17.05702 | 51° | 78km/h | 4806m | 3.1m/s | 0°C | 0% | 0hPa | 0V | 00:00:00 | 00:00:00 | 00:00:00 | |
| SP6BVK | 2026-08-31 23:29:34 | 51.13551 | 17.05678 | 54° | 75km/h | 4802m | 3.7m/s | 0°C | 0% | 0hPa | 0V | 00:00:00 | 00:00:00 | 00:00:00 | |
| SQ6EMJ | 2026-08-31 23:29:28 | 51.13512 | 17.05532 | 76° | 88km/h | 4754m | 7.9m/s | 0°C | 0% | 0hPa | 0V | 00:00:00 | 00:00:00 | 00:00:00 | |
| SQ6EMJ | 2026-08-31 23:29:21 | 51.13451 | 17.05360 | 72° | 58km/h | 4709m | 4.7m/s | 0°C | 0% | 0hPa | 0V | 00:00:00 | 00:00:00 | 00:00:00 | |
| SQ6EMJ | 2026-08-31 23:29:15 | 51.13407 | 17.05206 | 57° | 86km/h | 4668m | 3.7m/s | 0°C | 0% | 0hPa | 0V | 00:00:00 | 00:00:00 | 00:00:00 | |
| SP6BVK | 2026-08-31 23:29:14 | 51.13395 | 17.05176 | 61° | 84km/h | 4665m | 2.7m/s | 0°C | 0% | 0hPa | 0V | 00:00:00 | 00:00:00 | 00:00:00 | |
| SQ6EMJ | 2026-08-31 23:29:09 | 51.13364 | 17.05035 | 79° | 75km/h | 4630m | 4.9m/s | 0°C | 0% | 0hPa | 0V | 00:00:00 | 00:00:00 | 00:00:00 | |
| SQ6EMJ | 2026-08-31 23:29:04 | 51.13347 | 17.04898 | 82° | 60km/h | 4602m | 2.5m/s | 0°C | 0% | 0hPa | 0V | 00:00:00 | 00:00:00 | 00:00:00 | |
| SP6BVK | 2026-08-31 23:28:53 | 51.13279 | 17.04622 | 75° | 73km/h | 4534m | 8.9m/s | 0°C | 0% | 0hPa | 0V | 00:00:00 | 00:00:00 | 00:00:00 | |
| SP6BVK | 2026-08-31 23:28:32 | 51.13137 | 17.04143 | 87° | 55km/h | 4406m | 4.5m/s | 0°C | 0% | 0hPa | 0V | 00:00:00 | 00:00:00 | 00:00:00 | |
| SP6BVK | 2026-08-31 23:28:11 | 51.13071 | 17.03686 | 98° | 37km/h | 4289m | 3.4m/s | 0°C | 0% | 0hPa | 0V | 00:00:00 | 00:00:00 | 00:00:00 | |
| SP6BVK | 2026-08-31 23:27:50 | 51.12999 | 17.03193 | 93° | 44km/h | 4172m | 5.8m/s | 0°C | 0% | 0hPa | 0V | 00:00:00 | 00:00:00 | 00:00:00 | |
| SP6BVK | 2026-08-31 23:27:29 | 51.12961 | 17.02817 | 71° | 42km/h | 4048m | 6.9m/s | 0°C | 0% | 0hPa | 0V | 00:00:00 | 00:00:00 | 00:00:00 | |
| SQ6EMJ | 2026-08-31 23:27:12 | 51.12907 | 17.02503 | 98° | 33km/h | 3946m | 8.7m/s | 0°C | 0% | 0hPa | 0V | 00:00:00 | 00:00:00 | 00:00:00 | |
| SP6BVK | 2026-08-31 23:27:09 | 51.12912 | 17.02448 | 97° | 62km/h | 3929m | 7.0m/s | 0°C | 0% | 0hPa | 0V | 00:00:00 | 00:00:00 | 00:00:00 | |
| SP6BVK | 2026-08-31 23:26:48 | 51.12847 | 17.02061 | 98° | 55km/h | 3809m | 6.1m/s | 0°C | 0% | 0hPa | 0V | 00:00:00 | 00:00:00 | 00:00:00 | |
| SP6BVK | 2026-08-31 23:26:27 | 51.12781 | 17.01702 | 83° | 33km/h | 3694m | 5.9m/s | 0°C | 0% | 0hPa | 0V | 00:00:00 | 00:00:00 | 00:00:00 | |
| SP6BVK | 2026-08-31 23:26:06 | 51.12710 | 17.01354 | 59° | 51km/h | 3574m | 3.8m/s | 0°C | 0% | 0hPa | 0V | 00:00:00 | 00:00:00 | 00:00:00 | |
| SP6BVK | 2026-08-31 23:25:46 | 51.12643 | 17.00949 | 96° | 51km/h | 3469m | 9.4m/s | 0°C | 0% | 0hPa | 0V | 00:00:00 | 00:00:00 | 00:00:00 | |
| SP6BVK | 2026-08-31 23:25:25 | 51.12569 | 17.00525 | 69° | 71km/h | 3345m | 3.5m/s | 0°C | 0% | 0hPa | 0V | 00:00:00 | 00:00:00 | 00:00:00 | |
| SP6BVK | 2026-08-31 23:25:04 | 51.12474 | 17.00037 | 69° | 75km/h | 3244m | 5.1m/s | 0°C | 0% | 0hPa | 0V | 00:00:00 | 00:00:00 | 00:00:00 | |
| SP6BVK | 2026-08-31 23:24:44 | 51.12399 | 16.99576 | 61° | 64km/h | 3148m | 3.8m/s | 0°C | 0% | 0hPa | 0V | 00:00:00 | 00:00:00 | 00:00:00 | |
| SP6BVK | 2026-08-31 23:24:23 | 51.12316 | 16.99065 | 91° | 62km/h | 3030m | 6.6m/s | 0°C | 0% | 0hPa | 0V | 00:00:00 | 00:00:00 | 00:00:00 | |
| SP6BVK | 2026-08-31 23:24:02 | 51.12223 | 16.98593 | 80° | 78km/h | 2932m | 5.4m/s | 0°C | 0% | 0hPa | 0V | 00:00:00 | 00:00:00 | 00:00:00 | |
| SP6BVK | 2026-08-31 23:23:42 | 51.12163 | 16.98093 | 65° | 68km/h | 2833m | 5.4m/s | 0°C | 0% | 0hPa | 0V | 00:00:00 | 00:00:00 | 00:00:00 | |
| SP6BVK | 2026-08-31 23:23:21 | 51.12090 | 16.97657 | 57° | 49km/h | 2725m | 5.1m/s | 0°C | 0% | 0hPa | 0V | 00:00:00 | 00:00:00 | 00:00:00 | |
| SP6BVK | 2026-08-31 23:23:00 | 51.12010 | 16.97262 | 52° | 57km/h | 2624m | 3.6m/s | 0°C | 0% | 0hPa | 0V | 00:00:00 | 00:00:00 | 00:00:00 | |
| SP6BVK | 2026-08-31 23:22:39 | 51.11901 | 16.96853 | 88° | 47km/h | 2526m | 5.2m/s | 0°C | 0% | 0hPa | 0V | 00:00:00 | 00:00:00 | 00:00:00 | |
| SP6BVK | 2026-08-31 23:22:19 | 51.11818 | 16.96536 | 83° | 29km/h | 2419m | 5.1m/s | 0°C | 0% | 0hPa | 0V | 00:00:00 | 00:00:00 | 00:00:00 | |
| SP6BVK | 2026-08-31 23:21:59 | 51.11716 | 16.96256 | 43° | 47km/h | 2319m | 2.5m/s | 0°C | 0% | 0hPa | 0V | 00:00:00 | 00:00:00 | 00:00:00 | |
| SP6BVK | 2026-08-31 23:21:38 | 51.11631 | 16.95941 | 88° | 49km/h | 2211m | 2.3m/s | 0°C | 0% | 0hPa | 0V | 00:00:00 | 00:00:00 | 00:00:00 | |
| SP6BVK | 2026-08-31 23:21:18 | 51.11545 | 16.95631 | 58° | 35km/h | 2106m | 3.8m/s | 0°C | 0% | 0hPa | 0V | 00:00:00 | 00:00:00 | 00:00:00 | |
| SP6BVK | 2026-08-31 23:20:57 | 51.11456 | 16.95281 | 54° | 35km/h | 1997m | 4.5m/s | 0°C | 0% | 0hPa | 0V | 00:00:00 | 00:00:00 | 00:00:00 | |
| SP6BVK | 2026-08-31 23:20:36 | 51.11382 | 16.94887 | 94° | 46km/h | 1888m | 5.2m/s | 0°C | 0% | 0hPa | 0V | 00:00:00 | 00:00:00 | 00:00:00 | |
| SP6BVK | 2026-08-31 23:20:06 | 51.11288 | 16.94288 | 90° | 64km/h | 1736m | 5.2m/s | 0°C | 0% | 0hPa | 0V | 00:00:00 | 00:00:00 | 00:00:00 | |
| SP6BVK | 2026-08-31 23:19:46 | 51.11277 | 16.93848 | 72° | 68km/h | 1639m | 5.5m/s | 0°C | 0% | 0hPa | 0V | 00:00:00 | 00:00:00 | 00:00:00 | |
| SP6BVK | 2026-08-31 23:19:20 | 51.11189 | 16.93239 | 64° | 53km/h | 1506m | 5.0m/s | 0°C | 0% | 0hPa | 0V | 00:00:00 | 00:00:00 | 00:00:00 | |
| SP6BVK | 2026-08-31 23:18:46 | 51.11136 | 16.92461 | 81° | 44km/h | 1334m | 4.2m/s | 0°C | 0% | 0hPa | 0V | 00:00:00 | 00:00:00 | 00:00:00 | |
| SP6BVK | 2026-08-31 23:18:17 | 51.11124 | 16.91809 | 84° | 55km/h | 1169m | 6.0m/s | 0°C | 0% | 0hPa | 0V | 00:00:00 | 00:00:00 | 00:00:00 | |
| SP6BVK | 2026-08-31 23:17:56 | 51.11118 | 16.91315 | 88° | 64km/h | 1060m | 5.2m/s | 0°C | 0% | 0hPa | 0V | 00:00:00 | 00:00:00 | 00:00:00 |